[[{"header":{"parameterUnit":"m.s-1","parameterCategory":1,"la1":30.6,"la2":29.2853,"lo1":-89.7004,"lo2":-87.6739,"dy":0.0162,"dx":0.0183,"nx":112,"ny":82,"refTime":"2023-11-09T18:00:00:Z","depth":0,"parameterNumber":2,"parameterNumberName":"U-component_of_WINDS"},"data":[0.0,0.0,0.0,0.0,0.0,0.0,0.0,0.0,0.0,0.0,0.0,0.0,0.0,0.0,0.0,0.0,0.0,0.0,0.0,0.0,0.0,0.0,0.0,0.0,0.0,0.0,0.0,0.0,0.0,0.0,0.0,0.0,0.0,0.0,0.0,0.0,0.0,0.0,0.0,0.0,0.0,0.0,0.0,0.0,0.0,0.0,0.0,0.0,0.0,0.0,0.0,0.0,0.0,0.0,0.0,0.0,0.0,0.0,0.0,0.0,0.0,0.0,0.0,0.0,0.0,0.0,0.0,0.0,0.0,0.0,0.0,0.0,0.0,0.0,0.0,0.0,0.0,0.0,0.0,0.0,0.0,0.0,0.0,0.0,0.0,0.0,0.0,0.0,0.0,0.0,3.6012,4.0828,4.4465,4.5853,4.4132,4.3138,4.037,3.5135,0.0,0.0,0.0,0.0,0.0,0.0,0.0,0.0,0.0,0.0,0.0,0.0,0.0,0.0,0.0,0.0,0.0,0.0,0.0,0.0,0.0,0.0,0.0,0.0,0.0,0.0,0.0,0.0,0.0,0.0,0.0,0.0,0.0,0.0,0.0,0.0,0.0,0.0,0.0,0.0,0.0,0.0,0.0,0.0,0.0,0.0,0.0,0.0,0.0,0.0,0.0,0.0,0.0,0.0,0.0,0.0,0.0,0.0,0.0,0.0,0.0,0.0,0.0,0.0,0.0,0.0,0.0,0.0,0.0,0.0,0.0,0.0,0.0,0.0,0.0,0.0,0.0,0.0,0.0,0.0,0.0,0.0,0.0,0.0,0.0,0.0,0.0,0.0,0.0,0.0,0.0,0.0,0.0,0.0,0.0,0.0,0.0,0.0,0.0,0.0,0.0,0.0,0.0,0.0,3.4997,4.0922,4.4078,4.4906,4.2793,4.1298,3.8838,3.5043,0.0,0.0,0.0,0.0,0.0,0.0,0.0,0.0,0.0,0.0,0.0,0.0,0.0,0.0,0.0,0.0,0.0,0.0,0.0,0.0,0.0,0.0,0.0,0.0,0.0,0.0,0.0,0.0,0.0,0.0,0.0,0.0,0.0,0.0,0.0,0.0,0.0,0.0,0.0,0.0,0.0,0.0,0.0,0.0,0.0,0.0,0.0,0.0,0.0,0.0,0.0,0.0,0.0,0.0,0.0,0.0,0.0,0.0,0.0,0.0,0.0,0.0,0.0,0.0,0.0,0.0,0.0,0.0,0.0,0.0,0.0,0.0,0.0,0.0,0.0,0.0,0.0,0.0,0.0,0.0,0.0,0.0,0.0,0.0,0.0,0.0,0.0,0.0,0.0,0.0,0.0,0.0,0.0,0.0,0.0,0.0,0.0,0.0,0.0,0.0,0.0,0.0,0.0,3.4337,3.6815,4.114,4.2944,4.3057,4.1208,3.9963,3.7639,3.3802,3.2826,0.0,0.0,0.0,0.0,0.0,0.0,0.0,0.0,0.0,0.0,0.0,0.0,0.0,0.0,0.0,0.0,0.0,0.0,0.0,0.0,0.0,0.0,0.0,0.0,0.0,0.0,0.0,0.0,0.0,0.0,0.0,0.0,0.0,0.0,0.0,0.0,0.0,0.0,0.0,0.0,0.0,0.0,0.0,0.0,0.0,0.0,0.0,0.0,0.0,0.0,0.0,0.0,0.0,0.0,0.0,0.0,0.0,0.0,0.0,0.0,0.0,0.0,0.0,0.0,0.0,0.0,0.0,0.0,0.0,0.0,0.0,0.0,0.0,0.0,0.0,0.0,0.0,0.0,0.0,0.0,0.0,0.0,0.0,0.0,0.0,0.0,0.0,0.0,0.0,0.0,0.0,0.0,0.0,0.0,0.0,0.0,0.0,0.0,0.0,0.0,0.0,0.0,3.6738,3.8785,4.0878,4.1687,4.1369,3.9684,3.8445,3.627,3.2721,3.1258,0.0,0.0,0.0,0.0,0.0,0.0,0.0,0.0,0.0,0.0,0.0,0.0,0.0,0.0,0.0,0.0,0.0,0.0,0.0,0.0,0.0,0.0,0.0,0.0,0.0,0.0,0.0,0.0,0.0,0.0,0.0,0.0,0.0,0.0,0.0,0.0,0.0,0.0,0.0,0.0,0.0,0.0,0.0,0.0,0.0,0.0,0.0,0.0,0.0,0.0,0.0,0.0,0.0,0.0,0.0,0.0,0.0,0.0,0.0,0.0,0.0,0.0,0.0,0.0,0.0,0.0,0.0,0.0,0.0,0.0,0.0,0.0,0.0,0.0,0.0,0.0,0.0,0.0,0.0,0.0,0.0,0.0,0.0,0.0,0.0,0.0,0.0,0.0,0.0,0.0,0.0,0.0,0.0,0.0,0.0,0.0,0.0,0.0,0.0,0.0,0.0,0.0,3.6938,3.943,3.963,4.069,4.0499,3.8311,3.6269,3.433,3.2602,2.9472,0.0,0.0,0.0,0.0,0.0,0.0,0.0,0.0,0.0,0.0,0.0,0.0,0.0,0.0,0.0,0.0,0.0,0.0,0.0,0.0,0.0,0.0,0.0,0.0,0.0,0.0,0.0,0.0,0.0,0.0,0.0,0.0,0.0,0.0,0.0,0.0,0.0,0.0,0.0,0.0,0.0,0.0,0.0,0.0,0.0,0.0,0.0,0.0,0.0,0.0,0.0,0.0,0.0,0.0,0.0,0.0,0.0,0.0,0.0,0.0,0.0,0.0,0.0,0.0,0.0,0.0,0.0,0.0,0.0,0.0,0.0,0.0,0.0,0.0,0.0,0.0,0.0,0.0,0.0,0.0,0.0,0.0,0.0,0.0,0.0,0.0,0.0,0.0,0.0,0.0,0.0,0.0,0.0,0.0,0.0,0.0,0.0,0.0,0.0,0.0,0.0,0.0,3.4759,3.7171,3.8423,3.8848,3.8544,3.7296,3.5986,3.4234,3.1901,0.0,0.0,0.0,0.0,0.0,0.0,0.0,0.0,0.0,0.0,0.0,0.0,0.0,0.0,0.0,0.0,0.0,0.0,0.0,0.0,0.0,0.0,0.0,0.0,0.0,0.0,0.0,0.0,0.0,0.0,0.0,0.0,0.0,0.0,0.0,0.0,0.0,0.0,0.0,0.0,0.0,0.0,0.0,0.0,0.0,0.0,0.0,0.0,0.0,0.0,0.0,0.0,0.0,0.0,0.0,0.0,0.0,0.0,0.0,0.0,0.0,0.0,0.0,0.0,0.0,0.0,0.0,0.0,0.0,0.0,0.0,0.0,0.0,0.0,0.0,0.0,0.0,0.0,0.0,0.0,0.0,0.0,0.0,0.0,0.0,0.0,0.0,0.0,0.0,0.0,0.0,0.0,0.0,0.0,0.0,0.0,0.0,0.0,0.0,0.0,0.0,0.0,3.1401,3.3923,3.6081,3.7236,3.7372,3.7104,3.6442,3.4708,3.2939,3.122,0.0,0.0,0.0,0.0,0.0,0.0,0.0,0.0,0.0,0.0,0.0,0.0,0.0,0.0,0.0,0.0,0.0,0.0,0.0,0.0,0.0,0.0,0.0,0.0,0.0,0.0,0.0,0.0,0.0,0.0,0.0,0.0,0.0,0.0,0.0,0.0,0.0,0.0,0.0,0.0,0.0,0.0,0.0,0.0,0.0,0.0,0.0,0.0,0.0,0.0,0.0,0.0,0.0,0.0,0.0,0.0,0.0,0.0,0.0,0.0,0.0,0.0,0.0,0.0,0.0,0.0,0.0,0.0,0.0,0.0,0.0,0.0,0.0,0.0,0.0,0.0,0.0,0.0,0.0,0.0,0.0,0.0,0.0,0.0,0.0,0.0,0.0,0.0,0.0,0.0,0.0,0.0,0.0,0.0,0.0,0.0,0.0,0.0,0.0,0.0,0.0,0.0,3.2181,3.5003,3.6718,3.6081,3.6404,3.6396,3.5733,3.2004,2.9988,0.0,0.0,0.0,0.0,0.0,0.0,0.0,0.0,0.0,0.0,0.0,0.0,0.0,0.0,0.0,0.0,0.0,0.0,0.0,0.0,0.0,0.0,0.0,0.0,0.0,0.0,0.0,0.0,0.0,0.0,0.0,0.0,0.0,0.0,0.0,0.0,0.0,0.0,0.0,0.0,0.0,0.0,0.0,0.0,0.0,0.0,0.0,0.0,0.0,0.0,0.0,0.0,0.0,0.0,0.0,0.0,0.0,0.0,0.0,0.0,0.0,0.0,0.0,0.0,0.0,0.0,0.0,0.0,0.0,0.0,0.0,0.0,0.0,0.0,0.0,0.0,0.0,0.0,0.0,0.0,0.0,0.0,0.0,0.0,0.0,0.0,0.0,0.0,0.0,0.0,0.0,0.0,0.0,0.0,0.0,0.0,0.0,0.0,0.0,0.0,0.0,0.0,0.0,3.119,3.3954,3.5877,3.5681,3.5266,3.4934,3.4743,3.1985,3.0065,2.9605,0.0,0.0,0.0,0.0,0.0,0.0,0.0,0.0,0.0,0.0,0.0,0.0,0.0,0.0,0.0,0.0,0.0,0.0,0.0,0.0,0.0,0.0,0.0,0.0,0.0,0.0,0.0,0.0,0.0,0.0,0.0,0.0,0.0,0.0,0.0,0.0,0.0,0.0,0.0,0.0,0.0,0.0,0.0,0.0,0.0,0.0,0.0,0.0,0.0,0.0,0.0,0.0,0.0,0.0,0.0,0.0,0.0,0.0,0.0,0.0,0.0,0.0,0.0,0.0,0.0,0.0,0.0,0.0,0.0,0.0,0.0,0.0,0.0,0.0,0.0,0.0,0.0,0.0,0.0,0.0,0.0,0.0,0.0,0.0,0.0,0.0,0.0,0.0,0.0,0.0,0.0,0.0,0.0,0.0,0.0,0.0,0.0,0.0,0.0,0.0,0.0,0.0,3.0683,3.2765,3.4345,3.456,3.4141,3.3871,3.3871,3.1549,2.973,2.8881,0.0,0.0,0.0,0.0,0.0,0.0,0.0,0.0,0.0,0.0,0.0,0.0,0.0,0.0,0.0,0.0,0.0,0.0,0.0,0.0,0.0,0.0,0.0,0.0,0.0,0.0,0.0,0.0,0.0,0.0,0.0,0.0,0.0,0.0,0.0,0.0,0.0,0.0,0.0,0.0,0.0,0.0,0.0,0.0,0.0,0.0,0.0,0.0,0.0,0.0,0.0,0.0,0.0,0.0,0.0,0.0,0.0,0.0,0.0,0.0,0.0,0.0,0.0,0.0,0.0,0.0,0.0,0.0,0.0,0.0,0.0,0.0,0.0,0.0,0.0,0.0,0.0,0.0,0.0,0.0,0.0,0.0,0.0,0.0,0.0,0.0,0.0,0.0,0.0,0.0,0.0,0.0,0.0,0.0,0.0,0.0,0.0,0.0,0.0,0.0,0.0,0.0,3.0584,3.1679,3.2607,3.314,3.3143,3.309,3.309,3.0822,2.9088,2.8336,0.0,0.0,0.0,0.0,0.0,0.0,0.0,0.0,0.0,0.0,0.0,0.0,0.0,0.0,0.0,0.0,0.0,0.0,0.0,0.0,0.0,0.0,0.0,0.0,0.0,0.0,0.0,0.0,0.0,0.0,0.0,0.0,0.0,0.0,0.0,0.0,0.0,0.0,0.0,0.0,0.0,0.0,0.0,0.0,0.0,0.0,0.0,0.0,0.0,0.0,0.0,0.0,0.0,0.0,0.0,0.0,0.0,0.0,0.0,0.0,3.195,3.0297,0.0,0.0,0.0,0.0,0.0,0.0,0.0,0.0,0.0,0.0,0.0,0.0,0.0,0.0,0.0,0.0,0.0,0.0,0.0,0.0,0.0,0.0,0.0,0.0,0.0,0.0,0.0,0.0,0.0,0.0,0.0,0.0,0.0,0.0,0.0,0.0,0.0,0.0,0.0,0.0,3.1027,3.1917,3.2607,3.314,3.2684,3.2326,3.2326,3.0061,2.8277,2.7429,2.5455,0.0,0.0,0.0,0.0,0.0,0.0,0.0,0.0,0.0,0.0,0.0,0.0,0.0,0.0,0.0,0.0,0.0,0.0,0.0,0.0,0.0,0.0,0.0,0.0,0.0,0.0,0.0,0.0,0.0,0.0,0.0,0.0,0.0,0.0,0.0,0.0,0.0,0.0,0.0,0.0,0.0,0.0,0.0,0.0,0.0,0.0,0.0,0.0,0.0,0.0,0.0,0.0,0.0,0.0,0.0,0.0,0.0,0.0,0.0,3.4272,3.2517,0.0,0.0,0.0,0.0,0.0,0.0,0.0,0.0,0.0,0.0,0.0,0.0,0.0,0.0,0.0,0.0,0.0,0.0,0.0,0.0,0.0,0.0,0.0,0.0,0.0,0.0,0.0,0.0,0.0,0.0,0.0,0.0,0.0,0.0,0.0,0.0,0.0,0.0,0.0,0.0,3.0153,3.0706,3.1229,3.2042,3.1805,3.1529,3.145,2.9753,2.8196,2.7041,2.5317,0.0,0.0,0.0,0.0,0.0,0.0,0.0,0.0,0.0,0.0,0.0,0.0,0.0,0.0,0.0,0.0,0.0,0.0,0.0,0.0,0.0,0.0,0.0,0.0,0.0,0.0,0.0,0.0,0.0,0.0,0.0,0.0,0.0,0.0,0.0,0.0,0.0,0.0,0.0,0.0,0.0,0.0,0.0,0.0,0.0,0.0,0.0,0.0,0.0,0.0,0.0,0.0,0.0,3.8402,3.8582,3.81,3.9255,3.9274,3.8316,3.6475,3.5173,3.4244,3.2862,0.0,0.0,0.0,0.0,0.0,0.0,0.0,0.0,0.0,0.0,0.0,0.0,0.0,0.0,0.0,0.0,0.0,0.0,0.0,0.0,0.0,0.0,3.0234,3.096,3.0856,3.0087,2.8473,0.0,0.0,0.0,0.0,0.0,0.0,0.0,0.0,0.0,0.0,0.0,2.9109,2.9393,2.9836,3.0831,3.0857,3.0699,3.0505,2.9463,2.8223,2.6896,2.5076,2.3036,0.0,0.0,0.0,0.0,0.0,0.0,0.0,0.0,0.0,0.0,0.0,0.0,0.0,0.0,0.0,0.0,0.0,0.0,0.0,0.0,0.0,0.0,0.0,0.0,0.0,0.0,0.0,0.0,0.0,0.0,0.0,0.0,3.2749,3.296,0.0,0.0,0.0,0.0,0.0,0.0,0.0,0.0,0.0,0.0,0.0,0.0,0.0,3.7954,3.794,4.0388,4.1121,4.021,4.268,4.2487,3.9978,4.1179,4.0819,3.924,3.8922,0.0,3.6533,3.5774,0.0,0.0,0.0,0.0,0.0,0.0,0.0,0.0,0.0,0.0,0.0,0.0,0.0,0.0,0.0,0.0,0.0,0.0,0.0,0.0,0.0,0.0,3.2803,3.1921,3.2026,3.2019,3.079,2.9,2.7389,2.6624,2.5803,2.5321,0.0,0.0,0.0,0.0,0.0,0.0,2.9217,2.9737,3.0189,3.069,3.0269,2.9879,2.9688,2.8667,2.7703,2.6854,2.4721,2.2992,2.1838,1.9421,0.0,0.0,0.0,0.0,0.0,0.0,0.0,0.0,0.0,0.0,0.0,0.0,0.0,0.0,0.0,0.0,0.0,0.0,0.0,0.0,0.0,0.0,0.0,0.0,0.0,0.0,0.0,0.0,0.0,3.178,3.2998,3.2104,3.3227,3.3306,0.0,0.0,0.0,0.0,0.0,0.0,0.0,0.0,0.0,3.8896,4.0121,4.1131,4.193,4.2838,4.352,4.3953,4.3813,4.3208,4.2266,4.2156,4.1349,4.0068,3.9898,3.9233,3.8204,3.6355,3.4354,3.2305,0.0,0.0,0.0,0.0,3.0713,3.104,3.317,3.3919,3.3919,3.3841,0.0,0.0,0.0,0.0,0.0,0.0,0.0,3.0895,3.1432,3.2319,3.3117,3.3227,3.347,3.3339,3.2208,3.0876,2.9479,2.7945,2.753,2.7174,2.6425,2.5578,0.0,0.0,0.0,2.76,2.9145,2.942,2.965,3.0141,2.9597,2.9103,2.8902,2.8181,2.7427,2.6674,2.4493,2.2609,2.1259,1.9272,1.7925,0.0,0.0,0.0,0.0,0.0,0.0,0.0,0.0,0.0,0.0,0.0,0.0,0.0,0.0,0.0,0.0,0.0,0.0,0.0,0.0,0.0,0.0,0.0,0.0,0.0,0.0,0.0,0.0,3.2808,3.3853,3.2222,3.4366,3.484,0.0,0.0,0.0,0.0,0.0,0.0,3.876,3.924,4.0219,4.1893,4.2968,4.4202,4.557,4.4769,4.4965,4.6104,4.3846,4.2663,4.2372,4.1668,4.0596,3.9331,3.9074,3.8729,3.8136,3.625,3.4505,3.2897,3.1261,3.0184,2.9755,3.1252,3.1811,3.2208,3.5031,3.599,3.5951,3.5715,3.5139,3.4003,3.1168,0.0,0.0,0.0,0.0,3.1332,3.2508,3.2881,3.313,3.3979,3.4188,3.3875,3.2725,3.213,3.121,2.9222,2.8965,2.8704,2.7553,2.6402,0.0,2.6781,2.7161,2.7706,2.8678,2.9032,2.9269,2.9413,2.8841,2.8283,2.7934,2.7352,2.6666,2.5859,2.3751,2.1886,2.0408,1.8914,1.7684,1.6738,0.0,0.0,0.0,0.0,0.0,0.0,0.0,0.0,0.0,0.0,0.0,0.0,0.0,0.0,0.0,0.0,0.0,0.0,0.0,0.0,0.0,0.0,0.0,0.0,0.0,0.0,0.0,0.0,0.0,3.4991,3.8105,0.0,0.0,0.0,0.0,3.8184,3.8598,3.9804,4.2124,4.2104,4.3049,4.5269,4.5978,4.6854,4.8002,4.6429,4.5438,4.506,4.3349,4.1147,3.86,3.9036,3.8022,3.5941,3.5922,3.5684,3.5372,3.5916,3.5746,3.499,3.3228,3.2202,3.1808,3.302,3.348,3.3665,3.4993,3.5436,3.5535,3.6093,3.5503,3.4366,3.3102,3.2301,0.0,0.0,3.2084,3.2432,3.302,3.3372,3.3561,3.3626,3.3639,3.3313,3.2117,3.1823,3.1445,3.0244,2.917,2.8599,2.9083,0.0,2.7385,2.7438,2.8438,2.8743,2.7556,2.8787,2.9444,2.8568,2.799,2.7373,2.6659,2.5865,2.499,2.4002,2.2096,2.0594,1.9696,1.799,1.6903,1.6513,1.6518,0.0,0.0,0.0,0.0,0.0,0.0,0.0,0.0,0.0,0.0,0.0,0.0,0.0,0.0,0.0,0.0,0.0,0.0,0.0,0.0,0.0,0.0,0.0,0.0,0.0,0.0,0.0,0.0,3.7347,4.028,0.0,3.8734,3.884,3.9585,4.0785,4.0987,4.2146,4.4637,4.4685,4.5248,4.6588,4.6834,4.6766,4.6393,4.5876,4.4926,4.3506,4.1508,3.9957,3.8777,3.7586,3.6437,3.5379,3.5209,3.469,3.4003,3.3967,3.396,3.3879,3.3269,3.2419,3.1674,3.2765,3.3641,3.4467,3.5588,3.6449,3.6935,3.6063,3.4809,3.349,3.2697,3.2285,3.2174,3.2352,3.2689,3.3125,3.3442,3.3328,3.3243,3.3583,3.3242,3.2668,3.2107,3.1785,3.1351,3.046,2.9863,2.9422,2.9145,2.814,2.7335,2.7197,2.7842,2.8178,2.7739,2.84,2.8645,2.7959,2.7295,2.6579,2.5793,2.5191,2.4379,2.3231,2.1223,1.9794,1.9167,1.7518,1.6496,1.6257,1.6242,1.6198,0.0,0.0,0.0,0.0,0.0,0.0,0.0,0.0,0.0,0.0,0.0,0.0,0.0,0.0,0.0,0.0,0.0,0.0,0.0,0.0,0.0,0.0,0.0,0.0,0.0,3.7727,3.9971,3.9449,4.2344,4.3585,4.1558,4.1628,4.2367,4.3701,4.3778,4.4554,4.6318,4.6224,4.6383,4.6911,4.6485,4.6116,4.5757,4.4398,4.3228,4.2242,3.9444,3.7944,3.7599,3.6003,3.5046,3.4578,3.4409,3.3884,3.3151,3.3006,3.2965,3.3019,3.304,3.2534,3.2,3.3268,3.4249,3.5097,3.6218,3.685,3.6936,3.5656,3.4377,3.3266,3.2679,3.2503,3.2546,3.2727,3.3077,3.3441,3.3556,3.3261,3.2939,3.3123,3.2559,3.1905,3.1587,3.1325,3.0978,3.049,3.0299,2.999,2.9298,2.8539,2.7932,2.7613,2.8019,2.8295,2.8094,2.8267,2.816,2.7561,2.6674,2.5726,2.4876,2.4289,2.3294,2.1746,2.0281,1.9078,1.8229,1.715,1.6409,1.6071,1.5802,1.5517,1.5192,0.0,0.0,0.0,0.0,0.0,0.0,0.0,0.0,0.0,0.0,0.0,0.0,0.0,0.0,0.0,0.0,0.0,0.0,0.0,0.0,0.0,0.0,0.0,3.5979,3.9791,4.22,4.1336,4.4374,4.5941,4.4466,4.513,4.5991,4.6862,4.6914,4.6976,4.718,4.6689,4.6407,4.6382,4.5089,4.4992,4.6276,4.2086,4.0389,4.1164,3.7254,3.5169,3.4754,3.4288,3.3832,3.3408,3.3408,3.313,3.2739,3.3182,3.311,3.2698,3.2719,3.2747,3.2978,3.4741,3.5386,3.5596,3.6788,3.6447,3.5408,3.4879,3.4327,3.3796,3.3266,3.3102,3.3102,3.3102,3.324,3.3398,3.3398,3.3122,3.2726,3.2226,3.1617,3.1035,3.0528,3.04,3.0387,3.0387,3.0387,3.0189,2.9588,2.9498,2.9306,2.8761,2.914,0.0,2.8471,2.8413,2.8131,2.7386,2.6136,2.4927,2.389,2.312,2.1731,1.9501,1.9226,1.8435,1.6848,1.6858,1.6593,1.5993,1.5216,1.4548,1.3967,0.0,0.0,0.0,0.0,0.0,0.0,0.0,0.0,0.0,0.0,0.0,0.0,0.0,0.0,0.0,0.0,0.0,0.0,0.0,0.0,0.0,3.6291,3.8231,3.8721,4.1311,4.3465,4.4267,4.5927,4.7082,4.7305,4.6649,4.6614,4.77,4.699,4.6667,4.6904,4.676,4.6404,4.5763,4.45,4.3156,4.1799,4.032,3.8578,3.6596,3.5739,3.4947,3.4278,3.3812,3.3522,3.3408,3.3408,3.313,3.2708,3.2832,3.2812,3.2729,3.3078,3.3531,3.4078,3.4565,3.5291,3.6164,3.6924,3.6447,3.5408,3.4879,3.4327,3.3796,3.3266,3.3102,3.3102,3.3102,3.3133,3.3176,3.3176,3.25,3.186,3.2125,3.1273,3.0438,3.0516,3.0347,3.0133,2.9991,2.9953,2.9821,2.937,2.9287,2.9053,2.8367,2.8722,2.8849,2.8258,2.8522,2.8467,2.774,2.6772,2.5565,2.4065,2.2814,2.1122,1.8817,1.8223,1.7465,1.6348,1.6497,1.6258,1.5506,1.5289,1.4591,0.0,0.0,0.0,0.0,0.0,0.0,0.0,0.0,0.0,0.0,0.0,0.0,0.0,0.0,0.0,0.0,0.0,0.0,0.0,0.0,0.0,0.0,3.8127,4.0074,4.1346,4.294,4.4522,4.6088,4.682,4.7585,4.8601,4.75,4.7057,4.7832,4.7062,4.6556,4.6601,4.6129,4.5417,4.4413,4.285,4.1265,3.9664,3.8567,3.7177,3.5539,3.5051,3.445,3.3791,3.3306,3.311,3.311,3.311,3.2965,3.2698,3.2698,3.2698,3.2729,0.0,0.0,0.0,0.0,3.6045,3.6726,3.7068,3.6307,3.5107,3.4803,3.4198,3.3517,3.319,3.3102,3.3102,3.3102,3.3102,3.304,3.2801,3.2051,3.1411,3.1524,3.0745,3.0022,3.0213,3.0102,2.9934,2.9811,2.9792,0.0,2.9492,2.9448,2.9221,2.8536,2.8919,2.9157,2.885,2.853,2.8124,2.7489,2.6165,2.4694,2.3138,2.2031,0.0,0.0,0.0,1.7294,1.6112,1.62,0.0,0.0,0.0,1.4313,1.3546,1.3618,0.0,0.0,1.319,1.3368,0.0,0.0,0.0,0.0,0.0,0.0,0.0,0.0,0.0,0.0,0.0,0.0,0.0,0.0,0.0,0.0,3.9889,4.1348,4.3506,4.426,4.5208,4.6923,4.7057,4.7487,4.8725,4.7833,4.7299,4.76,4.7126,4.6715,4.6401,4.5355,0.0,0.0,0.0,3.9891,3.9198,3.7193,3.621,3.6296,3.4762,3.3781,3.3325,3.2874,3.2698,3.2698,3.2698,3.2698,3.2698,3.2698,3.2698,3.2727,3.3001,3.3762,3.4902,3.6584,3.7242,3.7286,3.716,0.0,0.0,3.4741,3.406,3.3266,3.314,3.3102,3.3102,3.3102,3.3102,3.2964,3.2365,3.18,3.126,3.0733,3.0193,2.9792,2.9792,2.9792,2.9792,2.9792,2.9792,2.9792,2.9792,2.9792,2.9616,2.9082,2.9465,2.9792,2.9792,2.8572,2.7505,2.7021,2.5074,0.0,2.1822,2.1167,2.0101,1.8324,1.8215,1.7603,1.6212,1.6031,1.561,1.4874,1.4239,1.3901,1.3893,1.3337,1.3214,1.3499,1.3449,1.3603,0.0,0.0,0.0,0.0,0.0,0.0,0.0,0.0,0.0,0.0,0.0,0.0,0.0,0.0,0.0,3.8889,4.0284,4.1766,4.3557,4.391,4.4627,4.6353,4.6138,4.6361,4.7734,4.7415,4.7333,4.78,4.7359,4.7009,4.6948,4.6321,4.5441,4.4294,4.293,4.1277,3.9228,3.7424,3.5847,3.4573,3.3867,0.0,3.2822,3.2739,3.2698,3.2698,3.2698,3.2698,3.2698,3.2698,3.2698,3.2898,3.4781,3.5679,3.6028,3.7354,3.7817,3.7713,3.6846,3.6331,3.5916,3.5014,3.4552,3.4236,3.3366,3.3102,0.0,3.3102,3.3102,3.2964,3.2365,3.18,3.126,3.0733,3.0193,2.9792,2.9792,2.9792,2.9792,2.9792,2.9792,2.9792,2.9792,2.9792,2.9754,2.9641,2.9729,2.9792,2.9792,2.8942,2.8082,2.7449,2.5718,2.3971,2.2456,2.1602,2.0479,1.8988,1.8165,1.7557,1.7152,1.6186,1.5526,1.5214,1.4403,1.3727,1.3194,1.3326,1.3433,1.3492,1.3484,1.3513,0.0,0.0,0.0,0.0,0.0,0.0,0.0,0.0,0.0,0.0,0.0,3.4465,3.5855,0.0,3.8526,4.0395,4.1284,4.2321,4.3978,4.374,4.4017,4.5749,4.5691,4.5871,4.6869,4.7058,4.7212,4.7475,4.7249,4.7099,4.7099,4.6351,4.523,4.3755,4.2197,4.0375,3.8268,3.676,3.5358,3.4102,3.3864,3.3379,3.2698,3.2698,3.2698,3.2727,3.3332,3.3604,3.366,3.4218,3.4458,3.4603,3.6083,3.6123,3.5568,3.7353,3.7663,3.7122,3.6606,3.6205,3.5868,3.5293,3.4929,3.454,3.3746,3.3504,3.3454,3.3178,3.2889,3.2516,3.1951,3.1399,3.0871,3.0331,2.9993,2.9792,2.9792,2.9792,2.9792,2.9792,2.9792,2.9792,2.9792,2.9436,2.93,2.9733,2.9436,2.915,2.915,2.7806,2.6628,2.6063,2.4501,2.2993,2.1755,2.0663,1.9844,1.938,1.8567,1.7733,1.6933,1.6481,1.566,1.4424,1.4135,1.3747,1.325,1.3444,1.3479,1.3353,1.3559,1.3699,0.0,0.0,0.0,0.0,0.0,0.0,0.0,3.2778,3.3238,3.4508,3.5205,3.6184,3.8185,3.8666,3.9486,4.181,4.2213,4.2688,4.4104,4.3539,4.3554,4.4982,4.5259,4.5585,4.625,4.6785,4.7099,4.7099,4.7099,4.7099,4.7099,4.6188,4.4878,4.3211,4.1674,3.9962,3.8048,3.7017,3.5864,3.4573,3.4519,3.3901,3.2822,3.2739,3.2698,3.2755,3.3987,3.4508,3.458,3.5733,3.6185,3.6275,3.6851,3.6173,3.5097,3.7108,3.7311,3.6532,3.6455,3.6069,3.5669,3.5533,3.5132,3.459,3.406,3.3822,3.3621,3.309,3.2566,3.2043,3.1411,3.0922,3.045,2.993,2.9792,2.9792,2.9792,2.9792,2.9792,2.9792,2.9663,2.9546,2.9546,2.8811,2.8534,2.9417,2.8791,2.8231,2.8231,2.6433,2.4954,2.4493,2.3066,2.1781,2.0901,1.9843,1.9347,1.9634,1.9146,1.8202,1.677,1.6825,1.5959,1.394,1.4032,1.3945,1.3626,1.3667,1.3565,1.3319,1.3644,1.3811,3.0609,3.0674,3.1354,3.2975,3.3014,3.3451,0.0,3.655,3.6347,3.7628,3.8319,3.8867,3.9435,3.9936,4.069,4.1999,4.2213,4.2424,4.3102,4.3077,4.3253,4.3915,4.4418,4.5104,4.6213,4.6785,4.7099,4.7099,4.7099,4.7099,4.7099,4.6522,4.5634,4.4453,4.4195,4.2982,4.0697,4.0541,3.9075,3.6326,3.5943,3.4925,3.3325,3.2874,3.2698,3.2755,3.3987,3.4508,3.458,3.5733,3.6185,3.6275,3.6851,3.6703,3.6213,3.6997,3.7223,3.7047,3.6581,3.6367,3.6218,3.5682,3.5132,3.459,3.406,3.358,3.3077,3.2466,3.2244,3.1976,3.0939,3.0638,3.045,2.993,2.9792,2.9792,2.9792,2.9792,2.9792,2.9792,2.917,2.8653,2.8653,2.7871,2.7577,2.8502,2.7839,2.7252,2.7252,2.5906,2.4753,2.4275,2.2848,2.1658,2.0954,2.0593,2.0243,1.9882,1.9805,1.9181,1.7879,1.7226,1.6426,1.5394,1.4772,1.4314,1.403,1.4046,1.3949,1.3731,1.3782,1.3649,3.2347,3.2737,3.3304,3.4323,3.4669,3.5217,3.6995,3.7224,3.7388,3.8464,3.9108,3.9637,4.0061,4.06,4.1254,4.206,4.2449,4.2851,4.3376,4.3215,4.3215,4.374,4.4003,4.4581,4.5723,4.6326,4.676,4.7086,4.7099,4.7099,4.7099,4.6572,4.5769,4.4627,4.3906,4.2752,4.1112,4.0367,3.8847,3.661,3.6874,3.5724,3.3416,3.3646,3.3745,3.3773,3.4284,3.5234,3.6484,3.6664,3.7128,3.7721,3.7315,3.7023,3.6838,3.7116,3.6997,3.6695,3.6493,3.6405,3.6367,3.6117,3.5855,3.5516,3.4638,3.4223,3.3784,3.2554,3.2194,3.1943,3.0876,3.06,3.045,2.993,2.9792,2.9792,2.9792,2.9792,2.9792,2.9792,2.9111,2.8502,2.8502,2.7313,2.6442,2.6709,2.6524,2.6259,2.6021,2.4677,2.3365,2.238,2.1705,2.1163,2.0751,2.0399,2.0234,2.0302,1.9573,1.8719,1.7757,1.7114,1.6217,1.4983,1.47,1.441,1.4098,1.4026,1.3859,1.3627,1.3871,1.379,3.3351,3.3955,3.4454,3.5072,3.5901,3.6669,3.7171,3.7714,3.8301,3.8982,3.9446,3.986,4.0386,4.0826,4.1342,4.2072,4.2524,4.2977,4.3489,4.3127,4.2977,4.3514,4.33,4.3627,4.4895,4.5522,4.6045,4.6609,4.6647,4.671,4.686,4.6496,4.5861,4.4895,4.3993,4.2983,4.1858,4.0929,3.9581,3.7848,3.8234,3.7076,3.4589,3.4854,3.4958,3.4986,3.5289,3.6291,3.7671,3.761,3.7995,3.8567,3.7587,3.721,3.7185,3.7034,3.6733,3.6405,3.6405,3.6405,3.6405,3.6405,3.6281,3.5956,3.4992,3.459,3.4151,3.262,3.2194,3.1943,3.0876,3.06,3.045,2.993,2.9624,2.9495,2.9753,2.9397,2.9131,2.9397,2.8522,2.7758,2.7758,2.6462,2.5379,2.5168,2.5274,2.5187,2.4705,2.3421,2.21,2.0937,2.0819,2.0761,2.0605,2.0293,2.0244,2.0586,1.9454,1.8445,1.7665,1.7029,1.6071,1.4696,1.4712,1.4543,1.4176,1.4083,1.3913,1.3662,1.3964,1.3975,3.2704,3.323,3.3835,3.4999,3.6381,3.7551,3.79,3.8843,3.9634,3.9659,3.9685,3.986,4.0386,4.0499,4.089,4.2009,4.2225,4.2399,4.2951,4.2549,4.2411,4.2964,4.2057,4.203,4.3689,4.4355,4.489,4.5497,4.5535,4.5773,4.6313,4.6326,4.605,4.5485,4.543,4.4861,4.3733,4.3679,4.2753,4.0949,4.0523,3.9365,3.7542,3.659,3.6158,3.6224,3.7314,3.7544,3.7206,3.8374,3.8517,3.7977,3.7436,3.721,3.7148,3.6607,3.6394,3.6405,3.6405,3.6405,3.6405,3.6405,3.5994,3.542,3.4879,3.4327,3.3684,3.2541,3.2194,3.1943,3.0876,3.06,3.045,2.993,2.915,2.8771,2.9624,2.8422,2.7455,2.8363,2.7098,2.5882,2.5882,2.5147,2.4475,2.4261,2.4249,2.4011,2.3363,2.231,2.1372,2.0693,2.0605,2.0605,2.0605,2.0595,2.0566,2.0605,1.9766,1.8897,1.802,1.7159,1.6185,1.5103,1.5089,1.4852,1.4392,1.4399,1.4279,1.4083,1.4082,1.4082,3.3191,3.4229,3.5384,3.605,3.7034,3.7975,3.8479,3.8894,3.9271,3.9622,3.8919,3.8364,3.8781,3.8932,3.936,4.0376,4.1771,4.2788,4.2977,4.3451,4.3313,4.2017,4.2534,4.2733,4.2193,4.2999,4.3915,4.4844,4.5271,4.5573,4.5748,4.6112,4.605,4.551,4.5485,4.4945,4.3815,4.3802,4.2892,4.1088,3.9424,3.8329,3.7795,3.67,3.6185,3.6213,3.6603,3.6912,3.7106,3.7142,3.7294,3.7436,3.6884,3.6658,3.6645,3.648,3.6405,3.6405,3.6405,3.6405,3.6405,3.6405,3.6256,3.5918,3.4979,3.4565,3.4113,3.2608,3.2491,3.2528,3.1424,3.1135,3.0997,3.047,2.9389,2.8581,2.887,2.7971,2.7191,2.7516,2.6504,2.5589,2.5589,2.4733,2.3879,2.3404,2.3439,2.3299,2.2628,2.1948,2.1293,2.0674,2.0605,2.0605,2.0605,2.0605,2.0343,1.9775,1.8926,1.7986,1.6972,1.5884,1.5161,1.4838,1.4524,1.4386,1.4398,1.4265,1.4166,1.4109,1.4109,1.4109,3.3825,3.5016,3.6218,3.6984,3.7748,3.8417,3.8806,3.8894,3.8931,3.9069,3.8025,3.7179,3.7374,3.7371,3.7685,3.8906,4.0287,4.157,4.2575,4.2961,4.2971,4.2532,4.2924,4.3024,4.2532,4.2798,4.3363,4.4267,4.4857,4.5271,4.5485,4.6012,4.615,4.5799,4.5786,4.5234,4.4104,4.4104,4.3303,4.1757,3.9878,3.9027,3.9077,3.7946,3.7447,3.7447,3.7447,3.745,3.7393,3.7052,3.6912,3.6884,3.6519,3.6405,3.6405,3.6405,3.6405,3.6405,3.6405,3.6405,3.6405,3.6405,3.6243,3.5906,3.4979,3.4565,3.4161,3.288,3.2641,3.2575,3.1637,3.1032,3.0595,3.0365,2.8895,2.7718,2.8363,2.7212,2.6163,2.6462,2.5631,2.4893,2.4893,2.4097,2.3348,2.2951,2.2814,2.2525,2.1924,2.146,2.1036,2.0635,2.0605,2.0469,2.0147,2.0128,1.9766,1.8895,1.7945,1.7115,1.6435,1.5265,1.462,1.458,1.4207,1.4104,1.43,1.4038,1.3981,1.4109,1.4109,1.4109,3.4581,3.5547,3.6364,3.7674,3.8442,3.8881,3.8856,3.8831,3.8642,3.804,3.7022,3.6241,3.6279,3.583,3.6033,3.7714,3.8153,3.9182,4.1886,4.1404,4.1716,4.4213,4.3228,4.2914,4.4401,4.3639,4.325,4.3802,4.4301,4.4869,4.546,4.6012,4.6313,4.6313,4.6313,4.5744,4.4602,4.4539,4.4003,4.2951,4.1817,4.1302,4.1227,4.0187,3.9697,3.9697,3.9697,3.9057,3.8002,3.8002,3.7386,3.6405,3.6405,3.6405,3.6405,3.6405,3.6405,3.6405,3.6405,3.6405,3.6405,3.6405,3.5994,3.5395,3.4866,3.4336,3.3784,3.3253,3.2658,3.2043,3.1538,3.0352,2.9355,2.9667,2.7713,2.6276,2.7991,2.6163,2.4444,2.5263,2.4541,2.3776,2.3776,2.3295,2.291,2.286,2.2316,2.1728,2.1269,2.0859,2.0615,2.0605,2.0566,2.0196,1.9381,1.9262,1.8856,1.7977,1.6952,1.6353,1.6312,1.5262,1.4573,1.4398,1.4125,1.4028,1.4109,1.378,1.3787,1.4109,1.4109,1.4109,3.545,3.6873,3.8126,3.8015,3.8442,3.8781,3.8329,3.7914,3.7487,3.6921,3.54,3.4243,3.4494,3.4851,3.5753,3.77,4.0086,4.1984,4.27,4.3966,4.448,4.3514,4.3752,4.4003,4.4003,4.3765,4.3815,4.4367,4.4514,4.4869,4.546,4.6012,4.6313,4.6313,4.6313,4.5744,4.4602,4.3815,4.3077,4.2386,4.1641,4.1102,4.0675,4.0011,3.9697,3.9697,3.9697,3.9057,3.8002,3.8002,3.7386,3.6405,3.6405,3.6405,3.6405,3.6405,3.6405,3.6405,3.6405,3.6405,3.6405,3.6405,3.5994,3.5395,3.4866,3.4336,3.3784,3.3253,3.2448,3.1724,3.1578,3.0219,2.8883,2.8965,2.7356,2.5882,2.6214,2.5179,2.4218,2.424,2.3874,2.3515,2.3309,2.3165,2.2859,2.2243,2.2015,2.1728,2.1269,2.1113,2.0937,2.0635,2.001,1.9539,1.9321,1.8559,1.7747,1.6858,1.6358,1.5739,1.4936,1.4434,1.4179,1.418,1.385,1.3829,1.4109,1.4008,1.4015,1.4109,1.4109,1.4109,3.6581,3.7848,3.8818,3.8492,3.8655,3.8617,3.755,3.686,3.6094,3.4823,3.3465,3.2521,3.2462,3.3167,3.4448,3.6558,3.8906,4.1054,4.2763,4.3881,4.4509,4.4443,4.4769,4.4982,4.4907,4.4681,4.4769,4.5292,4.5146,4.5146,4.5472,4.6012,4.6313,4.6313,4.6313,4.5744,4.4602,4.3765,4.2964,4.22,4.1605,4.1026,4.0474,3.9948,3.9697,3.9697,3.9697,3.9057,3.8002,3.8002,3.7386,3.6405,3.6405,3.6405,3.6405,3.6405,3.6405,3.6405,3.6405,3.6405,3.6405,3.6405,3.583,3.5082,3.4791,3.4173,3.3492,3.319,3.2201,3.1254,3.1254,2.9645,2.8079,2.8272,2.6818,2.5424,2.5496,2.4648,2.3807,2.3537,2.3406,2.3276,2.3123,2.2945,2.2684,2.2236,2.2002,2.1728,2.1269,2.1045,2.0702,2.0098,1.9598,1.8955,1.8106,1.748,1.6698,1.5733,1.5428,1.5033,1.4412,1.4178,1.4054,1.4103,1.3774,1.3767,1.4109,1.3955,1.3961,1.4109,1.4109,1.4109,3.7762,3.8542,3.8982,3.8919,3.8894,3.8429,3.6683,3.583,3.4756,3.2545,3.1725,3.1248,3.0789,3.1642,3.3172,3.5458,3.686,3.8931,4.26,4.2838,4.3517,4.5912,4.5773,4.5698,4.625,4.5811,4.5711,4.6276,4.5861,4.5598,4.5598,4.605,4.6313,4.6313,4.6133,4.5593,4.4602,4.4079,4.3316,4.2313,4.1603,4.1064,4.0587,3.9986,3.9607,3.9478,3.9633,3.9018,3.7879,3.7953,3.7327,3.6316,3.6359,3.631,3.6216,3.6358,3.6405,3.6405,3.6405,3.631,3.6203,3.6358,3.5667,3.4803,3.4803,3.3959,3.3018,3.316,3.1917,3.0549,3.0701,2.8896,2.715,2.7436,2.6152,2.4923,2.519,2.4284,2.3385,2.3144,2.3091,2.3091,2.3091,2.281,2.2557,2.2519,2.2207,2.1765,2.1165,2.0829,2.0292,1.9415,1.9196,1.8365,1.6559,1.6278,1.5757,1.4734,1.4461,1.4356,1.4356,1.4187,1.4109,1.4109,1.3814,1.3807,1.4109,1.3807,1.3814,1.4109,1.4109,1.4109,3.8529,3.9132,3.9433,3.9007,3.8894,3.8341,3.6146,3.5242,3.4214,3.1989,3.1449,3.1361,3.1273,3.2541,3.4474,3.7124,3.8881,4.0802,4.3313,4.438,4.5083,4.5573,4.5547,4.5698,4.625,4.5811,4.5711,4.6276,4.6225,4.6175,4.6175,4.6263,4.6313,4.6313,4.5397,4.479,4.4589,4.4079,4.3476,4.2851,4.1792,4.1265,4.1139,4.0162,3.9167,3.8267,3.9284,3.8782,3.7297,3.7779,3.7109,3.5795,3.6224,3.587,3.5174,3.6061,3.6405,3.6405,3.6405,3.5823,3.5223,3.6108,3.5931,3.5357,3.5357,3.4022,3.2676,3.3536,3.1475,2.9249,3.0089,2.8347,2.6305,2.6031,2.5247,2.4438,2.3953,2.3484,2.3166,2.3123,2.3091,2.3091,2.3091,2.3033,2.2888,2.2547,2.2451,2.1942,2.0699,2.0719,2.0474,1.9485,1.8595,1.7629,1.6567,1.5683,1.4957,1.4475,1.4265,1.4145,1.4145,1.413,1.4109,1.4109,1.4035,1.4035,1.4109,1.4035,1.4035,1.4109,1.4109,1.4109,3.9095,3.9496,3.9496,3.863,3.8228,3.7361,3.4826,3.38,3.2771,3.057,3.0344,3.0577,3.0577,3.1913,3.3746,3.5943,3.7451,3.9446,4.2537,4.3441,4.4321,4.5748,4.5912,4.6024,4.6288,4.6075,4.6024,4.6288,4.6313,4.6313,4.6313,4.6313,4.6313,4.6313,4.551,4.4932,4.4589,4.4079,4.3376,4.2562,4.1704,4.1164,4.0863,4.0061,3.9388,3.8868,3.9452,3.9063,3.8019,3.8004,3.7183,3.5931,3.5673,3.5393,3.5184,3.5477,3.5918,3.6405,3.6405,3.5691,3.4872,3.5391,3.5179,3.4713,3.4713,3.3801,3.286,3.3339,3.1344,2.9142,2.9495,2.8068,2.6377,2.5579,2.4665,2.3839,2.339,2.3188,2.3159,2.3415,2.3269,2.3191,2.3415,2.3269,2.3023,2.2849,2.281,2.2258,2.0756,2.061,2.0042,1.846,1.772,1.6934,1.5959,1.5286,1.484,1.4725,1.446,1.4309,1.4309,1.4309,1.4242,1.4088,1.4109,1.4109,1.4109,1.4109,1.4109,1.4109,1.4109,1.4109,3.9333,3.9772,3.9747,3.8504,3.7776,3.6658,3.3906,3.2717,3.1604,2.9521,2.9546,3.0005,3.0118,3.1273,3.2783,3.4577,3.5619,3.7575,4.1456,4.211,4.3178,4.5811,4.6238,4.6313,4.6313,4.6313,4.6313,4.6313,4.62,4.6188,4.6301,4.6087,4.6012,4.6125,4.5485,4.4907,4.4426,4.4016,4.325,4.22,4.1605,4.1026,4.0474,3.9948,3.9555,3.9336,3.9456,3.913,3.8464,3.8016,3.7233,3.6204,3.5196,3.4965,3.5111,3.4625,3.515,3.6061,3.6061,3.5343,3.4459,3.4459,3.4185,3.3815,3.3815,3.3161,3.243,3.264,3.0815,2.8769,2.8771,2.769,2.631,2.518,2.4135,2.3392,2.3262,2.3259,2.3357,2.3721,2.3493,2.3337,2.3603,2.3337,2.3091,2.3091,2.3047,2.2431,2.0734,2.0281,1.9331,1.7286,1.6936,1.6433,1.5417,1.5139,1.5011,1.5001,1.4743,1.4616,1.4616,1.4616,1.4476,1.4182,1.4263,1.423,1.4109,1.417,1.417,1.4109,1.4155,1.4142,3.9133,4.0049,4.0775,3.922,3.8379,3.7211,3.4449,3.2993,3.1738,3.0055,3.0156,3.0683,3.1148,3.1775,3.2909,3.5069,3.5508,3.6937,4.0838,4.1844,4.3027,4.5296,4.5999,4.6313,4.6313,4.6313,4.6313,4.6313,4.5849,4.5786,4.6288,4.5305,4.502,4.5547,4.4518,4.3928,4.3878,4.3827,4.325,4.22,4.1605,4.1026,4.0474,3.9948,3.9089,3.8111,3.871,3.8322,3.7265,3.7258,3.6912,3.628,3.5221,3.4534,3.4067,3.3534,3.4042,3.4957,3.4957,3.4239,3.335,3.335,3.3315,3.3281,3.3281,3.1806,3.0292,3.1222,2.9204,2.6969,2.7786,2.6813,2.5344,2.4189,2.3531,2.3252,2.3643,2.373,2.374,2.3779,2.376,2.3613,2.324,2.312,2.3091,2.3091,2.2947,2.2148,2.0229,1.9532,1.8464,1.6504,1.6561,1.636,1.5472,1.5377,1.5263,1.4999,1.4959,1.4946,1.4946,1.4946,1.4805,1.4467,1.4765,1.4645,1.4109,1.4349,1.4342,1.4116,1.4355,1.4342,3.8755,3.9597,4.0111,3.9145,3.7688,3.6045,3.4299,3.2528,3.0952,2.9993,2.9967,3.0382,3.1235,3.1311,3.1876,3.3759,3.3749,3.4653,3.789,3.8567,4.0012,4.358,4.4166,4.4832,4.6175,4.6313,4.6175,4.5836,4.561,4.5434,4.5267,4.5196,4.5095,4.497,4.4531,4.4141,4.3802,4.3476,4.2951,4.22,4.1605,4.1026,4.0474,3.9948,3.9452,3.8999,3.9279,3.894,3.8172,3.7829,3.7331,3.6699,3.5316,3.4636,3.4317,3.3499,3.3646,3.4217,3.3926,3.3183,3.2318,3.2056,3.1421,3.0839,3.1413,3.0815,3.0052,3.0463,2.881,2.7032,2.7476,2.624,2.4729,2.4271,2.362,2.314,2.3337,2.3603,2.3867,2.4121,2.3965,2.3818,2.3874,2.3464,2.3057,2.2947,2.2347,2.1297,1.9619,1.8734,1.7684,1.6116,1.6071,1.6019,1.5682,1.5498,1.5424,1.5478,1.5317,1.5247,1.5247,1.5247,1.5106,1.4819,1.4926,1.4785,1.4349,1.4441,1.4347,1.4088,1.4208,1.4202,3.7797,3.8944,3.9722,3.8856,3.7186,3.5431,3.4186,3.2202,3.0437,2.9905,2.9792,3.0068,3.0984,3.0984,3.1273,3.2625,3.2616,3.3395,3.6044,3.6545,3.8027,4.1794,4.2396,4.33,4.5372,4.5874,4.5836,4.5271,4.5083,4.4807,4.4405,4.4606,4.4631,4.4351,4.4066,4.3714,4.3341,4.2773,4.2221,4.1695,4.1279,4.0775,4.0262,3.9873,3.9697,3.9685,3.9521,3.9258,3.8856,3.8253,3.7742,3.7205,3.5632,3.4896,3.4567,3.3373,3.3155,3.3413,3.2957,3.2285,3.1607,3.1197,3.0099,2.9047,2.9458,2.9446,2.9279,2.9168,2.7985,2.6709,2.6567,2.5466,2.4332,2.4079,2.3562,2.313,2.3279,2.3574,2.3877,2.417,2.4092,2.3984,2.401,2.3553,2.3115,2.2845,2.1819,2.0642,1.9415,1.8272,1.7167,1.6071,1.5855,1.5808,1.5808,1.5621,1.5588,1.5788,1.5615,1.5524,1.5524,1.5524,1.5391,1.512,1.52,1.499,1.4501,1.4609,1.4502,1.4215,1.4215,1.4215,3.6136,3.8175,4.0085,3.8429,3.7198,3.5942,3.4274,3.2202,3.0437,2.9905,2.9792,2.9967,3.052,3.1035,3.1562,3.2127,3.2726,3.3869,3.6094,3.6847,3.8015,4.0248,4.1001,4.198,4.3664,4.4844,4.5259,4.464,4.4129,4.3815,4.3815,4.33,4.3278,4.379,4.2776,4.2238,4.2225,4.163,4.1051,4.0512,4.0499,4.0237,3.9697,3.9697,3.9697,3.9659,3.9145,3.8906,3.8856,3.8253,3.8015,3.7829,3.6233,3.524,3.4509,3.2904,3.239,3.2459,3.1975,3.164,3.1328,3.0855,2.9801,2.8542,2.7692,2.7424,2.736,2.6933,2.6286,2.5523,2.4645,2.4434,2.4176,2.3305,2.3101,2.324,2.3691,2.3811,2.3789,2.3821,2.4121,2.4118,2.3247,2.3274,2.3252,2.2861,2.1561,2.036,1.9687,1.8262,1.7049,1.6361,1.6005,1.5808,1.5808,1.5801,1.5801,1.5808,1.5801,1.5801,1.5801,1.5801,1.5668,1.5398,1.5648,1.5368,1.4501,1.4839,1.4825,1.4494,1.4494,1.4494,3.4849,3.5834,3.6597,3.609,3.4737,3.3395,3.2867,3.1348,3.0005,2.9849,2.9792,2.9955,3.05,3.0738,3.1286,3.2591,3.2977,3.3605,3.5052,3.6044,3.7612,4.0186,4.2672,4.438,4.4907,4.492,4.4819,4.4614,4.4116,4.3639,4.3263,4.2738,4.2524,4.27,4.2389,4.1997,4.1605,4.1403,4.1039,4.0487,4.0487,4.0224,3.9697,3.9697,3.9697,3.9685,3.9509,3.8994,3.8266,3.809,3.7789,3.729,3.549,3.4434,3.3725,3.1868,3.0985,3.0603,3.0113,2.9995,2.9964,2.9501,2.8747,2.7921,2.7316,2.7139,2.6982,2.6256,2.5889,2.5581,2.501,2.4447,2.3916,2.3643,2.3337,2.313,2.3298,2.3574,2.3789,2.3789,2.3751,2.3625,2.3355,2.321,2.2796,2.1784,2.0878,1.9924,1.8783,1.7628,1.6805,1.661,1.6306,1.6052,1.5821,1.5808,1.5808,1.5808,1.5808,1.5808,1.5808,1.5808,1.5761,1.5675,1.5761,1.5568,1.5117,1.5217,1.511,1.4832,1.4409,1.4329,3.3328,3.4116,3.4626,3.4357,3.323,3.2152,3.1951,3.0809,2.9792,2.9792,2.9792,2.9892,3.0244,3.0633,3.1248,3.2298,3.2826,3.3458,3.454,3.5667,3.7336,3.9898,4.2612,4.4183,4.394,4.4166,4.42,4.4016,4.3689,4.3338,4.3027,4.2286,4.1844,4.1844,4.167,4.1367,4.1001,4.08,4.0524,4.0212,4.0212,4.0023,3.9685,3.9484,3.9522,3.9685,3.9497,3.8931,0.0,3.7703,3.7059,3.6137,3.4567,3.346,3.2631,3.1599,3.0642,2.9826,2.9546,2.9354,2.9147,2.8706,2.8032,2.7344,2.6914,2.6635,2.6401,2.584,2.5591,2.5381,2.4941,2.4307,2.375,2.3584,2.3308,2.3091,2.3091,2.3327,2.35,2.3434,2.3403,2.3326,2.3073,2.2649,2.208,2.1232,2.0082,1.9071,1.843,1.7369,1.6747,1.6886,1.6638,1.6359,1.6155,1.5935,1.5808,1.5808,1.5808,1.5808,1.5808,1.5808,1.5808,1.5808,1.5808,1.5661,1.5398,1.5398,1.5153,1.4651,1.4504,1.4417,0.0,3.2859,3.3774,3.3075,3.2483,3.1901,3.1399,3.0527,0.0,2.9792,2.9792,2.9804,2.9842,3.067,3.1373,3.1486,3.2449,3.352,3.4603,3.5855,3.7462,3.9559,4.1293,4.206,4.1428,4.2823,4.3526,4.3052,4.2964,4.2926,4.2889,4.1829,4.1225,4.1225,4.0725,4.0437,4.0437,3.9948,3.9697,3.9697,3.9697,3.9697,3.9672,3.9031,3.9005,3.9455,3.8828,3.8389,3.8034,3.6974,3.5774,3.4522,3.3433,3.2312,3.137,3.1709,3.1014,2.9881,2.9881,2.9439,2.8799,2.835,2.7666,2.6898,2.6435,2.6016,2.5659,2.5659,2.5342,2.4906,2.4473,2.4062,2.3643,2.3188,2.3091,2.3091,2.3091,2.3091,2.3013,2.275,2.299,2.2989,2.2299,2.1612,2.1096,2.091,1.9154,1.802,1.8459,1.747,1.6874,1.7206,1.6939,1.674,1.674,1.6195,1.5861,1.5841,1.5841,1.5828,1.5808,1.5808,1.5808,1.5808,1.5808,1.5675,1.5431,1.5384,1.4979,1.4195,1.4698,1.4651,3.0123,0.0,3.1251,3.1084,3.0701,3.0331,0.0,2.9967,2.9792,2.9792,2.9792,2.993,3.0344,3.0633,3.121,3.2499,3.3278,3.4085,3.5157,3.7752,3.9885,4.0813,4.2409,4.3065,4.2085,4.2725,4.3152,4.3014,4.2612,4.2198,4.1716,4.1051,4.0688,4.0688,4.0174,3.9885,3.9885,3.976,3.9697,3.9697,3.9697,3.9697,3.9646,3.8033,3.7374,3.7394,3.5834,3.4872,3.4434,3.4165,3.3583,3.2774,3.1475,3.0813,3.0444,2.9533,2.8988,2.8702,2.8702,2.8579,2.831,2.7559,2.7178,2.6807,2.5737,2.5327,2.5248,2.5248,2.4701,2.4095,2.3965,2.3591,2.324,2.312,2.3091,2.3091,2.3091,2.3091,2.2818,2.1854,2.1593,2.1203,2.0059,1.9857,1.9572,1.871,1.8562,1.8315,1.7608,1.7462,1.7428,1.7501,1.7247,1.7073,1.7073,1.6714,1.6406,1.621,1.6166,1.6066,1.5815,1.5808,1.5808,1.5808,1.5808,1.5775,1.5708,1.5284,1.5099,1.5077,1.4564,1.4484,2.9661,3.02,3.0714,3.0533,3.0332,3.0168,3.0168,2.998,2.9716,2.9453,2.9616,2.988,3.0181,3.0645,3.1348,3.2491,3.337,3.4462,3.6045,3.804,3.9734,4.0813,4.1942,4.2434,4.1844,4.2311,4.2524,4.2246,4.1944,4.1643,4.1327,4.0788,4.0487,4.0487,3.9986,3.9697,3.9697,3.9581,3.9581,3.9685,3.8674,3.8241,3.8308,3.6131,3.5274,3.5434,3.4172,3.3406,3.2975,3.2445,3.1823,3.1081,2.9859,2.9381,2.9333,2.8765,2.8457,2.832,2.8516,2.833,2.7888,2.7002,2.6567,2.6235,2.5375,2.4818,2.4545,2.474,2.4434,2.4033,2.3838,2.3613,2.3367,2.314,2.3091,2.3079,2.2991,2.2589,2.2009,2.1145,2.0517,1.9883,1.9093,1.866,1.829,1.7858,1.7717,1.7489,1.7029,1.7227,1.7408,1.7408,1.7388,1.7374,1.7374,1.7227,1.6927,1.6524,1.6473,1.6339,1.6046,1.6032,1.5972,1.5808,1.5808,1.5741,1.5631,1.5451,1.5327,1.5213,1.4872,1.4532,2.9637,3.0438,3.1051,3.0633,3.0545,3.0575,3.0487,3.0131,2.9654,2.9145,2.9453,2.9842,3.0005,3.0803,3.1625,3.2353,3.3495,3.5077,3.7374,3.8015,3.8831,4.0311,4.0976,4.1252,4.1076,4.1656,4.1833,4.1227,4.1189,4.1152,4.1064,4.0625,4.0361,4.0361,3.9936,3.9685,3.9645,3.9413,3.94,3.9555,3.7603,3.6768,3.6902,3.432,3.3394,3.3758,3.2845,3.232,3.2034,3.1064,3.0263,2.9565,2.8654,2.8291,2.834,2.8691,2.8555,2.8242,2.8525,2.8164,2.7448,2.6572,2.601,2.561,2.5049,2.4388,2.3857,2.4141,2.4245,2.4196,2.3799,2.374,2.3682,2.3198,2.3091,2.3003,2.2652,2.1908,2.1078,2.0322,1.9474,1.8772,1.8396,1.7645,1.7162,1.7459,1.6822,1.6384,1.6607,1.6926,1.7146,1.7199,1.7394,1.7561,1.7608,1.7608,1.7368,1.6867,1.68,1.6627,1.631,1.6297,1.6132,1.5815,1.5808,1.5681,1.5464,1.5641,1.5511,1.5059,1.526,1.4633,2.9314,3.0222,3.0818,3.0309,3.0394,3.0475,3.003,2.9854,2.9767,2.9679,2.9729,3.0068,3.1004,3.1286,3.1888,3.3395,3.4977,3.696,3.9634,3.9672,3.971,4.0411,4.0976,4.0938,4.0036,4.0838,4.1202,4.065,4.0612,4.0411,3.9973,3.9873,3.9823,3.9823,3.9735,3.9581,3.9362,3.931,3.918,3.8919,3.8183,3.7849,3.7786,3.4406,3.2916,3.2845,3.0196,2.9036,2.8983,2.8797,2.866,2.8521,2.8371,2.8291,2.8301,2.8369,2.8151,2.7741,2.7412,2.7201,2.6947,2.6089,2.5767,2.5493,2.4346,2.3919,2.3721,2.3396,2.3581,2.3789,2.3327,2.3493,2.3682,2.3198,2.3091,2.2818,2.1756,2.1409,2.0669,1.8557,1.8025,1.7568,1.6457,1.6133,1.6059,1.6099,1.6233,1.631,1.6357,1.6593,1.6899,1.7172,1.7239,1.7341,1.7588,1.7608,1.7568,1.7481,1.724,1.6891,1.6317,1.6297,1.6132,1.5815,1.5808,1.5781,1.5735,1.5541,1.5418,1.5324,1.5146,1.4458,2.8436,2.934,3.0126,3.0069,3.1019,3.1888,3.1645,0.0,0.0,3.0783,3.0896,3.116,3.1348,3.2139,3.3483,3.5755,3.6521,3.7487,3.9358,3.9132,3.8994,3.9559,4.0111,4.0249,3.9747,4.0399,4.0637,4.0111,4.0074,3.9961,3.971,3.9697,3.9633,3.9478,3.9191,3.8849,3.8398,3.809,3.8102,3.8397,3.6403,3.5393,3.5116,3.1869,3.0374,3.0285,2.8893,2.8291,2.8291,2.8291,2.8291,2.8291,2.8291,2.8291,2.8262,2.8064,2.7712,2.7217,2.6537,2.6303,2.6157,2.5279,2.4849,2.4547,2.3975,2.3623,2.3376,2.3149,2.3591,2.3975,2.3288,2.361,2.3942,2.3247,2.2611,2.1943,2.1279,2.0209,1.8987,1.7738,1.7037,1.648,1.5896,1.5808,1.5808,1.5808,1.5921,1.6032,1.6032,1.6286,1.6545,1.671,1.7012,1.7253,1.7361,1.7521,1.7608,1.7608,1.736,1.7079,1.6811,1.6464,1.6237,1.6072,1.5888,1.5808,1.5808,1.5675,1.5561,1.5437,1.4727,1.3761,2.7831,2.8663,2.954,3.0017,0.0,0.0,0.0,0.0,0.0,0.0,3.2403,3.2478,3.2051,3.3244,3.5064,3.7437,3.7676,3.8002,3.912,3.8768,3.8617,3.9208,3.9547,3.9697,3.9697,4.0074,4.0149,3.9722,3.9572,3.9496,3.9496,3.9496,3.9356,3.9014,3.8727,3.8236,3.7501,3.7099,3.7162,3.7665,3.5008,3.3511,3.2989,3.0297,2.8936,2.8644,2.8398,2.8291,2.8291,2.8291,2.8232,2.8171,2.8171,2.8086,2.793,2.7428,2.7002,2.6567,2.5708,2.5406,2.5279,2.4498,2.4053,2.3769,2.3662,2.3386,2.3091,2.3091,2.3659,2.4069,2.3296,2.3679,2.3981,2.2926,2.1965,2.1092,2.0381,1.8895,1.7552,1.7044,1.6322,1.5808,1.5808,1.5808,1.5808,1.5808,1.5808,1.5808,1.5808,1.6025,1.6217,1.629,1.6698,1.7018,1.7092,1.7341,1.7508,1.7508,1.7361,1.7273,1.7206,1.677,1.6438,1.6304,1.5997,1.5797,1.573,1.5666,1.5421,1.501,1.4202,1.2987,2.8125,2.8781,2.9441,3.0328,3.067,0.0,3.2751,3.2667,0.0,3.4163,0.0,0.0,3.3721,3.4628,3.5807,3.7048,3.8115,3.9158,4.0237,3.9923,3.9772,4.0311,3.9986,3.9697,3.9697,3.9722,3.9735,3.9697,3.9245,3.8957,3.8957,3.8957,3.868,3.8116,3.8605,3.8341,3.7242,3.7205,3.6941,3.6509,3.5767,3.4903,3.3859,3.2152,3.0779,2.9723,2.8724,2.8291,2.8291,2.8291,2.8093,2.7741,2.7741,2.7487,2.6986,2.6157,2.5825,2.5679,2.4801,2.4489,2.441,2.3984,2.3809,2.3711,2.3288,2.312,2.3091,2.3091,2.3454,2.373,2.324,2.3464,2.3432,2.1813,2.136,2.0688,1.8411,1.78,1.7342,1.6133,1.5849,1.5808,1.5808,1.5808,1.5808,1.5808,1.5808,1.5808,1.5808,1.5821,1.5965,1.627,1.6337,1.6471,1.6714,1.7033,1.7233,1.7233,1.7441,1.7454,1.7213,1.7159,1.6878,1.631,1.602,1.5785,1.5516,1.5267,1.464,1.3631,1.3559,1.2315,2.7316,2.8346,2.9439,2.9669,3.043,0.0,0.0,3.4176,3.454,3.5544,3.5868,0.0,0.0,3.6056,3.6935,3.8077,3.8906,3.9647,4.0413,3.9747,3.9283,3.9471,3.8981,3.8781,3.917,3.9208,3.9208,3.9208,3.9007,3.8894,3.8894,3.8555,3.8316,3.8254,3.7805,3.7221,3.6454,3.6112,3.5437,3.4392,3.3864,3.3056,3.2007,3.0322,2.9171,2.8521,2.836,2.8291,2.8291,2.8291,2.8073,2.7663,2.7373,2.7002,2.6553,2.5932,2.5532,2.5195,2.4326,2.4033,2.3955,2.3503,2.3367,2.3327,2.314,2.3091,2.3091,2.3091,2.324,2.3305,2.2996,2.2811,2.2426,2.1356,2.0056,1.8818,1.7893,1.7084,1.6386,1.5896,1.5808,1.5808,1.5808,1.5808,1.5808,1.5808,1.5808,1.5808,1.5808,1.5808,1.5848,1.5985,1.619,1.6417,1.668,1.6662,1.6808,1.7186,1.7448,1.7555,1.7448,1.7093,1.6706,1.6311,1.5875,1.5198,1.4262,1.4142,1.3492,1.229,1.1634,1.0754,2.6975,2.8119,2.9394,2.9384,0.0,0.0,3.4414,3.5232,3.5809,3.696,3.7072,3.6833,3.648,3.6695,3.7261,3.8215,3.8982,3.9597,3.9936,3.9195,3.8617,3.8617,3.8253,3.8165,3.8592,3.8617,3.8617,3.8617,3.8467,3.8366,3.8366,3.7965,3.7765,3.7767,3.7069,3.6416,3.5893,3.486,3.3896,3.2996,3.1785,3.0913,3.0353,2.8997,2.8054,2.7506,2.7936,2.8018,2.79,2.8037,2.7712,2.7012,2.6572,2.6143,2.5713,2.5259,2.4932,2.4584,2.3838,2.3584,2.3535,2.3188,2.3091,2.3091,2.3091,2.3091,2.3091,2.3091,2.284,2.2492,2.229,2.2009,2.1472,2.0246,1.8803,1.7598,1.7178,1.641,1.5808,1.5808,1.5808,1.5808,1.5808,1.5808,1.5808,1.5808,1.5808,1.5808,1.5808,1.5808,1.5808,1.5808,1.6012,1.6188,1.6315,1.6222,1.631,1.6633,1.6652,1.6898,1.745,1.6678,1.6061,1.5676,1.4823,1.3909,1.2901,1.2829,1.2145,1.095,1.0219,0.9583,2.7352,2.8217,2.9283,2.9686,3.0595,0.0,3.4856,3.5495,3.6158,3.8441,3.7562,3.643,3.643,3.643,3.6606,3.7122,3.8165,3.8894,3.8894,3.8366,3.8002,3.8002,3.799,3.799,3.8002,3.8002,3.8002,3.8002,3.75,3.721,3.7198,3.7198,3.6947,3.6417,3.6369,3.6108,3.5584,3.3517,3.251,3.2527,2.987,2.8829,2.9279,2.8798,2.801,2.7006,2.7497,2.7438,2.7051,2.7497,2.6894,2.5659,2.5258,2.4818,2.4342,2.3945,2.3789,2.3721,2.3269,2.3091,2.3091,2.3091,2.3091,2.3091,2.3091,2.3091,2.3091,2.3101,2.2217,2.1248,2.102,2.1123,2.0666,1.828,1.7684,1.7342,1.6062,1.5808,1.5808,1.5808,1.5808,1.5808,1.5808,1.5808,1.5808,1.5808,1.5808,1.5808,1.5808,1.5808,1.5808,1.5808,1.5808,1.5713,1.5516,1.5723,1.5771,1.549,1.4912,1.5362,1.71,1.5882,1.4904,1.4279,1.2768,1.185,1.1585,1.1317,1.0632,0.9583,0.9583,0.9019,2.7047,2.7738,2.8757,2.9252,3.1004,3.3014,3.4577,3.5219,0.0,0.0,3.8178,3.7525,3.7525,3.7876,3.8065,3.7801,3.8404,3.8894,3.8894,3.8065,3.7425,3.7425,3.711,3.7022,3.7387,3.7425,3.7425,3.7425,3.7298,3.7034,3.6645,3.6232,3.5932,3.5769,3.5255,3.4488,3.3433,3.2665,3.1455,2.9774,2.8677,2.8246,2.8367,2.7739,2.7149,2.6602,2.7021,2.7139,2.6957,2.6479,2.5898,2.5225,2.4775,2.4531,2.4342,2.3945,2.3789,2.3721,2.3269,2.3091,2.3091,2.3091,2.3091,2.3091,2.3091,2.2991,2.274,2.2031,2.1467,2.0719,1.9093,1.8734,1.8549,1.7622,1.688,1.6251,1.5879,1.5808,1.5808,1.5808,1.5808,1.5808,1.5808,1.5808,1.5808,1.5808,1.5808,1.5808,1.5808,1.5808,1.5808,1.5808,1.5659,1.5564,1.5516,1.4545,1.4065,1.4352,1.3444,1.3623,1.5158,1.4026,1.3153,1.2687,1.2063,1.1228,1.0194,1.0121,0.9534,0.8482,0.8482,0.8308,2.7354,2.8138,2.9245,3.0162,3.2072,3.4135,3.5656,3.6447,3.7249,3.8617,3.8417,3.8002,3.8002,3.8291,3.8417,3.8065,3.8304,3.8479,3.8253,3.7449,3.6884,3.6884,3.6595,3.6431,3.6521,3.651,3.6445,3.6219,3.6207,3.6056,3.573,3.538,3.5159,3.5067,3.4394,3.3696,3.2956,3.16,3.026,2.8926,2.752,2.6939,2.7084,2.6675,2.6342,2.6133,2.6211,2.624,2.6191,2.5474,2.4961,2.4554,2.4268,2.4062,2.3854,2.3601,2.3525,2.3474,2.321,2.3091,2.3091,2.3091,2.3091,2.3025,2.2665,2.2391,2.2006,2.102,2.0223,1.9391,1.8056,1.7318,1.6897,1.6739,1.6251,1.5808,1.5808,1.5808,1.5808,1.5808,1.5808,1.5808,1.5808,1.5808,1.5808,1.5808,1.5808,1.5808,1.5808,1.5445,1.5153,1.5051,1.4567,1.4154,1.3962,1.3071,1.2597,1.2808,1.183,1.1608,1.2455,1.2076,1.1632,1.1205,1.0527,0.9763,0.897,0.897,0.8627,0.7988,0.7952,0.7956,2.8094,2.8994,3.0232,3.1879,3.3596,3.5406,3.7525,3.8417,3.8818,3.8818,3.8454,3.8128,3.8027,3.8052,3.8065,3.8015,3.7965,3.7764,3.7286,3.6733,3.6405,3.6405,3.6344,3.6094,3.5545,3.5458,3.5219,3.4741,3.4703,3.4653,3.4552,3.4552,3.4412,3.4112,3.3469,3.311,3.3112,3.0181,2.8847,2.9079,2.6334,2.5225,2.5567,2.5567,2.5567,2.5571,2.5185,2.5014,2.4945,2.4521,2.4088,2.373,2.373,2.3486,2.3091,2.3091,2.3091,2.3091,2.3091,2.3091,2.3101,2.3003,2.2982,2.2796,2.185,2.1355,2.0944,1.9991,1.8719,1.7645,1.7552,1.6662,1.5808,1.5808,1.5808,1.5808,1.5808,1.5808,1.5808,1.5808,1.5808,1.5808,1.5808,1.5808,1.5808,1.5808,1.5808,1.5784,1.5683,1.4843,1.4142,1.3782,1.2842,1.2072,1.1634,1.1492,1.1317,1.1072,1.0179,0.9597,0.9468,1.0132,1.0279,0.9822,0.8628,0.7988,0.7988,0.7988,0.7988,0.7985,0.7871,0.7881,2.8713,2.8747,2.924,3.2306,3.4574,3.6381,3.7701,3.8103,3.8191,3.8191,3.8806,3.9057,3.8165,3.8379,3.8555,3.809,3.7651,3.7336,3.7223,3.6733,3.6405,3.6405,3.5981,3.5644,3.5508,3.513,3.4828,3.4703,3.4703,3.4327,3.3483,3.3454,3.2945,3.185,3.0807,3.0014,2.9444,2.7523,2.6384,2.6036,2.5039,2.4609,2.4674,2.4674,2.4674,2.4674,2.46,2.4365,2.4075,2.3965,2.3672,2.3259,2.3259,2.3201,2.3091,2.3091,2.3091,2.3091,2.3091,2.3091,2.2982,2.2236,2.2015,2.1828,2.0827,2.0218,1.9673,1.8688,1.7909,1.7209,1.641,1.6015,1.5808,1.5808,1.5808,1.5808,1.5808,1.5808,1.5808,1.5808,1.5808,1.5808,1.5808,1.5808,1.5808,1.5808,1.5808,1.5516,1.4729,1.4256,1.3638,1.2745,1.212,1.1707,1.1614,1.0636,0.9998,0.9948,0.9107,0.8552,0.834,0.8642,0.8696,0.8435,0.8155,0.7988,0.7988,0.7988,0.7988,0.7988,0.7983,0.7983,2.8703,2.9032,2.987,3.3465,3.5586,3.6997,3.7814,3.7801,3.7613,3.7613,3.8291,3.863,3.7764,3.8078,3.8266,3.7701,3.7374,3.6998,3.6447,3.6157,3.5868,3.5604,3.5305,3.5029,3.4753,3.4477,3.4223,3.396,3.3662,3.3248,3.2692,3.2437,3.1889,3.0976,3.0387,2.9565,2.8496,2.7215,2.6206,2.547,2.4536,2.4014,2.3796,2.4206,2.4284,2.4111,2.4111,2.3877,2.3454,2.3454,2.3327,2.3091,2.3091,2.3091,2.3091,2.3091,2.3091,2.3091,2.3091,2.2806,2.2347,2.185,2.1373,2.0782,1.9673,1.9078,1.8549,1.7451,1.6873,1.6464,1.595,1.5808,1.5808,1.5808,1.5808,1.5808,1.5808,1.5808,1.5808,1.5808,1.5808,1.5808,1.5808,1.5808,1.5635,1.5159,1.5088,1.4699,1.3679,1.2872,1.2159,1.1463,1.0612,1.0022,0.9875,0.9242,0.8825,0.8825,0.8414,0.8098,0.7992,0.8091,0.8098,0.7992,0.7988,0.7979,0.7905,0.7979,0.7976,0.7905,0.7905,0.7946,2.8492,2.9699,3.1279,3.4437,3.6058,3.6998,3.7362,3.7161,3.6872,3.6796,3.7349,3.7663,3.701,3.7349,3.7513,3.686,3.6759,3.6445,3.5483,3.5357,3.5194,3.4753,3.4615,3.4377,3.3935,3.3822,3.352,3.2989,3.2478,3.2127,3.1918,3.1499,3.106,3.0577,3.0236,2.952,2.8367,2.7184,2.6216,2.5517,2.4272,2.3486,2.312,2.3845,2.3981,2.3672,2.3603,2.3386,2.3091,2.3035,2.3033,2.3091,2.3091,2.3091,2.3091,2.3091,2.3003,2.2872,2.2872,2.2236,2.1418,2.1239,2.0602,1.9664,1.8519,1.794,1.749,1.6471,1.6004,1.5808,1.5808,1.5808,1.5808,1.5808,1.5808,1.5808,1.5808,1.5808,1.5808,1.5808,1.5808,1.5808,1.5808,1.5666,1.5255,1.4442,1.41,1.3559,1.2509,1.1365,1.0513,1.0096,0.9019,0.8237,0.8017,0.7988,0.7988,0.7988,0.7988,0.7988,0.7988,0.7989,0.7976,0.7976,0.7976,0.7902,0.7773,0.7878,0.7888,0.7811,0.7811,0.7868,2.8467,3.0753,3.291,3.3872,3.4929,3.5608,3.523,3.5443,3.5606,3.513,3.6245,3.6985,3.5932,3.6208,3.6282,3.5205,3.5029,3.4979,3.4828,3.4803,3.4778,3.4703,3.4276,3.3985,3.3909,3.3492,3.2955,3.2365,3.2252,3.1792,3.0851,3.0738,3.0363,2.9596,2.7958,2.7074,2.7046,2.4795,2.3796,2.406,2.3482,2.3149,2.3101,2.3208,2.3237,2.3159,2.282,2.284,2.3062,2.2723,2.2791,2.3091,2.3091,2.3091,2.3091,2.3091,2.2599,2.1904,2.1904,2.123,2.0277,1.9445,1.8949,1.845,1.7481,1.6831,1.6407,1.6248,1.6004,1.5808,1.5808,1.5808,1.5808,1.5808,1.5808,1.5808,1.5808,1.5808,1.5808,1.5808,1.5808,1.5808,1.5808,1.5088,1.4442,1.4322,1.3318,1.2193,1.117,1.0509,0.9731,0.8775,0.8311,0.8038,0.8013,0.7988,0.7988,0.7988,0.7988,0.7988,0.7988,0.7888,0.7817,0.7817,0.7817,0.777,0.7628,0.7648,0.7709,0.7811,0.7811,0.7868,2.8455,3.0793,3.2869,3.3338,3.4274,3.4992,3.4753,3.4653,3.4615,3.469,3.5052,3.529,3.5092,3.5268,3.528,3.4778,3.4703,3.459,3.4276,3.4261,3.4148,3.3834,3.3307,3.3081,3.3429,3.2663,3.2152,3.2202,3.1642,3.109,3.0625,2.9858,2.9206,2.868,2.7261,2.6231,2.568,2.4494,2.3725,2.3406,2.321,2.3091,2.3091,2.3091,2.2986,2.2762,2.2576,2.2459,2.2441,2.249,2.2596,2.2791,2.3003,2.3091,2.3091,2.3091,2.285,2.2422,2.1872,2.1029,2.0017,1.889,1.811,1.749,1.6711,1.6362,1.6177,1.6028,1.5879,1.5808,1.5808,1.5808,1.5808,1.5808,1.5808,1.5808,1.5808,1.5808,1.5808,1.5808,1.535,1.4968,1.4968,1.4094,1.3221,1.2659,1.1926,1.1072,1.0035,0.9439,0.892,0.8457,0.8162,0.7988,0.7988,0.7988,0.7988,0.7988,0.7988,0.7988,0.7988,0.7949,0.7875,0.7814,0.7811,0.7699,0.7495,0.7638,0.7709,0.7695,0.7773,0.7868,2.8365,3.0104,3.1658,3.2386,3.3356,3.4142,3.4085,3.3985,3.3972,3.4248,3.3972,3.3822,3.4223,3.4389,3.4439,3.4324,3.4276,3.4161,3.3746,3.3696,3.3483,3.2952,3.2466,3.2328,3.2638,3.1909,3.1499,3.1767,3.1052,3.0446,3.0097,2.907,2.8303,2.7851,2.6812,2.5798,2.4882,2.4381,2.3789,2.3091,2.3091,2.3091,2.3091,2.2984,2.2732,2.2353,2.2353,2.2178,2.1925,2.2217,2.2412,2.2527,2.2925,2.3033,2.2923,2.278,2.2532,2.2095,2.1248,2.0226,1.9105,1.8148,1.7332,1.6605,1.6157,1.6064,1.6052,1.5855,1.5808,1.5808,1.5808,1.5808,1.5808,1.5808,1.5808,1.5808,1.5808,1.5588,1.5421,1.5421,1.4604,1.3878,1.3878,1.3022,1.2047,1.1219,1.0636,0.9977,0.9105,0.8584,0.8311,0.8311,0.8113,0.7988,0.7988,0.7988,0.7988,0.7988,0.7988,0.7988,0.7988,0.7976,0.7888,0.776,0.7756,0.7648,0.7454,0.7611,0.7665,0.76,0.7709,0.7814,2.8111,2.8618,2.9156,3.0653,3.1815,3.2554,3.2374,3.3144,3.3759,3.3291,3.3165,3.3153,3.3178,3.3605,3.3771,3.3278,3.3178,3.3178,3.3153,3.314,3.2927,3.2328,3.2206,3.2014,3.1524,3.1424,3.1198,3.0713,3.0625,3.002,2.8674,2.8534,2.8091,2.7191,2.611,2.5389,2.5083,2.38,2.3157,2.3091,2.3091,2.3091,2.3081,2.2713,2.2314,2.1924,2.1924,2.1925,2.1905,2.1925,2.2158,2.2527,2.2925,2.2869,2.246,2.1963,2.0939,1.9695,1.9148,1.7972,1.6681,1.6621,1.6262,1.5869,1.5833,1.5815,1.5832,1.5808,1.5808,1.5808,1.5808,1.5808,1.5808,1.5808,1.5808,1.5808,1.5808,1.504,1.4394,1.4394,1.3511,1.278,1.278,1.195,1.117,1.0877,0.9731,0.88,0.8482,0.8187,0.8013,0.8013,0.8013,0.7988,0.7988,0.7988,0.7988,0.7988,0.7988,0.7988,0.7988,0.7875,0.7756,0.7614,0.7611,0.7604,0.7587,0.7481,0.7488,0.76,0.7607,0.7689,2.7506,2.8145,2.8881,3.0094,3.1197,3.198,3.1885,3.2651,3.3206,3.2641,3.2839,3.3102,3.3102,3.3266,3.3329,3.3128,3.3102,3.3102,3.3102,3.3102,3.2889,3.2256,3.1901,3.1599,3.1432,3.0791,3.0432,3.0588,2.9762,2.9038,2.8534,2.7395,2.6607,2.6276,2.5242,2.4466,2.4069,2.3592,2.3138,2.2713,2.2713,2.2576,2.2324,2.2178,2.1875,2.1445,2.1445,2.1299,2.1104,2.1348,2.1542,2.1718,2.2168,2.1911,2.125,2.1071,2.0309,1.9298,1.844,1.7709,1.7033,1.6393,1.6002,1.578,1.575,1.5768,1.5808,1.5808,1.5808,1.5808,1.5808,1.5808,1.5635,1.4992,1.431,1.3818,1.3818,1.3529,1.327,1.327,1.2436,1.1731,1.1731,1.0714,0.9887,0.9793,0.9072,0.8503,0.8407,0.8162,0.7988,0.7988,0.7988,0.7988,0.7988,0.7988,0.7988,0.7988,0.7988,0.7969,0.7871,0.7908,0.7864,0.774,0.7807,0.7668,0.7283,0.735,0.7474,0.76,0.76,0.7729,2.7131,2.7696,2.8476,2.948,3.0247,3.0827,3.1102,3.1918,3.255,3.2252,3.2667,3.3153,3.3341,3.3228,3.3102,3.3102,3.3102,3.3102,3.3102,3.3102,3.2889,3.2256,3.1725,3.1323,3.1148,3.0319,2.9942,3.0306,2.9177,2.8363,2.8051,2.6607,2.5663,2.5358,2.4519,2.3845,2.3393,2.3242,2.2875,2.2305,2.2305,2.2158,2.1896,2.1738,2.1484,2.1181,2.1054,2.0928,2.082,2.1249,2.1435,2.1453,2.1603,2.1136,2.031,1.9819,1.9212,1.845,1.7526,1.698,1.6607,1.5977,1.5654,1.5529,1.5601,1.5691,1.5808,1.5808,1.5808,1.5808,1.5808,1.554,1.504,1.3998,1.295,1.2193,1.2193,1.2193,1.2193,1.2193,1.137,1.0641,1.0542,0.9793,0.9137,0.896,0.8634,0.8357,0.8283,0.8113,0.7988,0.7988,0.7988,0.7988,0.7988,0.7988,0.7988,0.7988,0.7988,0.7969,0.7868,0.7959,0.7942,0.7814,0.7888,0.7719,0.7273,0.7448,0.7573,0.7672,0.7672,0.778,0.0,0.0,0.0,2.871,2.8923,2.9117,2.991,3.0899,3.1749,3.2093,3.2616,3.319,3.3721,3.3404,3.3052,3.3052,3.3077,3.3102,3.3102,3.3102,3.2889,3.2256,3.1725,3.1185,3.0651,3.0118,2.9792,2.9753,2.8961,2.8051,2.711,2.6235,2.5379,2.4498,2.4036,2.3588,2.3177,2.2714,2.2266,2.1866,2.1866,2.1857,2.1837,2.1376,2.1171,2.1151,2.0772,2.082,2.1229,2.1648,2.1845,2.1801,2.1322,2.0597,1.9647,1.8296,1.7501,1.703,1.6265,1.5637,1.5208,1.5287,1.5181,1.5053,1.5317,1.5581,1.5808,1.5808,1.5784,1.5761,1.573,1.4962,1.3956,1.2901,1.1877,1.1146,1.1146,1.1146,1.1146,1.1146,1.0306,0.9505,0.9236,0.9187,0.901,0.8482,0.8382,0.8283,0.8038,0.7988,0.7988,0.7988,0.7988,0.7988,0.7988,0.7988,0.7988,0.7988,0.7988,0.7988,0.7982,0.7988,0.7942,0.7814,0.7793,0.775,0.7614,0.7743,0.7807,0.7811,0.7793,0.7847,2.6658,0.0,0.0,0.0,0.0,0.0,2.9735,3.019,3.0632,3.1142,3.1274,3.1461,3.1989,3.1964,3.1871,3.1871,3.2562,3.3102,3.3102,3.3102,3.2889,3.2256,3.1725,3.1185,3.0651,3.0118,2.9546,2.8922,2.8011,2.7098,2.6214,2.5327,2.4608,2.4074,2.3759,2.3304,2.2693,2.2138,2.1559,2.0947,2.0947,2.0781,2.0469,2.0664,2.0772,2.0762,2.0644,2.082,2.116,2.0618,2.0369,2.0316,1.9537,1.8721,1.7903,1.7517,1.6646,1.5676,1.5706,1.5395,1.5012,1.5241,1.5307,1.5331,1.5618,1.5741,1.5808,1.5808,1.5278,1.4532,1.377,1.2799,1.1974,1.1682,1.0812,1.0039,1.0039,1.0039,1.0039,1.0039,0.9649,0.9286,0.9212,0.8886,0.8584,0.8432,0.8233,0.8088,0.8013,0.7988,0.7988,0.7988,0.7988,0.7988,0.7988,0.7988,0.7988,0.7988,0.7988,0.7966,0.7854,0.7956,0.7942,0.7814,0.7895,0.7932,0.7895,0.7743,0.7709,0.779,0.7902,0.7548,0.0,0.0,0.0,0.0,0.0,0.0,2.8785,2.9167,2.9542,2.9972,3.0171,3.0432,3.0972,3.0884,3.0796,3.1035,3.1625,3.2202,3.2654,3.2939,3.2977,3.2616,3.2077,3.1524,3.0997,3.0114,2.9285,2.8554,2.7282,2.6184,2.5295,2.4629,2.4146,2.3909,2.337,2.2726,2.1959,2.1441,2.081,2.0048,2.0048,1.9921,1.9668,2.0117,2.0312,2.0322,2.0508,2.0536,2.034,1.9589,1.9488,1.9714,1.85,1.7609,1.6941,1.6605,1.5891,1.5112,1.5262,1.5137,1.4932,1.5115,1.5277,1.5451,1.5721,1.5808,1.5706,1.5278,1.443,1.339,1.2344,1.1634,1.1101,1.0645,1.0039,0.9603,0.9603,0.9505,0.9455,0.9579,0.9381,0.9158,0.9055,0.8684,0.8357,0.8262,0.8113,0.7988,0.7988,0.7988,0.7988,0.7988,0.7988,0.7988,0.7988,0.7988,0.7988,0.7988,0.7988,0.7973,0.7885,0.7966,0.7973,0.7885,0.7969,0.7789,0.7338,0.7622,0.7582,0.7217,0.7301,0.6758,0.0,0.0,0.0,0.0,2.7712,0.0,2.7664,2.8132,2.862,2.8855,2.9277,2.9736,3.027,2.9988,2.9825,3.0315,3.0484,3.0954,3.2139,3.2692,3.3027,3.309,3.2503,3.1901,3.1348,3.0118,2.9068,2.8399,2.6668,2.5327,2.454,2.4115,2.3877,2.3826,2.2941,2.204,2.1143,2.0709,2.0048,1.9219,1.9219,1.9219,1.9238,1.9679,1.9893,1.9913,2.0294,2.001,1.925,1.857,1.8818,1.9429,1.7853,1.6977,1.6513,1.5782,1.5333,1.5098,1.4954,1.4904,1.4929,1.4972,1.518,1.5451,1.5721,1.571,1.5376,1.425,1.323,1.2259,1.1287,1.1028,1.0788,0.9821,0.9603,0.9603,0.9603,0.9381,0.9257,0.9505,0.9307,0.9034,0.88,0.8531,0.8283,0.8038,0.7988,0.7988,0.7988,0.7988,0.7988,0.7988,0.7988,0.7988,0.7988,0.7988,0.7988,0.7988,0.7988,0.7988,0.7988,0.7988,0.7988,0.7988,0.7889,0.7363,0.6412,0.7363,0.7263,0.6234,0.6234,0.5654,0.0,0.0,0.0,0.0,2.7819,0.0,2.8226,2.8222,2.8341,2.8862,2.8556,2.8341,2.8884,2.8897,2.8859,2.8973,2.9618,3.0767,3.2671,3.2604,3.2554,3.304,3.2198,3.1348,3.0801,3.0131,2.9051,2.7487,2.5736,2.4679,2.4518,2.4115,2.3732,2.3349,2.2633,2.1773,2.073,2.0097,1.9431,1.8742,1.8742,1.8742,1.8754,1.9542,1.9893,1.9885,1.9655,1.946,1.9183,1.7669,1.7313,1.7623,1.6597,1.6148,1.601,1.5712,1.5412,1.514,1.4966,1.4933,1.4979,1.4988,1.518,1.5451,1.5721,1.5111,1.396,1.2096,1.1406,1.1043,1.0144,0.9916,0.9871,0.9649,0.9603,0.9603,0.9603,0.9381,0.9212,0.9257,0.8882,0.8531,0.8482,0.8262,0.8063,0.8013,0.7988,0.7988,0.7988,0.7988,0.7988,0.7988,0.7988,0.7988,0.7988,0.7988,0.7988,0.7988,0.7988,0.7988,0.7988,0.7988,0.7988,0.7988,0.7163,0.6612,0.6412,0.6612,0.6157,0.5102,0.5102,0.4526,0.0,0.0,0.0,2.7618,0.0,0.0,0.0,2.792,2.7846,2.8341,2.7888,2.757,2.8152,2.8006,2.7988,2.8569,2.8738,2.9587,3.1843,3.1949,3.1913,3.2223,3.1758,3.1185,3.0651,2.9576,2.8043,2.5967,2.4988,2.4404,2.4198,2.3784,2.3278,2.2723,2.2055,2.1191,2.0109,1.9669,1.9062,1.8303,1.8303,1.8303,1.8315,1.8588,1.8786,1.8929,1.8555,1.8243,1.7937,1.7058,1.6542,1.6253,1.5813,1.5651,1.5645,1.5611,1.5324,1.4971,1.51,1.4968,1.4792,1.4961,1.4757,1.4528,1.4669,1.3654,1.2235,1.12,1.0593,1.0139,0.9727,0.9603,0.9603,0.9603,0.9505,0.9406,0.9406,0.9084,0.8808,0.8808,0.8485,0.8237,0.8382,0.8187,0.7988,0.7988,0.7988,0.7988,0.7988,0.7988,0.7988,0.7988,0.7988,0.7988,0.7988,0.7988,0.7988,0.7988,0.7988,0.7988,0.7988,0.7988,0.7739,0.7213,0.6157,0.5329,0.4803,0.4803,0.4528,0.3999,0.3999,0.3423,0.0,0.0,0.0,0.0,0.0,2.7721,0.0,0.0,0.0,2.7786,2.7451,2.7254,2.7722,2.7421,2.7391,2.8322,2.8035,2.8385,3.0324,3.0754,3.0992,3.1319,3.1108,3.0706,3.0173,2.8549,2.6724,2.4787,2.4512,2.424,2.3795,2.3288,2.2764,2.2226,2.1553,2.0678,1.9614,1.9451,1.8911,1.7991,1.7991,1.794,1.7769,1.7595,1.7606,1.7766,1.7415,1.7052,1.6698,1.6522,1.6023,1.541,1.541,1.5404,1.543,1.5501,1.5263,1.4933,1.5219,1.5003,1.4599,1.4705,1.4089,1.3297,1.314,1.2031,1.082,1.0649,1.0107,0.9559,0.9595,0.9603,0.9603,0.9603,0.9406,0.9212,0.9212,0.8783,0.8407,0.8407,0.8184,0.8063,0.8283,0.8137,0.7988,0.7988,0.7988,0.7988,0.7988,0.7988,0.7988,0.7988,0.7988,0.7988,0.7988,0.7814,0.769,0.769,0.7487,0.7385,0.7385,0.7385,0.6983,0.6109,0.5027,0.4074,0.3198,0.2998,0.2898,0.2898,0.2898,0.2422,0.0,0.0,0.0,0.0,2.8325,0.0,2.7782,0.0,2.8146,2.7652,0.0,2.7466,2.7531,0.0,0.0,2.7622,2.7872,2.8143,2.8402,2.8726,2.9501,3.1045,3.001,2.8967,2.8434,2.6815,2.5599,2.5146,2.4573,2.396,2.3308,2.2672,2.2276,2.2205,2.1553,2.0678,1.9614,1.9568,1.9043,1.7991,1.7991,1.7657,1.7036,1.7356,1.7323,1.6996,1.6543,1.6485,1.6637,1.5865,1.5486,1.541,1.541,1.5451,1.5462,1.5317,1.5383,1.552,1.5183,1.4992,1.4805,1.4015,1.3126,1.2202,1.1437,1.0927,1.0487,0.978,0.9488,0.9449,0.9563,0.9603,0.9603,0.9603,0.9406,0.9212,0.9212,0.8783,0.8407,0.8407,0.8184,0.8013,0.8038,0.8013,0.7988,0.7988,0.7988,0.7988,0.7988,0.7988,0.7988,0.7988,0.7988,0.7988,0.7988,0.7138,0.6587,0.6587,0.5679,0.5175,0.5175,0.5175,0.51,0.4974,0.3924,0.3323,0.3198,0.2245,0.1793,0.1793,0.1793,0.1718,0.0,0.0,0.0,0.0,0.0,0.0,2.812,0.0,2.7915,2.8007,0.0,0.0,0.0,0.0,0.0,0.0,2.7802,2.7785,2.8196,2.7928,2.818,2.9518,2.9053,2.8083,2.6768,2.5605,2.4676,2.4074,2.377,2.3379,2.2811,2.2525,2.2142,2.1633,2.1344,2.0621,1.9442,1.9433,1.8946,1.7991,1.7562,1.72,1.6881,1.6355,1.6127,1.6114,1.5645,1.563,1.5927,1.5548,1.5319,1.5236,1.5236,1.5346,1.5483,1.5325,1.5361,1.5382,1.4813,1.436,1.3828,1.2301,1.1458,1.0867,0.9956,0.9631,0.9513,0.9294,0.9303,0.9421,0.9555,0.9603,0.9603,0.9603,0.9278,0.8977,0.8977,0.8556,0.8162,0.8162,0.8088,0.7988,0.7988,0.7988,0.7988,0.7988,0.7988,0.7988,0.7988,0.7988,0.7764,0.7138,0.7064,0.6808,0.6204,0.5729,0.5479,0.5479,0.5049,0.4799,0.4799,0.4198,0.3875,0.3875,0.2822,0.227,0.227,0.1818,0.1592,0.1592,0.1592,0.1592,2.7117,0.0,0.0,0.0,0.0,0.0,0.0,0.0,0.0,0.0,2.7941,0.0,0.0,0.0,0.0,0.0,0.0,2.7546,2.8081,2.7574,2.7473,2.8371,2.8106,2.7226,2.5619,2.4806,2.3998,2.3148,2.3098,2.285,2.2335,2.2187,2.1849,2.1215,2.1089,2.0489,1.9315,1.9305,1.8857,1.7991,1.726,1.6776,1.6542,1.5551,1.5182,1.5285,1.4937,1.4979,1.525,1.5188,1.5085,1.4975,1.5028,1.5219,1.5429,1.5328,1.5123,1.4826,1.4443,1.3608,1.2487,1.1041,1.0214,0.9709,0.914,0.8897,0.8846,0.91,0.9282,0.9421,0.9555,0.9554,0.948,0.948,0.908,0.8701,0.8701,0.8333,0.7988,0.7988,0.7988,0.7988,0.7988,0.7988,0.7988,0.7988,0.7988,0.7889,0.7587,0.7562,0.716,0.6084,0.5957,0.5654,0.4874,0.4524,0.4225,0.3949,0.3924,0.3924,0.3924,0.3173,0.2772,0.2772,0.1994,0.1592,0.1592,0.1592,0.1592,0.1592,0.1592,0.1592,0.0,0.0,0.0,2.7609,0.0,0.0,0.0,0.0,2.822,0.0,0.0,0.0,0.0,0.0,0.0,0.0,0.0,0.0,0.0,2.7503,2.7627,2.8071,2.7131,2.6112,2.521,2.4442,2.3684,2.2864,2.2805,2.2528,2.1859,2.1456,2.1225,2.1205,2.0828,2.0194,1.9315,1.9305,1.8857,1.7991,1.726,1.6498,1.5719,1.5296,1.4888,1.4523,1.4518,1.4662,1.4894,1.4712,1.4631,1.4648,1.483,1.507,1.5315,1.5299,1.4686,1.39,1.4189,1.2839,1.0958,1.0758,0.9865,0.8908,0.9282,0.9119,0.8893,0.927,0.94,0.9421,0.9555,0.9406,0.9212,0.9212,0.8808,0.8407,0.8407,0.8187,0.7988,0.7988,0.7988,0.7988,0.7988,0.7988,0.7988,0.7988,0.7988,0.7615,0.6587,0.6462,0.6032,0.4974,0.4849,0.4849,0.4799,0.3848,0.2797,0.1768,0.1693,0.1693,0.1693,0.1667,0.1642,0.1642,0.1617,0.1592,0.1592,0.1592,0.1592,0.1592,0.1592,0.1592,2.6956,2.7382,2.7698,2.7428,2.7682,2.7907,2.757,2.7968,2.8233,0.0,0.0,0.0,0.0,0.0,0.0,0.0,0.0,0.0,0.0,2.7138,2.7062,2.7336,2.6482,2.5558,2.473,2.3569,2.2725,2.2349,2.1634,2.1377,2.1787,2.1386,2.1158,2.1195,2.107,2.0451,1.9315,1.9305,1.8616,1.726,1.6481,1.5702,1.4965,1.4787,1.4626,1.4499,1.4692,1.4942,1.5206,1.4764,1.463,1.467,1.4586,1.4168,1.3629,1.4024,1.4172,1.3945,1.27,1.1278,1.0019,0.9995,0.9632,0.9221,0.9367,0.9128,0.8893,0.9278,0.9172,0.9005,0.9257,0.913,0.8928,0.8928,0.8655,0.8407,0.8407,0.8187,0.7988,0.7988,0.7437,0.6936,0.6936,0.6356,0.6129,0.6836,0.6331,0.5752,0.5377,0.5352,0.4926,0.3848,0.375,0.3448,0.2748,0.2346,0.1994,0.1617,0.1592,0.1592,0.1592,0.1592,0.1592,0.1592,0.1592,0.1592,0.1592,0.1592,0.1592,0.1592,0.1592,0.1592,2.6909,2.7244,2.7588,2.7486,2.7636,2.7785,2.7729,2.8334,2.866,2.7875,2.8243,0.0,0.0,0.0,0.0,0.0,0.0,0.0,0.0,2.6427,2.6134,2.6267,2.5878,2.5276,2.448,2.334,2.2421,2.1886,2.1092,2.0909,2.1528,2.1131,2.0976,2.1195,2.107,2.0501,1.9512,1.9365,1.8557,1.7109,1.614,1.5313,1.4589,1.4419,1.4316,1.433,1.4633,1.4829,1.4909,1.4625,1.4459,1.4372,1.4065,1.3518,1.2997,1.3385,1.338,1.2955,1.1228,1.0183,0.9603,0.9603,0.9502,0.9404,0.9404,0.9176,0.8955,0.9199,0.9033,0.8843,0.9007,0.8853,0.8651,0.8651,0.8457,0.8159,0.7758,0.7562,0.7313,0.6933,0.6306,0.5832,0.5832,0.4951,0.4601,0.5679,0.5252,0.4674,0.4273,0.4225,0.3823,0.2748,0.2622,0.2346,0.1667,0.1592,0.1592,0.1592,0.1592,0.1592,0.1592,0.1592,0.1592,0.1592,0.1592,0.1592,0.1592,0.1592,0.1592,0.1592,0.1592,0.1592]},{"header":{"parameterUnit":"m.s-1","parameterCategory":1,"la1":30.6,"la2":29.2853,"lo1":-89.7004,"lo2":-87.6739,"dy":0.0162,"dx":0.0183,"nx":112,"ny":82,"refTime":"2023-11-09T18:00:00:Z","depth":0,"parameterNumber":3,"parameterNumberName":"V-component_of_WINDS"},"data":[0.0,0.0,0.0,0.0,0.0,0.0,0.0,0.0,0.0,0.0,0.0,0.0,0.0,0.0,0.0,0.0,0.0,0.0,0.0,0.0,0.0,0.0,0.0,0.0,0.0,0.0,0.0,0.0,0.0,0.0,0.0,0.0,0.0,0.0,0.0,0.0,0.0,0.0,0.0,0.0,0.0,0.0,0.0,0.0,0.0,0.0,0.0,0.0,0.0,0.0,0.0,0.0,0.0,0.0,0.0,0.0,0.0,0.0,0.0,0.0,0.0,0.0,0.0,0.0,0.0,0.0,0.0,0.0,0.0,0.0,0.0,0.0,0.0,0.0,0.0,0.0,0.0,0.0,0.0,0.0,0.0,0.0,0.0,0.0,0.0,0.0,0.0,0.0,0.0,0.0,2.7727,3.0523,3.2865,3.4435,3.4908,3.3326,3.1223,2.8675,0.0,0.0,0.0,0.0,0.0,0.0,0.0,0.0,0.0,0.0,0.0,0.0,0.0,0.0,0.0,0.0,0.0,0.0,0.0,0.0,0.0,0.0,0.0,0.0,0.0,0.0,0.0,0.0,0.0,0.0,0.0,0.0,0.0,0.0,0.0,0.0,0.0,0.0,0.0,0.0,0.0,0.0,0.0,0.0,0.0,0.0,0.0,0.0,0.0,0.0,0.0,0.0,0.0,0.0,0.0,0.0,0.0,0.0,0.0,0.0,0.0,0.0,0.0,0.0,0.0,0.0,0.0,0.0,0.0,0.0,0.0,0.0,0.0,0.0,0.0,0.0,0.0,0.0,0.0,0.0,0.0,0.0,0.0,0.0,0.0,0.0,0.0,0.0,0.0,0.0,0.0,0.0,0.0,0.0,0.0,0.0,0.0,0.0,0.0,0.0,0.0,0.0,0.0,0.0,2.7251,3.1721,3.409,3.4966,3.3925,3.2887,3.1241,2.8727,0.0,0.0,0.0,0.0,0.0,0.0,0.0,0.0,0.0,0.0,0.0,0.0,0.0,0.0,0.0,0.0,0.0,0.0,0.0,0.0,0.0,0.0,0.0,0.0,0.0,0.0,0.0,0.0,0.0,0.0,0.0,0.0,0.0,0.0,0.0,0.0,0.0,0.0,0.0,0.0,0.0,0.0,0.0,0.0,0.0,0.0,0.0,0.0,0.0,0.0,0.0,0.0,0.0,0.0,0.0,0.0,0.0,0.0,0.0,0.0,0.0,0.0,0.0,0.0,0.0,0.0,0.0,0.0,0.0,0.0,0.0,0.0,0.0,0.0,0.0,0.0,0.0,0.0,0.0,0.0,0.0,0.0,0.0,0.0,0.0,0.0,0.0,0.0,0.0,0.0,0.0,0.0,0.0,0.0,0.0,0.0,0.0,0.0,0.0,0.0,0.0,0.0,0.0,2.6827,2.8763,3.2142,3.3703,3.4096,3.2999,3.2397,3.0889,2.8082,2.7483,0.0,0.0,0.0,0.0,0.0,0.0,0.0,0.0,0.0,0.0,0.0,0.0,0.0,0.0,0.0,0.0,0.0,0.0,0.0,0.0,0.0,0.0,0.0,0.0,0.0,0.0,0.0,0.0,0.0,0.0,0.0,0.0,0.0,0.0,0.0,0.0,0.0,0.0,0.0,0.0,0.0,0.0,0.0,0.0,0.0,0.0,0.0,0.0,0.0,0.0,0.0,0.0,0.0,0.0,0.0,0.0,0.0,0.0,0.0,0.0,0.0,0.0,0.0,0.0,0.0,0.0,0.0,0.0,0.0,0.0,0.0,0.0,0.0,0.0,0.0,0.0,0.0,0.0,0.0,0.0,0.0,0.0,0.0,0.0,0.0,0.0,0.0,0.0,0.0,0.0,0.0,0.0,0.0,0.0,0.0,0.0,0.0,0.0,0.0,0.0,0.0,0.0,2.8703,3.0302,3.1937,3.29,3.3017,3.2028,3.1446,3.0032,2.7457,2.6345,0.0,0.0,0.0,0.0,0.0,0.0,0.0,0.0,0.0,0.0,0.0,0.0,0.0,0.0,0.0,0.0,0.0,0.0,0.0,0.0,0.0,0.0,0.0,0.0,0.0,0.0,0.0,0.0,0.0,0.0,0.0,0.0,0.0,0.0,0.0,0.0,0.0,0.0,0.0,0.0,0.0,0.0,0.0,0.0,0.0,0.0,0.0,0.0,0.0,0.0,0.0,0.0,0.0,0.0,0.0,0.0,0.0,0.0,0.0,0.0,0.0,0.0,0.0,0.0,0.0,0.0,0.0,0.0,0.0,0.0,0.0,0.0,0.0,0.0,0.0,0.0,0.0,0.0,0.0,0.0,0.0,0.0,0.0,0.0,0.0,0.0,0.0,0.0,0.0,0.0,0.0,0.0,0.0,0.0,0.0,0.0,0.0,0.0,0.0,0.0,0.0,0.0,2.8891,3.0841,3.0997,3.2113,3.2323,3.1023,2.9633,2.8394,2.7356,2.4978,0.0,0.0,0.0,0.0,0.0,0.0,0.0,0.0,0.0,0.0,0.0,0.0,0.0,0.0,0.0,0.0,0.0,0.0,0.0,0.0,0.0,0.0,0.0,0.0,0.0,0.0,0.0,0.0,0.0,0.0,0.0,0.0,0.0,0.0,0.0,0.0,0.0,0.0,0.0,0.0,0.0,0.0,0.0,0.0,0.0,0.0,0.0,0.0,0.0,0.0,0.0,0.0,0.0,0.0,0.0,0.0,0.0,0.0,0.0,0.0,0.0,0.0,0.0,0.0,0.0,0.0,0.0,0.0,0.0,0.0,0.0,0.0,0.0,0.0,0.0,0.0,0.0,0.0,0.0,0.0,0.0,0.0,0.0,0.0,0.0,0.0,0.0,0.0,0.0,0.0,0.0,0.0,0.0,0.0,0.0,0.0,0.0,0.0,0.0,0.0,0.0,0.0,2.7648,2.9667,3.0666,3.1353,3.1387,3.0506,2.9763,2.8662,2.7036,0.0,0.0,0.0,0.0,0.0,0.0,0.0,0.0,0.0,0.0,0.0,0.0,0.0,0.0,0.0,0.0,0.0,0.0,0.0,0.0,0.0,0.0,0.0,0.0,0.0,0.0,0.0,0.0,0.0,0.0,0.0,0.0,0.0,0.0,0.0,0.0,0.0,0.0,0.0,0.0,0.0,0.0,0.0,0.0,0.0,0.0,0.0,0.0,0.0,0.0,0.0,0.0,0.0,0.0,0.0,0.0,0.0,0.0,0.0,0.0,0.0,0.0,0.0,0.0,0.0,0.0,0.0,0.0,0.0,0.0,0.0,0.0,0.0,0.0,0.0,0.0,0.0,0.0,0.0,0.0,0.0,0.0,0.0,0.0,0.0,0.0,0.0,0.0,0.0,0.0,0.0,0.0,0.0,0.0,0.0,0.0,0.0,0.0,0.0,0.0,0.0,0.0,2.5061,2.7287,2.9153,3.0086,3.0568,3.0586,3.0007,2.9221,2.8226,2.699,0.0,0.0,0.0,0.0,0.0,0.0,0.0,0.0,0.0,0.0,0.0,0.0,0.0,0.0,0.0,0.0,0.0,0.0,0.0,0.0,0.0,0.0,0.0,0.0,0.0,0.0,0.0,0.0,0.0,0.0,0.0,0.0,0.0,0.0,0.0,0.0,0.0,0.0,0.0,0.0,0.0,0.0,0.0,0.0,0.0,0.0,0.0,0.0,0.0,0.0,0.0,0.0,0.0,0.0,0.0,0.0,0.0,0.0,0.0,0.0,0.0,0.0,0.0,0.0,0.0,0.0,0.0,0.0,0.0,0.0,0.0,0.0,0.0,0.0,0.0,0.0,0.0,0.0,0.0,0.0,0.0,0.0,0.0,0.0,0.0,0.0,0.0,0.0,0.0,0.0,0.0,0.0,0.0,0.0,0.0,0.0,0.0,0.0,0.0,0.0,0.0,0.0,2.5712,2.8156,2.9701,2.9153,2.9777,3.0002,2.9456,2.7637,2.6795,0.0,0.0,0.0,0.0,0.0,0.0,0.0,0.0,0.0,0.0,0.0,0.0,0.0,0.0,0.0,0.0,0.0,0.0,0.0,0.0,0.0,0.0,0.0,0.0,0.0,0.0,0.0,0.0,0.0,0.0,0.0,0.0,0.0,0.0,0.0,0.0,0.0,0.0,0.0,0.0,0.0,0.0,0.0,0.0,0.0,0.0,0.0,0.0,0.0,0.0,0.0,0.0,0.0,0.0,0.0,0.0,0.0,0.0,0.0,0.0,0.0,0.0,0.0,0.0,0.0,0.0,0.0,0.0,0.0,0.0,0.0,0.0,0.0,0.0,0.0,0.0,0.0,0.0,0.0,0.0,0.0,0.0,0.0,0.0,0.0,0.0,0.0,0.0,0.0,0.0,0.0,0.0,0.0,0.0,0.0,0.0,0.0,0.0,0.0,0.0,0.0,0.0,0.0,2.554,2.8021,2.9772,2.961,3.0253,3.0636,3.0469,2.9245,2.8499,2.8527,0.0,0.0,0.0,0.0,0.0,0.0,0.0,0.0,0.0,0.0,0.0,0.0,0.0,0.0,0.0,0.0,0.0,0.0,0.0,0.0,0.0,0.0,0.0,0.0,0.0,0.0,0.0,0.0,0.0,0.0,0.0,0.0,0.0,0.0,0.0,0.0,0.0,0.0,0.0,0.0,0.0,0.0,0.0,0.0,0.0,0.0,0.0,0.0,0.0,0.0,0.0,0.0,0.0,0.0,0.0,0.0,0.0,0.0,0.0,0.0,0.0,0.0,0.0,0.0,0.0,0.0,0.0,0.0,0.0,0.0,0.0,0.0,0.0,0.0,0.0,0.0,0.0,0.0,0.0,0.0,0.0,0.0,0.0,0.0,0.0,0.0,0.0,0.0,0.0,0.0,0.0,0.0,0.0,0.0,0.0,0.0,0.0,0.0,0.0,0.0,0.0,0.0,2.6206,2.8607,3.0419,3.0677,3.1113,3.1378,3.1378,3.0367,2.96,2.9261,0.0,0.0,0.0,0.0,0.0,0.0,0.0,0.0,0.0,0.0,0.0,0.0,0.0,0.0,0.0,0.0,0.0,0.0,0.0,0.0,0.0,0.0,0.0,0.0,0.0,0.0,0.0,0.0,0.0,0.0,0.0,0.0,0.0,0.0,0.0,0.0,0.0,0.0,0.0,0.0,0.0,0.0,0.0,0.0,0.0,0.0,0.0,0.0,0.0,0.0,0.0,0.0,0.0,0.0,0.0,0.0,0.0,0.0,0.0,0.0,0.0,0.0,0.0,0.0,0.0,0.0,0.0,0.0,0.0,0.0,0.0,0.0,0.0,0.0,0.0,0.0,0.0,0.0,0.0,0.0,0.0,0.0,0.0,0.0,0.0,0.0,0.0,0.0,0.0,0.0,0.0,0.0,0.0,0.0,0.0,0.0,0.0,0.0,0.0,0.0,0.0,0.0,2.7417,2.9606,3.1351,3.2037,3.2146,3.22,3.22,3.116,3.0286,2.9762,0.0,0.0,0.0,0.0,0.0,0.0,0.0,0.0,0.0,0.0,0.0,0.0,0.0,0.0,0.0,0.0,0.0,0.0,0.0,0.0,0.0,0.0,0.0,0.0,0.0,0.0,0.0,0.0,0.0,0.0,0.0,0.0,0.0,0.0,0.0,0.0,0.0,0.0,0.0,0.0,0.0,0.0,0.0,0.0,0.0,0.0,0.0,0.0,0.0,0.0,0.0,0.0,0.0,0.0,0.0,0.0,0.0,0.0,0.0,0.0,3.4113,3.2101,0.0,0.0,0.0,0.0,0.0,0.0,0.0,0.0,0.0,0.0,0.0,0.0,0.0,0.0,0.0,0.0,0.0,0.0,0.0,0.0,0.0,0.0,0.0,0.0,0.0,0.0,0.0,0.0,0.0,0.0,0.0,0.0,0.0,0.0,0.0,0.0,0.0,0.0,0.0,0.0,2.8121,2.9894,3.1351,3.2037,3.2613,3.2967,3.2967,3.1921,3.1097,3.0731,2.8931,0.0,0.0,0.0,0.0,0.0,0.0,0.0,0.0,0.0,0.0,0.0,0.0,0.0,0.0,0.0,0.0,0.0,0.0,0.0,0.0,0.0,0.0,0.0,0.0,0.0,0.0,0.0,0.0,0.0,0.0,0.0,0.0,0.0,0.0,0.0,0.0,0.0,0.0,0.0,0.0,0.0,0.0,0.0,0.0,0.0,0.0,0.0,0.0,0.0,0.0,0.0,0.0,0.0,0.0,0.0,0.0,0.0,0.0,0.0,3.6994,3.4946,0.0,0.0,0.0,0.0,0.0,0.0,0.0,0.0,0.0,0.0,0.0,0.0,0.0,0.0,0.0,0.0,0.0,0.0,0.0,0.0,0.0,0.0,0.0,0.0,0.0,0.0,0.0,0.0,0.0,0.0,0.0,0.0,0.0,0.0,0.0,0.0,0.0,0.0,0.0,0.0,2.931,3.0807,3.2128,3.3108,3.3552,3.3811,3.3911,3.2791,3.18,3.1176,2.9285,0.0,0.0,0.0,0.0,0.0,0.0,0.0,0.0,0.0,0.0,0.0,0.0,0.0,0.0,0.0,0.0,0.0,0.0,0.0,0.0,0.0,0.0,0.0,0.0,0.0,0.0,0.0,0.0,0.0,0.0,0.0,0.0,0.0,0.0,0.0,0.0,0.0,0.0,0.0,0.0,0.0,0.0,0.0,0.0,0.0,0.0,0.0,0.0,0.0,0.0,0.0,0.0,0.0,4.1634,4.2105,4.199,4.3263,4.3667,4.3213,4.0956,3.9107,3.7577,3.5744,0.0,0.0,0.0,0.0,0.0,0.0,0.0,0.0,0.0,0.0,0.0,0.0,0.0,0.0,0.0,0.0,0.0,0.0,0.0,0.0,0.0,0.0,3.3541,3.4385,3.4269,3.3489,3.1657,0.0,0.0,0.0,0.0,0.0,0.0,0.0,0.0,0.0,0.0,0.0,3.0374,3.1797,3.3137,3.4317,3.4346,3.4357,3.4555,3.3339,3.2218,3.1353,2.9491,2.7914,0.0,0.0,0.0,0.0,0.0,0.0,0.0,0.0,0.0,0.0,0.0,0.0,0.0,0.0,0.0,0.0,0.0,0.0,0.0,0.0,0.0,0.0,0.0,0.0,0.0,0.0,0.0,0.0,0.0,0.0,0.0,0.0,3.3728,3.4771,0.0,0.0,0.0,0.0,0.0,0.0,0.0,0.0,0.0,0.0,0.0,0.0,0.0,4.0879,4.0998,4.4027,4.5024,4.3978,4.7039,4.8076,4.7328,4.8589,4.9298,4.9497,4.9151,0.0,4.0485,3.9644,0.0,0.0,0.0,0.0,0.0,0.0,0.0,0.0,0.0,0.0,0.0,0.0,0.0,0.0,0.0,0.0,0.0,0.0,0.0,0.0,0.0,0.0,3.6431,3.5491,3.5607,3.5561,3.4196,3.2208,3.0452,2.9537,2.8594,2.803,0.0,0.0,0.0,0.0,0.0,0.0,3.0487,3.217,3.3713,3.4574,3.4138,3.3884,3.4077,3.2868,3.1869,3.1338,2.979,2.8679,2.8172,2.7195,0.0,0.0,0.0,0.0,0.0,0.0,0.0,0.0,0.0,0.0,0.0,0.0,0.0,0.0,0.0,0.0,0.0,0.0,0.0,0.0,0.0,0.0,0.0,0.0,0.0,0.0,0.0,0.0,0.0,3.3089,3.4735,3.4128,3.5244,3.525,0.0,0.0,0.0,0.0,0.0,0.0,0.0,0.0,0.0,4.2401,4.3689,4.4936,4.6111,4.7212,4.8017,4.8547,4.985,5.0478,5.0482,5.2116,5.251,5.1924,5.2054,5.0272,4.7073,4.4397,4.2047,3.9937,0.0,0.0,0.0,0.0,3.6643,3.6828,3.8115,3.855,3.855,3.8462,0.0,0.0,0.0,0.0,0.0,0.0,0.0,3.4653,3.4985,3.5894,3.678,3.6943,3.7172,3.7027,3.5732,3.4329,3.2775,3.1002,3.0509,3.0146,2.9348,2.8376,0.0,0.0,0.0,3.0419,3.1494,3.246,3.333,3.4069,3.3637,3.3369,3.3543,3.2669,3.1901,3.1439,2.9977,2.8808,2.8147,2.7587,2.7437,0.0,0.0,0.0,0.0,0.0,0.0,0.0,0.0,0.0,0.0,0.0,0.0,0.0,0.0,0.0,0.0,0.0,0.0,0.0,0.0,0.0,0.0,0.0,0.0,0.0,0.0,0.0,0.0,3.4914,3.6184,3.4178,3.6693,3.7239,0.0,0.0,0.0,0.0,0.0,0.0,4.2022,4.2589,4.3891,4.6171,4.7304,4.877,5.0666,5.0491,5.1048,5.2283,5.2369,5.2509,5.2794,5.4364,5.4489,5.3457,5.3597,5.3244,5.225,4.8105,4.5531,4.3955,4.1959,4.0837,4.0304,4.0001,3.9858,4.0041,4.1152,4.1538,4.1494,4.113,4.0467,3.9202,3.5973,0.0,0.0,0.0,0.0,3.5414,3.6382,3.6598,3.6794,3.7738,3.797,3.7622,3.6344,3.5723,3.4738,3.2454,3.2134,3.1844,3.0567,2.929,0.0,2.9711,3.0132,3.0771,3.192,3.2599,3.3119,3.3539,3.3105,3.2788,3.2778,3.2452,3.1956,3.1231,3.0196,2.9142,2.8121,2.7811,2.7593,2.7448,0.0,0.0,0.0,0.0,0.0,0.0,0.0,0.0,0.0,0.0,0.0,0.0,0.0,0.0,0.0,0.0,0.0,0.0,0.0,0.0,0.0,0.0,0.0,0.0,0.0,0.0,0.0,0.0,0.0,3.7606,4.1403,0.0,0.0,0.0,0.0,4.1171,4.1985,4.3582,4.6172,4.6454,4.7706,5.0332,5.1008,5.198,5.3312,5.4482,5.4754,5.4179,5.536,5.5418,5.4491,5.5235,5.5323,5.4884,5.492,5.4492,5.3505,4.9662,4.7653,4.6804,4.4853,4.3717,4.3085,4.2263,4.1949,4.1852,4.1107,4.0855,4.0924,4.1475,4.0797,3.9534,3.8122,3.724,0.0,0.0,3.6626,3.6658,3.7363,3.739,3.7273,3.7346,3.736,3.6997,3.5709,3.5421,3.5,3.3663,3.2396,3.1728,3.2264,0.0,3.0481,3.0539,3.1584,3.1992,3.101,3.2502,3.3538,3.3264,3.2627,3.205,3.1631,3.2083,3.1806,3.0446,3.0588,3.0069,2.8624,2.7768,2.7415,2.7584,2.7626,0.0,0.0,0.0,0.0,0.0,0.0,0.0,0.0,0.0,0.0,0.0,0.0,0.0,0.0,0.0,0.0,0.0,0.0,0.0,0.0,0.0,0.0,0.0,0.0,0.0,0.0,0.0,0.0,4.0269,4.3861,0.0,4.2178,4.2293,4.32,4.4802,4.5173,4.6705,4.9902,5.0121,5.1032,5.2949,5.3228,5.3857,5.4923,5.3952,5.4138,5.5435,5.4216,5.4184,5.525,5.5855,5.5774,5.5202,5.5334,5.4715,5.3439,5.1624,5.0645,5.0228,4.9556,4.8691,4.7685,4.6847,4.6197,4.5584,4.479,4.4168,4.3532,4.2505,4.0982,3.9385,3.8496,3.8052,3.7838,3.7712,3.7937,3.8232,3.8344,3.8003,3.774,3.8168,3.7532,3.6762,3.645,3.5926,3.5319,3.4543,3.3532,3.2748,3.2655,3.1562,3.0762,3.091,3.1643,3.2025,3.163,3.2634,3.3171,3.2628,3.2065,3.1851,3.2066,3.1847,3.1416,3.0794,2.9892,2.8936,2.7921,2.7072,2.6656,2.6757,2.6766,2.7294,0.0,0.0,0.0,0.0,0.0,0.0,0.0,0.0,0.0,0.0,0.0,0.0,0.0,0.0,0.0,0.0,0.0,0.0,0.0,0.0,0.0,0.0,0.0,0.0,0.0,4.0902,4.3668,4.2582,4.6261,4.7931,4.5551,4.5778,4.6848,4.8748,4.8888,5.0029,5.2641,5.2593,5.2948,5.3965,5.4306,5.4594,5.4895,5.4522,5.4834,5.5867,5.4415,5.4379,5.5611,5.5706,5.5344,5.467,5.48,5.416,5.3053,5.2821,5.25,5.2143,5.2176,5.1688,5.0778,4.9438,4.8573,4.7867,4.6357,4.5153,4.4068,4.2541,4.1014,3.9601,3.8945,3.8736,3.8701,3.8573,3.8814,3.9068,3.8943,3.8347,3.785,3.8104,3.7249,3.6341,3.6256,3.5759,3.5284,3.4959,3.4398,3.3786,3.3224,3.2435,3.185,3.1766,3.2267,3.2622,3.2461,3.2878,3.2971,3.2377,3.2001,3.1769,3.1697,3.2051,3.1697,3.0311,2.9927,2.9064,2.7541,2.7215,2.7008,2.6846,2.696,2.7462,2.831,0.0,0.0,0.0,0.0,0.0,0.0,0.0,0.0,0.0,0.0,0.0,0.0,0.0,0.0,0.0,0.0,0.0,0.0,0.0,0.0,0.0,0.0,0.0,3.8794,4.3329,4.6155,4.4668,4.8745,5.091,4.8899,4.9958,5.1416,5.2968,5.3027,5.3389,5.4274,5.3769,5.3444,5.3415,5.4334,5.4338,5.3352,5.6424,5.7149,5.5503,5.6218,5.6214,5.5551,5.4806,5.4078,5.3399,5.3399,5.3019,5.2458,5.3102,5.2986,5.2391,5.2424,5.2407,5.2077,4.9731,4.8817,4.8325,4.5329,4.3484,4.2291,4.1613,4.0954,4.0277,3.9601,3.9406,3.9406,3.9406,3.9265,3.9104,3.9104,3.844,3.7647,3.7072,3.6411,3.5701,3.508,3.4933,3.4918,3.4918,3.4918,3.4728,3.4112,3.4009,3.3787,3.3123,3.3596,0.0,3.3372,3.3268,3.3046,3.2602,3.2492,3.1905,3.0509,3.2713,3.26,2.8946,3.0731,3.053,2.7494,2.8265,2.8489,2.7911,2.8319,2.8668,2.8956,0.0,0.0,0.0,0.0,0.0,0.0,0.0,0.0,0.0,0.0,0.0,0.0,0.0,0.0,0.0,0.0,0.0,0.0,0.0,0.0,0.0,4.0571,4.274,4.2349,4.588,4.8592,4.8895,5.1683,5.3451,5.3176,5.2843,5.3212,5.4572,5.3818,5.3684,5.4615,5.4508,5.4272,5.3997,5.4892,5.5114,5.4535,5.4863,5.5223,5.5553,5.4059,5.3877,5.479,5.4045,5.3581,5.3399,5.3399,5.3019,5.2408,5.2607,5.2574,5.2441,5.2937,5.2443,5.1364,5.0707,4.9078,4.6918,4.4992,4.3484,4.2291,4.1613,4.0954,4.0277,3.9601,3.9406,3.9406,3.9406,3.9355,3.9319,3.9319,3.8433,3.7593,3.7906,3.6656,3.552,3.5967,3.5571,3.5164,3.531,3.5343,3.507,3.4274,3.414,3.398,3.3435,3.3928,3.4153,3.3528,3.3841,3.3964,3.3502,3.3808,3.3657,3.2633,3.3117,3.2254,2.9395,2.9377,2.8605,2.6678,2.7456,2.7983,2.8117,2.8944,2.9629,0.0,0.0,0.0,0.0,0.0,0.0,0.0,0.0,0.0,0.0,0.0,0.0,0.0,0.0,0.0,0.0,0.0,0.0,0.0,0.0,0.0,0.0,4.338,4.5595,4.6426,4.8641,5.0656,5.2036,5.3447,5.462,5.5419,5.4462,5.4252,5.5389,5.4557,5.427,5.4926,5.443,5.4186,5.4359,5.5031,5.5135,5.4593,5.5207,5.5377,5.5053,5.3716,5.3431,5.4011,5.3301,5.2986,5.2986,5.2986,5.2754,5.2391,5.2391,5.2391,5.2441,0.0,0.0,0.0,0.0,4.7942,4.5505,4.4619,4.3269,4.1931,4.1523,4.0756,3.99,3.9511,3.9406,3.9406,3.9406,3.9406,3.9331,3.9047,3.8197,3.7434,3.7569,3.6438,3.5463,3.5967,3.5677,3.5359,3.5488,3.5504,0.0,3.4837,3.4747,3.4555,3.4008,3.4503,3.4787,3.4382,3.4648,3.4652,3.406,3.4526,3.4302,3.2892,3.3246,0.0,0.0,0.0,2.9141,2.8225,2.8669,0.0,0.0,0.0,3.0737,3.1061,3.2179,0.0,0.0,3.3114,3.3506,0.0,0.0,0.0,0.0,0.0,0.0,0.0,0.0,0.0,0.0,0.0,0.0,0.0,0.0,0.0,0.0,4.5887,4.7775,5.0325,5.1196,5.2236,5.3979,5.4252,5.4809,5.6114,5.5207,5.4894,5.5794,5.53,5.506,5.5299,5.4112,0.0,0.0,0.0,5.4717,5.4014,5.6259,5.6363,5.4321,5.4368,5.3995,5.3266,5.2673,5.2391,5.2391,5.2391,5.2391,5.2391,5.2391,5.2391,5.2373,5.2178,5.1619,5.0665,4.822,4.6093,4.4386,4.4237,0.0,0.0,4.1448,4.0591,3.9601,3.9451,3.9406,3.9406,3.9406,3.9406,3.9242,3.8571,3.7898,3.7255,3.6626,3.5983,3.5504,3.5504,3.5504,3.5504,3.5504,3.5504,3.5504,3.5504,3.5504,3.5295,3.4697,3.5115,3.5504,3.5504,3.5521,3.5245,3.4507,3.499,0.0,3.2352,3.3387,3.2923,3.0049,3.0503,3.0837,3.0732,3.0673,3.0845,3.1272,3.1609,3.178,3.1762,3.2148,3.2705,3.3411,3.4251,3.4589,0.0,0.0,0.0,0.0,0.0,0.0,0.0,0.0,0.0,0.0,0.0,0.0,0.0,0.0,0.0,4.5382,4.7427,4.95,5.1566,5.1983,5.2425,5.344,5.3961,5.4643,5.5705,5.5823,5.6097,5.6777,5.6254,5.5961,5.6013,5.5264,5.4396,5.3495,5.4273,5.4466,5.3992,5.4643,5.4806,5.4465,5.3871,0.0,5.259,5.2458,5.2391,5.2391,5.2391,5.2391,5.2391,5.2391,5.2391,5.2266,5.0843,5.0193,4.9702,4.6804,4.547,4.4945,4.3863,4.325,4.2756,4.1728,4.1224,4.0801,3.972,3.9406,0.0,3.9406,3.9406,3.9242,3.8571,3.7898,3.7255,3.6626,3.5983,3.5504,3.5504,3.5504,3.5504,3.5504,3.5504,3.5504,3.5504,3.5504,3.5459,3.5325,3.5429,3.5504,3.5504,3.59,3.5984,3.5412,3.6306,3.6131,3.4088,3.4613,3.4041,3.1679,3.0646,3.0143,3.024,2.9927,3.0186,3.1108,3.1513,3.1856,3.2101,3.2828,3.3248,3.3393,3.3586,3.3658,0.0,0.0,0.0,0.0,0.0,0.0,0.0,0.0,0.0,0.0,0.0,3.9214,4.1474,0.0,4.5358,4.7717,4.9037,5.0436,5.2411,5.2127,5.2225,5.3625,5.4032,5.4545,5.5364,5.5895,5.6327,5.6641,5.6372,5.6192,5.6192,5.5239,5.4444,5.3912,5.4499,5.475,5.4653,5.521,5.5169,5.4508,5.4127,5.3417,5.2391,5.2391,5.2391,5.2373,5.1944,5.1745,5.1709,5.1271,5.1086,5.0941,4.9324,4.8761,4.8563,4.6178,4.4885,4.4192,4.3529,4.31,4.2746,4.2107,4.1673,4.1209,4.0217,3.9885,3.9825,3.9496,3.9152,3.8751,3.8078,3.7419,3.6791,3.6148,3.5744,3.5504,3.5504,3.5504,3.5504,3.5504,3.5504,3.5504,3.5504,3.5749,3.5861,3.5553,3.5749,3.5957,3.5957,3.6443,3.6566,3.5914,3.641,3.6091,3.4355,3.3884,3.3397,3.2696,3.1678,3.1303,3.172,3.1957,3.2107,3.2254,3.285,3.3035,3.2795,3.3644,3.384,3.347,3.4312,3.4446,0.0,0.0,0.0,0.0,0.0,0.0,0.0,3.6165,3.7117,3.9436,4.0409,4.1809,4.4956,4.5624,4.6695,4.9717,5.0196,5.0817,5.2561,5.1887,5.1849,5.3608,5.3937,5.4326,5.5119,5.5818,5.6192,5.6192,5.6192,5.6192,5.6192,5.5044,5.4381,5.4324,5.4556,5.4689,5.4782,5.5531,5.5424,5.4465,5.4314,5.3665,5.259,5.2458,5.2391,5.2356,5.1471,5.11,5.1027,5.0154,4.9805,4.9643,4.8188,4.7624,4.7431,4.5723,4.4416,4.3489,4.3349,4.2985,4.2556,4.244,4.1961,4.1268,4.0591,4.0307,4.0068,3.9391,3.8811,3.823,3.7434,3.6851,3.6329,3.5669,3.5504,3.5504,3.5504,3.5504,3.5504,3.5504,3.5587,3.5683,3.5683,3.618,3.6399,3.5765,3.6196,3.6585,3.6585,3.6972,3.6953,3.6227,3.6206,3.5719,3.4402,3.3352,3.301,3.3498,3.3037,3.2965,3.3498,3.4212,3.4323,3.3758,3.446,3.4516,3.3886,3.4585,3.4604,3.4029,3.537,3.5515,3.1939,3.2147,3.344,3.5985,3.6266,3.711,0.0,4.1723,4.1538,4.3814,4.4816,4.5658,4.6841,4.7542,4.8439,4.9941,5.0196,5.0503,5.131,5.128,5.149,5.2336,5.2935,5.3812,5.5074,5.5818,5.6192,5.6192,5.6192,5.6192,5.6192,5.5504,5.4566,5.3389,5.3375,5.3256,5.2918,5.3013,5.3475,5.4302,5.3665,5.3332,5.3266,5.2673,5.2391,5.2356,5.1471,5.11,5.1027,5.0154,4.9805,4.9643,4.8188,4.7242,4.6559,4.4981,4.4311,4.4102,4.3499,4.3245,4.3115,4.2571,4.1961,4.1268,4.0591,3.9975,3.9376,3.8691,3.8469,3.8108,3.6913,3.6553,3.6329,3.5669,3.5504,3.5504,3.5504,3.5504,3.5504,3.5504,3.5941,3.6305,3.6305,3.686,3.7056,3.6399,3.686,3.7295,3.7295,3.7343,3.7089,3.6374,3.6344,3.609,3.5396,3.5268,3.4974,3.4393,3.4303,3.4163,3.3938,3.4361,3.4729,3.4986,3.5443,3.5652,3.5617,3.5716,3.5754,3.5713,3.5903,3.5556,3.465,3.5221,3.6186,3.7953,3.8929,4.0113,4.2605,4.3105,4.3582,4.5385,4.6299,4.6977,4.7743,4.8438,4.9164,5.0069,5.0533,5.1011,5.1693,5.1445,5.1445,5.2127,5.2441,5.3129,5.4491,5.5209,5.5788,5.6177,5.6192,5.6192,5.6192,5.5564,5.4606,5.3243,5.3738,5.3566,5.2621,5.3146,5.3714,5.4276,5.303,5.2776,5.3347,5.2183,5.1653,5.1635,5.125,5.0554,4.9587,4.882,4.8222,4.7635,4.6234,4.5516,4.5188,4.4528,4.4042,4.3683,4.3394,4.329,4.3245,4.2995,4.2731,4.2327,4.128,4.0786,4.0262,3.8796,3.8409,3.811,3.6838,3.6508,3.6329,3.5669,3.5504,3.5504,3.5504,3.5504,3.5504,3.5504,3.5989,3.6399,3.6399,3.7251,3.7851,3.7662,3.7793,3.7764,3.7335,3.7327,3.6942,3.5946,3.5856,3.5794,3.5583,3.52,3.5002,3.512,3.4996,3.4929,3.4991,3.583,3.6052,3.5567,3.6212,3.6349,3.5905,3.6478,3.6521,3.6087,3.7101,3.7131,3.6356,3.7259,3.8098,3.9381,4.1072,4.2603,4.333,4.4255,4.5293,4.6354,4.6958,4.7504,4.8184,4.8708,4.9269,5.0084,5.0622,5.1161,5.1828,5.134,5.1161,5.1858,5.1603,5.1992,5.3503,5.4251,5.4935,5.5608,5.5653,5.5728,5.5908,5.5474,5.4655,5.3503,5.4146,5.3856,5.2505,5.3159,5.3613,5.3802,5.2444,5.2219,5.2945,5.1431,5.0745,5.0726,5.0515,4.9607,4.8271,4.7548,4.6764,4.5912,4.4745,4.4296,4.4267,4.4087,4.3728,4.329,4.329,4.329,4.329,4.329,4.319,4.2851,4.1747,4.1268,4.0745,3.8918,3.8409,3.811,3.6838,3.6508,3.6329,3.5669,3.5619,3.5701,3.5537,3.5781,3.5973,3.5781,3.6383,3.692,3.692,3.7836,3.8618,3.8756,3.8687,3.837,3.7682,3.7299,3.669,3.5632,3.552,3.5554,3.56,3.5103,3.5019,3.5566,3.5553,3.5669,3.6019,3.6991,3.7183,3.6488,3.7112,3.7158,3.663,3.7355,3.7398,3.6846,3.8108,3.8395,3.573,3.6704,3.7867,4.0174,4.2362,4.4162,4.5018,4.6241,4.7234,4.7264,4.7294,4.7504,4.8184,4.8319,4.873,5.0009,5.0211,5.0473,5.1131,5.0652,5.0488,5.1146,5.0122,5.0145,5.2067,5.286,5.3558,5.4221,5.4266,5.4551,5.5194,5.5209,5.488,5.4206,5.4201,5.3582,5.2234,5.2228,5.2385,5.2649,5.1867,5.165,5.191,5.0477,4.9825,4.9801,4.9015,4.8271,4.7568,4.6707,4.5954,4.5259,4.4566,4.4296,4.4222,4.3579,4.3324,4.329,4.329,4.329,4.329,4.329,4.2895,4.2306,4.1613,4.0954,4.0142,3.8781,3.8409,3.811,3.6838,3.6508,3.6329,3.5669,3.5957,3.6211,3.5619,3.6461,3.7146,3.6508,3.7383,3.8236,3.8236,3.8816,3.9312,3.9445,3.9475,3.9231,3.8643,3.7361,3.6283,3.5661,3.56,3.56,3.56,3.5583,3.5577,3.56,3.6028,3.6447,3.6845,3.7275,3.7729,3.8218,3.8244,3.8316,3.8429,3.8447,3.8512,3.8626,3.8689,3.8689,3.6581,3.8562,4.0615,4.1977,4.3602,4.5057,4.5807,4.63,4.6749,4.7219,4.6177,4.5418,4.6166,4.6243,4.6648,4.8065,4.9725,5.0936,5.1161,5.1783,5.1618,5.013,5.069,5.0983,5.0339,5.1244,5.2336,5.3443,5.3952,5.4311,5.4521,5.4955,5.488,5.4236,5.4206,5.3563,5.2217,5.2202,5.2322,5.259,5.2022,5.1038,4.9703,4.9767,4.9805,4.9785,4.9523,4.8707,4.7547,4.6798,4.5748,4.4566,4.3908,4.3638,4.3624,4.3379,4.329,4.329,4.329,4.329,4.329,4.329,4.316,4.2806,4.1733,4.1239,4.07,3.8903,3.8721,3.8766,3.7449,3.7105,3.6941,3.6312,3.6292,3.6337,3.6133,3.6784,3.734,3.7101,3.7807,3.8432,3.8432,3.9058,3.9449,3.9096,3.8961,3.8681,3.8081,3.7167,3.6329,3.5673,3.56,3.56,3.56,3.56,3.5728,3.6045,3.6454,3.6927,3.7404,3.7306,3.7584,3.8342,3.7898,3.7909,3.851,3.8601,3.8658,3.8699,3.8699,3.8699,3.819,4.0237,4.2219,4.3542,4.4788,4.5783,4.6196,4.63,4.6345,4.6561,4.5117,4.3966,4.4491,4.434,4.4663,4.6315,4.8012,4.9486,5.0682,5.1199,5.1268,5.0744,5.1154,5.1274,5.0744,5.1005,5.1678,5.2755,5.3458,5.3952,5.4206,5.4835,5.4999,5.4581,5.4566,5.3907,5.2561,5.2561,5.2414,5.2086,5.133,5.0234,4.8852,4.8898,4.8913,4.8913,4.8913,4.8096,4.6748,4.6321,4.5279,4.3908,4.3474,4.329,4.329,4.329,4.329,4.329,4.329,4.329,4.329,4.329,4.3145,4.2791,4.1733,4.1239,4.0711,3.9185,3.8901,3.8778,3.7704,3.7395,3.7198,3.6349,3.6612,3.6951,3.6508,3.7325,3.8067,3.7836,3.8404,3.8933,3.8933,3.9179,3.9244,3.8866,3.8538,3.8097,3.7453,3.6706,3.6072,3.565,3.56,3.5678,3.5838,3.5849,3.6028,3.6492,3.6947,3.7339,3.7685,3.7606,3.784,3.842,3.7684,3.7723,3.8567,3.8372,3.8414,3.8699,3.8699,3.8699,4.0355,4.1713,4.2813,4.4799,4.5813,4.6285,4.6256,4.6226,4.6001,4.5334,4.4072,4.3095,4.314,4.2701,4.299,4.4996,4.5469,4.6696,4.9807,4.9344,4.9771,5.2749,5.146,5.1086,5.2974,5.2007,5.1543,5.2202,5.2854,5.3473,5.4177,5.4835,5.5194,5.5194,5.5194,5.4576,5.3213,5.3139,5.2441,5.1131,4.989,4.9277,4.9187,4.7893,4.7309,4.7309,4.7309,4.6546,4.5289,4.5289,4.4506,4.329,4.329,4.329,4.329,4.329,4.329,4.329,4.329,4.329,4.329,4.329,4.2895,4.2276,4.1598,4.092,4.0262,3.9586,3.8963,3.8357,3.771,3.7523,3.7194,3.5989,3.7028,3.7966,3.6769,3.8067,3.9309,3.8671,3.9179,3.9716,3.9716,3.9253,3.8845,3.8761,3.8265,3.7635,3.6885,3.6129,3.5661,3.56,3.5622,3.5833,3.6259,3.6322,3.6512,3.6909,3.7413,3.7721,3.7739,3.8133,3.8402,3.851,3.7715,3.7772,3.8699,3.7925,3.7944,3.8699,3.8699,3.8699,4.1461,4.3508,4.5236,4.5304,4.5813,4.6166,4.5678,4.5185,4.4625,4.3953,4.1863,4.036,4.1017,4.1304,4.228,4.488,4.7773,4.9979,5.0832,5.2396,5.301,5.1858,5.2142,5.2441,5.2441,5.2157,5.2217,5.2875,5.3109,5.3473,5.4177,5.4835,5.5194,5.5194,5.5194,5.4576,5.3213,5.2217,5.128,5.0458,4.9681,4.9037,4.8528,4.7683,4.7309,4.7309,4.7309,4.6546,4.5289,4.5289,4.4506,4.329,4.329,4.329,4.329,4.329,4.329,4.329,4.329,4.329,4.329,4.329,4.2895,4.2276,4.1598,4.092,4.0262,3.9586,3.967,3.9927,3.9744,3.9294,3.8811,3.8481,3.8352,3.8236,3.8009,3.8772,3.9471,3.9412,3.9635,3.9871,3.9969,3.9872,3.9395,3.8285,3.7988,3.7635,3.6885,3.6615,3.6265,3.565,3.5915,3.6174,3.629,3.662,3.6999,3.7477,3.7676,3.7939,3.8283,3.7849,3.7924,3.8632,3.7859,3.7866,3.8699,3.8487,3.8505,3.8699,3.8699,3.8699,4.3115,4.4857,4.6211,4.5822,4.6016,4.5971,4.47,4.3928,4.3015,4.1455,3.9662,3.8415,3.8644,3.9352,4.0827,4.3569,4.6367,4.8873,5.0907,5.2238,5.2985,5.2965,5.3354,5.3608,5.3518,5.3249,5.3354,5.4037,5.3803,5.3803,5.4192,5.4835,5.5194,5.5194,5.5194,5.4576,5.3213,5.2157,5.1146,5.0181,4.9583,4.8947,4.8289,4.7608,4.7309,4.7309,4.7309,4.6546,4.5289,4.5289,4.4506,4.329,4.329,4.329,4.329,4.329,4.329,4.329,4.329,4.329,4.329,4.329,4.2701,4.1901,4.1508,4.0726,3.987,3.9511,3.972,4.0049,4.0049,3.9972,3.9731,3.9138,3.9158,3.9149,3.8611,3.9112,3.972,3.9858,3.9935,4.0011,4.01,3.9842,3.9339,3.8514,3.8108,3.7635,3.6885,3.6496,3.6175,3.5933,3.6142,3.6461,3.6868,3.7169,3.7505,3.7984,3.8066,3.8224,3.8483,3.8112,3.8158,3.8681,3.7907,3.7889,3.8699,3.834,3.8358,3.8699,3.8699,3.8699,4.4904,4.5933,4.6405,4.633,4.63,4.5747,4.3668,4.2701,4.1512,3.8829,3.7808,3.724,3.6733,3.7751,3.9577,4.2351,4.3928,4.6345,5.0712,5.0996,5.1804,5.4715,5.4551,5.4461,5.5119,5.4596,5.4476,5.5149,5.4655,5.4341,5.4341,5.488,5.5194,5.5194,5.504,5.4396,5.3213,5.2531,5.1565,5.0315,4.9636,4.8992,4.8423,4.7653,4.7359,4.7467,4.7337,4.6655,4.5595,4.5381,4.4632,4.3568,4.3379,4.3369,4.3448,4.3329,4.329,4.329,4.329,4.3369,4.3433,4.3329,4.2506,4.1523,4.1523,4.0651,3.9655,3.9562,3.9723,3.9902,3.9785,4.0277,4.049,3.9229,3.9793,4.0275,3.8975,3.9339,3.9948,4.0087,4.0096,4.0096,4.0096,3.9559,3.9119,3.9005,3.8464,3.7794,3.7125,3.6305,3.5958,3.6418,3.6533,3.6936,3.7802,3.7945,3.81,3.8382,3.8486,3.8525,3.8525,3.865,3.8699,3.8699,3.8017,3.7999,3.8699,3.7999,3.8017,3.8699,3.8699,3.8699,4.5867,4.6636,4.6995,4.6435,4.63,4.5642,4.3125,4.2047,4.0819,3.8123,3.7479,3.7375,3.727,3.8781,4.1085,4.4292,4.6388,4.8626,5.1618,5.289,5.3728,5.4311,5.4281,5.4461,5.5119,5.4596,5.4476,5.5149,5.5089,5.5029,5.5029,5.5134,5.5194,5.5194,5.4102,5.3438,5.3198,5.2531,5.1813,5.1011,4.986,4.9232,4.9082,4.7863,4.7673,4.8324,4.7602,4.7256,4.7099,4.583,4.5218,4.5,4.3797,4.3708,4.422,4.3551,4.329,4.329,4.329,4.3747,4.4182,4.3512,4.2821,4.2231,4.2231,4.1687,4.0942,4.0367,4.1112,4.1917,4.1319,4.1779,4.2199,4.1357,4.0948,4.0572,3.9815,3.9867,4.0075,4.01,4.0096,4.0096,4.0096,3.9994,3.9694,3.9102,3.8886,3.8683,3.8322,3.7331,3.6841,3.733,3.7759,3.8241,3.8735,3.9185,3.9155,3.8523,3.8601,3.8666,3.8666,3.8692,3.8699,3.8699,3.856,3.856,3.8699,3.856,3.856,3.8699,3.8699,3.8699,4.654,4.707,4.707,4.6037,4.5508,4.4476,4.1504,4.0325,3.9098,3.6432,3.6163,3.64,3.64,3.8033,4.0217,4.2836,4.4681,4.701,5.0637,5.1714,5.2761,5.4521,5.4715,5.485,5.5164,5.491,5.485,5.5164,5.5194,5.5194,5.5194,5.5194,5.5194,5.5194,5.4236,5.3548,5.3198,5.2531,5.1693,5.0667,4.9756,4.9112,4.8753,4.7743,4.7516,4.7892,4.7488,4.7177,4.6845,4.5746,4.5612,4.5937,4.4497,4.4396,4.4984,4.4204,4.3669,4.329,4.329,4.383,4.4434,4.4047,4.3491,4.2963,4.2963,4.2493,4.1917,4.1587,4.2311,4.3104,4.2816,4.3067,4.3096,4.205,4.105,4.027,4.0058,4.0062,4.0214,4.0608,4.0354,4.0218,4.0608,4.0354,3.9977,3.9626,3.9559,3.9491,3.9243,3.8813,3.8603,3.8866,3.9166,3.9534,4.0,3.9886,3.9825,3.9847,3.9528,3.9313,3.9313,3.9313,3.9129,3.8707,3.8699,3.8699,3.8699,3.8699,3.8699,3.8699,3.8699,3.8699,4.6824,4.7399,4.7369,4.5888,4.502,4.3638,4.0363,3.899,3.7706,3.5221,3.5251,3.5759,3.5893,3.727,3.9113,4.1254,4.2496,4.4781,4.9351,5.0129,5.14,5.4596,5.5104,5.5194,5.5194,5.5194,5.5194,5.5194,5.5059,5.5044,5.5179,5.4925,5.4835,5.497,5.4206,5.3518,5.3004,5.2456,5.1543,5.0181,4.9583,4.8947,4.8289,4.7608,4.7402,4.7559,4.7231,4.6892,4.6506,4.5507,4.5672,4.6443,4.5049,4.5056,4.5757,4.5022,4.4239,4.3551,4.3551,4.4086,4.4756,4.4756,4.44,4.3969,4.3969,4.3511,4.2987,4.2827,4.3251,4.3776,4.3727,4.3728,4.3411,4.2062,4.0821,4.0011,4.029,4.0337,4.0506,4.1085,4.0743,4.0472,4.0882,4.0472,4.0096,4.0096,4.0121,4.0156,4.0203,4.0346,4.0528,4.0785,4.0635,4.0736,4.1235,4.0693,4.0553,4.1077,4.0506,4.0157,4.0157,4.0157,3.9772,3.8964,3.9122,3.903,3.8699,3.8865,3.8865,3.8699,3.8891,3.8854,4.6482,4.7728,4.8648,4.6689,4.5687,4.4347,4.1055,3.932,3.7823,3.5818,3.5938,3.6567,3.712,3.7868,3.9263,4.1886,4.241,4.4118,4.8723,4.9868,5.1221,5.3982,5.482,5.5194,5.5194,5.5194,5.5194,5.5194,5.464,5.4566,5.5164,5.4052,5.3653,5.4281,5.3054,5.2351,5.2291,5.2232,5.1543,5.0181,4.9583,4.8947,4.8289,4.7608,4.7737,4.8397,4.7012,4.68,4.7323,4.5248,4.5228,4.6383,4.503,4.5363,4.6515,4.584,4.5073,4.4392,4.4392,4.4924,4.5588,4.5588,4.5541,4.5493,4.5493,4.5109,4.4542,4.3872,4.3862,4.3901,4.325,4.3171,4.2919,4.1582,4.0654,4.0273,4.095,4.1102,4.1119,4.1187,4.1153,4.0899,4.0303,4.0146,4.0096,4.0096,4.0201,4.058,4.1418,4.1708,4.2149,4.2996,4.2178,4.1732,4.2152,4.2104,4.1792,4.114,4.103,4.0993,4.0993,4.0993,4.0608,3.9816,4.0498,4.0167,3.8699,3.9423,3.9405,3.8718,3.9441,3.9405,4.5983,4.7189,4.7803,4.66,4.4915,4.3005,4.0876,3.8766,3.6928,3.5744,3.5714,3.6207,3.7225,3.7315,3.7988,4.0232,4.0266,4.1343,4.5205,4.5912,4.7631,5.1879,5.2636,5.3428,5.5029,5.5194,5.5029,5.4625,5.4356,5.4147,5.4007,5.3862,5.3743,5.3593,5.3069,5.2606,5.2202,5.1813,5.1131,5.0181,4.9583,4.8947,4.8289,4.7608,4.7488,4.7785,4.7175,4.6872,4.6721,4.5434,4.5793,4.6973,4.5203,4.5652,4.7179,4.6108,4.5783,4.5822,4.5381,4.6095,4.7133,4.6696,4.6914,4.7206,4.619,4.5793,4.562,4.5323,4.5006,4.4823,4.5057,4.3887,4.251,4.1986,4.0963,4.018,4.0472,4.0882,4.1339,4.1779,4.1508,4.1255,4.1403,4.0692,4.0138,4.0201,4.0471,4.0966,4.1775,4.22,4.2693,4.3393,4.3055,4.2845,4.3012,4.258,4.2378,4.2525,4.2084,4.1819,4.1819,4.1819,4.1434,4.0645,4.0938,4.0553,3.9423,3.9743,3.9486,3.8707,3.9038,3.9019,4.4696,4.6309,4.7339,4.6256,4.4317,4.2271,4.0741,3.8377,3.6314,3.5639,3.5504,3.5833,3.6926,3.6926,3.727,3.8838,3.8871,3.9798,4.2955,4.3504,4.5269,4.9808,5.0526,5.1603,5.4072,5.467,5.4625,5.3952,5.3728,5.3399,5.292,5.3159,5.3189,5.2914,5.2516,5.2097,5.1594,5.0975,5.0316,4.9635,4.9194,4.8648,4.7982,4.7519,4.7309,4.7294,4.71,4.6734,4.6256,4.5589,4.5937,4.6773,4.5352,4.5995,4.7577,4.668,4.6859,4.7442,4.6688,4.725,4.8151,4.7415,4.782,4.8283,4.6631,4.6222,4.6236,4.6005,4.55,4.5062,4.5214,4.3776,4.2198,4.1758,4.0861,4.0163,4.0371,4.0832,4.1356,4.1863,4.1728,4.1542,4.164,4.1002,4.0442,4.0326,4.0713,4.1344,4.2236,4.2594,4.303,4.3784,4.3635,4.3506,4.3506,4.2992,4.29,4.3451,4.2974,4.2653,4.2653,4.2653,4.2286,4.147,4.169,4.1185,3.9908,4.0139,3.9845,3.9056,3.9056,3.9056,4.2263,4.5144,4.7825,4.5798,4.4282,4.2786,4.0846,3.8377,3.6314,3.5639,3.5504,3.5714,3.6372,3.6985,3.7614,3.8287,3.8958,4.0318,4.3015,4.3913,4.5304,4.8019,4.8917,5.0085,5.2037,5.3443,5.3937,5.3258,5.2591,5.2217,5.2217,5.1603,5.152,5.2187,5.0922,5.0226,5.0211,4.9613,4.8977,4.8334,4.8319,4.7952,4.7309,4.7309,4.7309,4.7264,4.66,4.6315,4.6256,4.5589,4.5304,4.5333,4.5449,4.6396,4.7716,4.782,4.8475,4.9156,4.8423,4.8316,4.8356,4.7569,4.7983,4.8516,4.6954,4.6499,4.6333,4.561,4.5016,4.4262,4.274,4.232,4.1927,4.0468,4.0113,4.0303,4.1035,4.1191,4.1204,4.1208,4.1779,4.1826,4.0367,4.0824,4.115,4.0407,4.0873,4.1745,4.3013,4.3023,4.335,4.4572,4.3975,4.3506,4.3506,4.3488,4.3488,4.3506,4.3488,4.3488,4.3488,4.3488,4.3121,4.2304,4.3065,4.2294,3.9908,4.07,4.0663,3.989,3.989,3.989,4.0356,4.1956,4.323,4.2584,4.117,3.9798,3.917,3.736,3.5759,3.5533,3.5504,3.5699,3.6389,3.6673,3.7285,3.8841,3.9257,4.0004,4.1773,4.2955,4.4775,4.7944,5.0855,5.289,5.3518,5.3533,5.3414,5.3228,5.2576,5.2007,5.1558,5.0877,5.0622,5.0832,5.0405,4.9994,4.9583,4.9396,4.8962,4.8304,4.8304,4.7938,4.7309,4.7309,4.7309,4.7294,4.7085,4.6471,4.5603,4.5394,4.5035,4.4638,4.4918,4.5903,4.7172,4.7414,4.8345,4.9393,4.8663,4.8827,4.9258,4.8557,4.8259,4.7997,4.7016,4.6712,4.6442,4.5192,4.4728,4.4364,4.3318,4.229,4.1424,4.095,4.0472,4.0163,4.0405,4.0832,4.1204,4.1204,4.1451,4.1545,4.107,4.1286,4.1605,4.1792,4.2687,4.3657,4.452,4.4822,4.5096,4.548,4.48,4.4103,4.3543,4.3506,4.3506,4.3506,4.3506,4.3506,4.3506,4.3506,4.3378,4.3139,4.3378,4.2845,4.1534,4.1809,4.1515,4.0681,3.9588,3.9368,3.834,3.9724,4.0676,4.0494,3.9427,3.8317,3.8078,3.6716,3.5504,3.5504,3.5504,3.5624,3.6043,3.6507,3.724,3.8449,3.9077,3.9873,4.1209,4.2506,4.4446,4.7549,5.0727,5.2596,5.2366,5.2636,5.2734,5.2456,5.2067,5.1648,5.1221,5.0338,4.9868,4.9868,4.9605,4.9299,4.8917,4.8678,4.8349,4.7923,4.7923,4.7698,4.7294,4.7055,4.7048,4.7294,4.7018,4.6499,0.0,4.6095,4.5713,4.5026,4.5509,4.6425,4.7534,4.7969,4.8978,5.0071,4.9601,4.9647,4.9792,4.9099,4.8249,4.7361,4.6616,4.6191,4.5785,4.4869,4.4381,4.3961,4.32,4.21,4.1136,4.0849,4.0422,4.0096,4.0096,4.0455,4.0807,4.0845,4.1155,4.1333,4.1095,4.1552,4.2078,4.2469,4.3498,4.4589,4.5617,4.5843,4.6012,4.6315,4.5636,4.4947,4.4461,4.3855,4.3506,4.3506,4.3506,4.3506,4.3506,4.3506,4.3506,4.3506,4.3506,4.3102,4.2304,4.2304,4.1562,4.0186,3.9782,3.9544,0.0,3.8177,3.9631,3.92,3.8626,3.8018,3.7419,3.634,0.0,3.5504,3.5504,3.5519,3.5564,3.6552,3.7389,3.7524,3.8629,3.9948,4.1283,4.2731,4.4596,4.7145,4.9157,5.0069,4.9426,5.1035,5.1872,5.1251,5.1146,5.1101,5.1056,4.9905,4.9239,4.9239,4.8588,4.8244,4.8244,4.7608,4.7309,4.7309,4.7309,4.7309,4.7279,4.667,4.6742,4.7282,4.6686,4.6518,4.6707,4.7378,4.7045,4.6178,4.6925,4.768,4.8421,4.9179,5.0057,5.0855,5.0855,5.048,4.9881,4.9103,4.7919,4.6648,4.5788,4.506,4.4499,4.4499,4.3893,4.3085,4.2388,4.1677,4.095,4.0265,4.0096,4.0096,4.0096,4.0096,4.0163,4.0313,4.0895,4.1208,4.0698,4.1683,4.2602,4.2694,4.3595,4.4813,4.6342,4.6264,4.6361,4.7113,4.6461,4.5993,4.5993,4.4571,4.3653,4.3598,4.3598,4.3561,4.3506,4.3506,4.3506,4.3506,4.3506,4.3139,4.2396,4.2268,4.1085,3.9001,4.0314,4.0186,3.4501,0.0,3.6109,3.5995,3.6066,3.6148,0.0,3.5714,3.5504,3.5504,3.5504,3.5669,3.6163,3.6507,3.7195,3.8688,3.9616,4.0621,4.1991,4.5041,4.7534,4.8693,5.0541,5.1265,5.0099,5.0862,5.137,5.1206,5.0727,5.0234,4.9771,4.8977,4.8543,4.8543,4.7878,4.7534,4.7534,4.7384,4.7309,4.7309,4.7309,4.7309,4.7301,4.7336,4.7461,4.7594,4.7661,4.7451,4.707,4.7241,4.6866,4.6267,4.7161,4.7619,4.7902,4.8789,4.9273,4.9463,4.9463,4.9376,4.9035,4.7733,4.7073,4.643,4.4522,4.3812,4.3676,4.3676,4.273,4.1681,4.1508,4.0912,4.0303,4.0146,4.0096,4.0096,4.0096,4.0096,4.0229,4.0672,4.0988,4.1279,4.1587,4.2461,4.3259,4.3681,4.4951,4.6126,4.686,4.7414,4.7801,4.8003,4.7305,4.6828,4.6828,4.592,4.5076,4.4461,4.4415,4.414,4.3524,4.3506,4.3506,4.3506,4.3506,4.3414,4.3231,4.1992,4.1415,4.1423,3.9947,3.9727,3.3711,3.4589,3.541,3.5592,3.579,3.5953,3.5953,3.5729,3.5415,3.51,3.5295,3.5609,3.5968,3.6522,3.736,3.8721,3.9768,4.107,4.3005,4.5385,4.7406,4.8693,5.004,5.0571,4.9868,5.0368,5.0622,5.0346,4.9987,4.9628,4.9307,4.8663,4.8304,4.8304,4.7653,4.7309,4.7309,4.7381,4.7381,4.7294,4.7546,4.7595,4.7466,4.746,4.7615,4.7886,4.7742,4.7543,4.7367,4.7708,4.7515,4.707,4.7901,4.8241,4.8339,4.92,4.9289,4.9052,4.939,4.9069,4.8242,4.6769,4.6073,4.5497,4.3896,4.2932,4.2459,4.2797,4.232,4.1627,4.1288,4.0899,4.0523,4.018,4.0096,4.0125,4.0175,4.0336,4.0589,4.1001,4.1319,4.1628,4.2018,4.266,4.335,4.3994,4.4976,4.586,4.647,4.725,4.7746,4.7746,4.7691,4.7654,4.7654,4.725,4.6507,4.5324,4.5259,4.4892,4.4085,4.4048,4.3883,4.3506,4.3506,4.3322,4.2947,4.2451,4.2039,4.1727,4.0791,4.0685,3.3498,3.4822,3.5997,3.6225,3.6402,3.6479,3.6374,3.5908,3.534,3.4772,3.51,3.5564,3.5759,3.6669,3.7689,3.8556,3.9918,4.1803,4.4541,4.5304,4.6277,4.8094,4.8887,4.9217,4.9007,4.9643,4.98,4.9187,4.9142,4.9097,4.8992,4.8468,4.8154,4.8154,4.7593,4.7294,4.7352,4.7495,4.7531,4.7402,4.7753,4.7809,4.7606,4.7346,4.7527,4.7988,4.7623,4.758,4.7773,4.841,4.8431,4.8129,4.8767,4.9001,4.9086,4.9695,4.9458,4.8917,4.9407,4.8781,4.7481,4.6024,4.5108,4.4415,4.3386,4.2188,4.1322,4.1813,4.2046,4.1961,4.1221,4.1119,4.1018,4.0282,4.0096,4.0146,4.0345,4.0666,4.1036,4.1437,4.1821,4.2162,4.237,4.2731,4.3221,4.3902,4.4401,4.4938,4.5626,4.6425,4.6947,4.7094,4.7709,4.8168,4.8296,4.8296,4.7719,4.6342,4.6159,4.5681,4.4737,4.47,4.4323,4.3524,4.3506,4.3157,4.2488,4.3047,4.2616,4.1305,4.1856,4.1976,3.3574,3.5036,3.6043,3.5527,3.5942,3.6359,3.5789,3.5579,3.5474,3.537,3.5429,3.5833,3.6909,3.7285,3.8003,3.9798,4.1683,4.4047,4.7234,4.7279,4.7324,4.8214,4.8887,4.8843,4.7713,4.8723,4.9157,4.8498,4.8453,4.8214,4.7638,4.7519,4.7459,4.7459,4.7354,4.7381,4.7538,4.7581,4.7688,4.7901,4.7416,4.7159,4.7133,4.7356,4.7503,4.7623,4.8382,4.8745,4.8777,4.8887,4.8899,4.8845,4.8955,4.9001,4.9018,4.9137,4.8698,4.7988,4.7479,4.7173,4.6733,4.5244,4.4685,4.4212,4.2168,4.1377,4.1085,4.0574,4.0895,4.1204,4.0455,4.0743,4.1018,4.0282,4.0096,4.0229,4.0703,4.0908,4.1287,4.23,4.2529,4.2741,4.3223,4.3366,4.3456,4.3566,4.4224,4.4737,4.4865,4.559,4.6351,4.7021,4.7204,4.7562,4.8241,4.8296,4.8186,4.7948,4.7287,4.625,4.4755,4.47,4.4323,4.3524,4.3506,4.3433,4.3304,4.2772,4.2359,4.2103,4.1544,4.1767,3.2603,3.3939,3.5041,3.5167,3.6641,3.8003,3.7671,0.0,0.0,3.6686,3.6821,3.7135,3.736,3.8302,3.9903,4.2611,4.3524,4.4676,4.6905,4.6636,4.6471,4.7145,4.7803,4.7967,4.7369,4.8199,4.8483,4.7803,4.7758,4.7623,4.7324,4.7309,4.7337,4.7467,4.7121,4.7075,4.7418,4.709,4.7105,4.7469,4.7818,4.7722,4.7295,4.7978,4.8316,4.8349,4.8807,4.9001,4.9001,4.9001,4.9001,4.9001,4.9001,4.9001,4.8951,4.8546,4.7938,4.7141,4.6022,4.5616,4.5362,4.3839,4.3095,4.257,4.1525,4.0916,4.054,4.0197,4.0912,4.1525,4.0388,4.0946,4.1521,4.0367,4.0323,4.0625,4.0932,4.1492,4.2087,4.2692,4.2976,4.3214,4.3453,4.3506,4.3506,4.3506,4.3818,4.4048,4.4048,4.4745,4.5379,4.5755,4.6581,4.7241,4.7617,4.8058,4.8296,4.8296,4.7535,4.6764,4.603,4.5159,4.4535,4.4158,4.3726,4.3506,4.3506,4.3139,4.2972,4.2996,4.277,4.307,3.2016,3.3156,3.4283,3.5262,0.0,0.0,0.0,0.0,0.0,0.0,3.8616,3.8706,3.8197,3.9619,4.1788,4.4616,4.49,4.5239,4.657,4.6202,4.6022,4.6674,4.7078,4.7309,4.7309,4.7758,4.7848,4.7339,4.716,4.707,4.707,4.707,4.7059,4.7065,4.6719,4.6694,4.6987,4.6483,4.6458,4.693,4.769,4.7803,4.7333,4.8134,4.8578,4.875,4.894,4.9001,4.9001,4.9001,4.89,4.8732,4.8732,4.8646,4.8376,4.7447,4.6769,4.6073,4.4584,4.4059,4.3839,4.2486,4.166,4.117,4.0984,4.0557,4.0096,4.0096,4.1031,4.1741,4.0451,4.1064,4.1747,4.0572,4.0613,4.1007,4.1386,4.2129,4.2769,4.2995,4.3295,4.3506,4.3506,4.3506,4.3506,4.3506,4.3506,4.3506,4.3506,4.403,4.448,4.4681,4.5801,4.6599,4.6801,4.7562,4.8021,4.8021,4.7617,4.7296,4.7113,4.592,4.5085,4.4718,4.4102,4.3697,4.3513,4.3558,4.3624,4.3747,4.3954,4.4287,3.2821,3.3698,3.4547,3.6023,3.6552,0.0,3.8987,3.8931,0.0,4.076,0.0,0.0,4.0187,4.1313,4.272,4.4152,4.5373,4.6614,4.7952,4.7578,4.7399,4.8094,4.7653,4.7309,4.7309,4.7339,4.7354,4.7309,4.6719,4.6375,4.6375,4.6375,4.6097,4.5475,4.6007,4.6253,4.6093,4.6047,4.6234,4.6625,4.609,4.6161,4.6763,4.6891,4.7339,4.8032,4.8703,4.9001,4.9001,4.9001,4.8597,4.7988,4.7988,4.7549,4.68,4.5362,4.4787,4.4533,4.301,4.2469,4.2333,4.1542,4.1238,4.1068,4.0388,4.0146,4.0096,4.0096,4.0675,4.1102,4.0303,4.0692,4.1206,4.0916,4.0868,4.1212,4.2342,4.2645,4.2855,4.3366,4.347,4.3506,4.3506,4.3506,4.3506,4.3506,4.3506,4.3506,4.3506,4.3543,4.3864,4.4626,4.481,4.5177,4.592,4.6718,4.7186,4.7186,4.7838,4.7874,4.7131,4.6984,4.6214,4.4737,4.4696,4.4345,4.359,4.3719,4.3913,4.4155,4.4177,4.4499,3.1842,3.3043,3.4241,3.4892,3.6065,0.0,0.0,4.0775,4.1209,4.2406,4.2746,0.0,0.0,4.297,4.4018,4.5328,4.6315,4.7249,4.8162,4.7369,4.6764,4.704,4.6456,4.6217,4.6629,4.6674,4.6674,4.6674,4.6435,4.63,4.63,4.5897,4.5816,4.6097,4.5556,4.5354,4.5573,4.5146,4.5307,4.6056,4.6663,4.6666,4.6137,4.7539,4.8072,4.7939,4.869,4.9001,4.9001,4.9001,4.8563,4.7853,4.7411,4.6769,4.5991,4.4973,4.4279,4.3639,4.2134,4.1627,4.1491,4.076,4.0523,4.0455,4.018,4.0096,4.0096,4.0096,4.0303,4.0468,4.0285,4.0995,4.1629,4.1134,4.1523,4.2142,4.2606,4.2958,4.325,4.3453,4.3506,4.3506,4.3506,4.3506,4.3506,4.3506,4.3506,4.3506,4.3506,4.3506,4.3616,4.392,4.4406,4.503,4.5828,4.625,4.6654,4.7058,4.7856,4.815,4.7856,4.7444,4.6691,4.5588,4.5142,4.4611,4.3975,4.4014,4.4218,4.4506,4.4682,4.4902,3.1619,3.2851,3.4151,3.4519,0.0,0.0,4.1059,4.2081,4.277,4.4047,4.4132,4.3848,4.3379,4.3683,4.4356,4.5493,4.6405,4.7138,4.7593,4.6711,4.5971,4.5971,4.5589,4.5484,4.5942,4.5971,4.5971,4.5971,4.5792,4.5672,4.5672,4.5244,4.5157,4.5562,4.4669,4.4423,4.4872,4.422,4.4375,4.5363,4.6574,4.676,4.6077,4.7377,4.7806,4.7582,4.8326,4.8528,4.8325,4.8562,4.7938,4.6786,4.6024,4.528,4.4536,4.3805,4.3183,4.2527,4.1288,4.0849,4.0764,4.0265,4.0096,4.0096,4.0096,4.0096,4.0096,4.0096,4.0217,4.0368,4.0524,4.1121,4.169,4.1626,4.217,4.275,4.292,4.3241,4.3506,4.3506,4.3506,4.3506,4.3506,4.3506,4.3506,4.3506,4.3506,4.3506,4.3506,4.3506,4.3506,4.3506,4.3993,4.4552,4.513,4.5495,4.5899,4.6406,4.7518,4.8219,4.8354,4.7758,4.7061,4.6264,4.5621,4.4968,4.4353,4.4374,4.4546,4.4855,4.5047,4.5206,3.2452,3.3332,3.44,3.5261,3.6462,0.0,4.1632,4.2396,4.314,4.5762,4.4715,4.3319,4.3319,4.3319,4.3529,4.4192,4.5433,4.63,4.63,4.5723,4.5289,4.5289,4.5274,4.5274,4.5289,4.5289,4.5289,4.5289,4.4691,4.4296,4.4282,4.4282,4.3982,4.3305,4.3294,4.3512,4.3992,4.3336,4.3537,4.4616,4.5343,4.608,4.6743,4.6031,4.6103,4.6834,4.7566,4.7464,4.6853,4.7566,4.6583,4.4499,4.3693,4.2932,4.2215,4.1474,4.1204,4.1085,4.0354,4.0096,4.0096,4.0096,4.0096,4.0096,4.0096,4.0096,4.0096,4.0113,4.0497,4.0926,4.1088,4.1013,4.1223,4.242,4.2693,4.2855,4.3392,4.3506,4.3506,4.3506,4.3506,4.3506,4.3506,4.3506,4.3506,4.3506,4.3506,4.3506,4.3506,4.3506,4.3506,4.3506,4.3506,4.354,4.359,4.4325,4.4847,4.4986,4.6762,4.7992,4.8458,4.7987,4.7359,4.6612,4.6137,4.5514,4.4695,4.4763,4.4931,4.5206,4.5206,4.5342,3.1738,3.2585,3.3745,3.4401,3.6705,3.9302,4.1254,4.2066,0.0,0.0,4.5448,4.4721,4.4721,4.5089,4.5313,4.505,4.5717,4.63,4.63,4.5313,4.4601,4.4601,4.4177,4.4072,4.4556,4.4601,4.4601,4.4601,4.4401,4.4087,4.3624,4.318,4.287,4.2676,4.2342,4.2542,4.3277,4.325,4.3946,4.5359,4.5068,4.5039,4.5287,4.6108,4.6321,4.6075,4.6802,4.7005,4.675,4.592,4.4857,4.369,4.2912,4.2489,4.2215,4.1474,4.1204,4.1085,4.0354,4.0096,4.0096,4.0096,4.0096,4.0096,4.0096,4.0175,4.0296,4.0577,4.0856,4.1218,4.2018,4.22,4.2282,4.274,4.3059,4.3322,4.348,4.3506,4.3506,4.3506,4.3506,4.3506,4.3506,4.3506,4.3506,4.3506,4.3506,4.3506,4.3506,4.3506,4.3506,4.3506,4.3539,4.3573,4.359,4.4109,4.4694,4.5259,4.6595,4.7316,4.7175,4.7829,4.753,4.6139,4.6023,4.5671,4.5052,4.5069,4.5217,4.5485,4.5485,4.5517,3.2169,3.3092,3.4355,3.555,3.8053,4.0681,4.2541,4.3484,4.4392,4.5971,4.5783,4.5289,4.5289,4.5633,4.5783,4.5364,4.5648,4.5807,4.5538,4.4581,4.3908,4.3908,4.3564,4.3369,4.3524,4.3559,4.3434,4.3165,4.315,4.297,4.2581,4.2211,4.204,4.2117,4.1584,4.1751,4.2708,4.2851,4.3569,4.4862,4.4364,4.4286,4.4632,4.5513,4.5684,4.5263,4.5399,4.5449,4.5365,4.4178,4.3234,4.2476,4.2033,4.1677,4.1369,4.0929,4.0747,4.0709,4.0252,4.0096,4.0096,4.0096,4.0096,4.0133,4.0316,4.0446,4.0635,4.1088,4.1464,4.1881,4.2537,4.2864,4.3032,4.3114,4.3322,4.3506,4.3506,4.3506,4.3506,4.3506,4.3506,4.3506,4.3506,4.3506,4.3506,4.3506,4.3506,4.3506,4.3506,4.3615,4.3697,4.3712,4.3855,4.3969,4.4031,4.4303,4.4664,4.5132,4.6265,4.6664,4.6081,4.7331,4.7422,4.6119,4.5938,4.5687,4.5352,4.5352,4.5438,4.5594,4.5244,4.5263,3.3333,3.4287,3.5593,3.7908,4.0038,4.2241,4.4721,4.5783,4.6211,4.6211,4.5828,4.5439,4.5319,4.5349,4.5364,4.5304,4.5244,4.5005,4.4386,4.3728,4.329,4.329,4.3265,4.3015,4.2455,4.2351,4.2066,4.1448,4.1403,4.1343,4.1224,4.1224,4.1239,4.1336,4.0828,4.107,4.2191,4.2215,4.2667,4.357,4.3397,4.369,4.4395,4.4395,4.4395,4.4347,4.3623,4.3271,4.3152,4.2472,4.1775,4.1102,4.1102,4.0679,4.0096,4.0096,4.0096,4.0096,4.0096,4.0096,4.0113,4.0146,4.0159,4.0241,4.0719,4.0914,4.1105,4.162,4.2229,4.2731,4.2769,4.3124,4.3506,4.3506,4.3506,4.3506,4.3506,4.3506,4.3506,4.3506,4.3506,4.3506,4.3506,4.3506,4.3506,4.3506,4.3506,4.3515,4.3531,4.3804,4.4014,4.4046,4.433,4.4566,4.4682,4.4739,4.4763,4.4825,4.5916,4.6141,4.527,4.6666,4.7094,4.6334,4.5855,4.5594,4.5594,4.5594,4.5594,4.5575,4.4782,4.484,3.3731,3.3958,3.4692,3.8162,4.0976,4.3309,4.493,4.5409,4.5514,4.5514,4.6247,4.6546,4.5484,4.5738,4.5897,4.5394,4.487,4.4446,4.4311,4.3728,4.329,4.329,4.288,4.2526,4.241,4.1912,4.1553,4.1403,4.1403,4.0954,3.9903,3.9825,3.9436,3.8594,3.9034,3.9965,4.1422,4.1485,4.2173,4.3439,4.2827,4.2625,4.279,4.279,4.279,4.279,4.2608,4.2202,4.1647,4.1508,4.1001,4.0337,4.0337,4.0235,4.0096,4.0096,4.0096,4.0096,4.0096,4.0096,4.0159,4.0531,4.0652,4.0731,4.1208,4.151,4.1771,4.2221,4.2578,4.2929,4.3241,4.341,4.3506,4.3506,4.3506,4.3506,4.3506,4.3506,4.3506,4.3506,4.3506,4.3506,4.3506,4.3506,4.3506,4.3506,4.3506,4.359,4.3862,4.3957,4.4091,4.4357,4.4553,4.4663,4.4707,4.495,4.5096,4.5107,4.6181,4.6426,4.5551,4.6489,4.6637,4.5792,4.5664,4.5594,4.5594,4.5594,4.5594,4.5594,4.5417,4.5417,3.3868,3.4331,3.5362,3.9662,4.2269,4.4042,4.5065,4.505,4.4825,4.4825,4.5633,4.6037,4.5005,4.5379,4.5603,4.493,4.4541,4.4092,4.3484,4.309,4.2746,4.2432,4.2122,4.1792,4.1463,4.1134,4.0786,4.0472,4.0161,3.9667,3.896,3.8614,3.8257,3.7871,3.8245,3.9056,4.0322,4.0682,4.1385,4.239,4.1967,4.1593,4.1267,4.1978,4.2113,4.1762,4.1762,4.1356,4.0675,4.0675,4.0455,4.0096,4.0096,4.0096,4.0096,4.0096,4.0096,4.0096,4.0096,4.0258,4.0471,4.0719,4.0949,4.123,4.1771,4.2046,4.2282,4.2789,4.3041,4.3241,4.3454,4.3506,4.3506,4.3506,4.3506,4.3506,4.3506,4.3506,4.3506,4.3506,4.3506,4.3506,4.3506,4.3506,4.3548,4.3716,4.374,4.3852,4.414,4.4341,4.4502,4.4726,4.4956,4.5091,4.5123,4.5297,4.54,4.54,4.5955,4.6071,4.5614,4.6033,4.6071,4.5614,4.5594,4.5398,4.4975,4.5398,4.5379,4.4975,4.4975,4.5205,3.3918,3.5199,3.6907,4.104,4.302,4.4092,4.4526,4.4287,4.3943,4.3803,4.4511,4.4885,4.4107,4.4511,4.4706,4.3928,4.3808,4.3434,4.2381,4.2231,4.2036,4.1463,4.1298,4.1014,4.0442,4.0307,3.9948,3.9272,3.8706,3.8287,3.808,3.7539,3.7346,3.7591,3.7842,3.8427,3.9358,4.0019,4.066,4.1286,4.1103,4.0679,4.0146,4.1352,4.1589,4.1001,4.0882,4.0557,4.0096,3.9948,3.9994,4.0096,4.0096,4.0096,4.0096,4.0096,4.0146,4.0221,4.0221,4.0531,4.0926,4.1019,4.1321,4.1753,4.2338,4.2586,4.2752,4.326,4.3455,4.3506,4.3506,4.3506,4.3506,4.3506,4.3506,4.3506,4.3506,4.3506,4.3506,4.3506,4.3506,4.3506,4.3506,4.3558,4.3682,4.3958,4.4048,4.4177,4.4445,4.4751,4.4979,4.5074,4.5342,4.555,4.5609,4.5594,4.5594,4.5594,4.5594,4.5594,4.5594,4.5455,4.5379,4.5379,4.5379,4.4955,4.4085,4.4821,4.4878,4.4297,4.4297,4.4763,3.3964,3.661,3.9134,4.0367,4.1673,4.253,4.2032,4.2286,4.2481,4.1912,4.3195,4.4077,4.287,4.3199,4.324,4.2002,4.1792,4.1733,4.1553,4.1523,4.1493,4.1403,4.0894,4.0502,4.0412,3.987,3.9275,3.8571,3.8437,3.793,3.6808,3.6673,3.6427,3.6022,3.7186,3.8265,3.9214,3.9826,4.0499,4.1205,4.0569,4.0197,4.0113,4.0299,4.035,4.0214,3.9576,3.9609,4.0045,3.9406,3.9525,4.0096,4.0096,4.0096,4.0096,4.0096,4.0353,4.0712,4.0712,4.1001,4.1459,4.1878,4.2126,4.2368,4.2861,4.3142,4.3305,4.3385,4.3455,4.3506,4.3506,4.3506,4.3506,4.3506,4.3506,4.3506,4.3506,4.3506,4.3506,4.3506,4.3506,4.3506,4.3506,4.374,4.3958,4.3997,4.425,4.4533,4.48,4.496,4.5175,4.541,4.5537,4.5586,4.559,4.5594,4.5594,4.5594,4.5594,4.5594,4.5594,4.4878,4.4474,4.4474,4.4474,4.4066,4.3258,4.3374,4.372,4.4297,4.4297,4.4763,3.3949,3.6576,3.8913,3.9642,4.0846,4.1747,4.1463,4.1343,4.1298,4.1388,4.1773,4.2058,4.1867,4.2077,4.2092,4.1493,4.1403,4.1268,4.0894,4.0831,4.0696,4.0322,3.9694,3.9424,3.9795,3.8883,3.8317,3.8377,3.7751,3.7092,3.6538,3.6464,3.6389,3.6259,3.7265,3.8211,3.9075,3.9438,3.9928,4.0591,4.0252,4.0096,4.0096,4.0096,3.9863,3.9474,3.9153,3.8949,3.887,3.8954,3.9186,3.9525,3.9943,4.0096,4.0096,4.0096,4.0234,4.0451,4.0707,4.1105,4.1499,4.1509,4.2089,4.2752,4.2559,4.2904,4.3412,4.3446,4.348,4.3506,4.3506,4.3506,4.3506,4.3506,4.3506,4.3506,4.3506,4.3506,4.3506,4.3506,4.3649,4.3781,4.3781,4.403,4.4279,4.4423,4.4605,4.4825,4.5148,4.5256,4.5362,4.549,4.5564,4.5594,4.5594,4.5594,4.5594,4.5594,4.5594,4.5594,4.5594,4.5225,4.4801,4.4316,4.4297,4.3662,4.2369,4.3316,4.372,4.3643,4.4085,4.4763,3.3692,3.5522,3.7149,3.8298,3.9576,4.0599,4.0621,4.0502,4.0487,4.0816,4.0487,4.0307,4.0786,4.1029,4.1089,4.0905,4.0894,4.0711,4.0217,4.0157,3.9903,3.9227,3.8691,3.8527,3.8853,3.7985,3.7539,3.7901,3.7047,3.6485,3.647,3.6423,3.6554,3.6875,3.7589,3.8292,3.8917,3.9256,3.964,4.0096,4.0096,4.0096,4.0096,3.991,3.9423,3.8717,3.8717,3.8413,3.7927,3.8481,3.8819,3.9068,3.9808,3.9994,3.9854,4.0161,4.0234,4.0275,4.0926,4.1354,4.1561,4.1306,4.1972,4.2768,4.2229,4.2682,4.3437,4.3489,4.3506,4.3506,4.3506,4.3506,4.3506,4.3506,4.3506,4.3506,4.3506,4.3565,4.3624,4.3624,4.3884,4.4098,4.4098,4.4318,4.4572,4.4788,4.495,4.5121,4.5385,4.5486,4.5537,4.5537,4.5573,4.5594,4.5594,4.5594,4.5594,4.5594,4.5594,4.5594,4.5594,4.5379,4.4878,4.4008,4.3989,4.3374,4.2139,4.3162,4.347,4.3104,4.372,4.4455,3.2986,3.3323,3.3763,3.585,3.7374,3.8412,3.8539,3.9499,4.0232,3.9631,3.9481,3.9466,3.9496,4.0004,4.0247,3.9616,3.9496,3.9496,3.9466,3.9451,3.9197,3.8527,3.8424,3.8153,3.7569,3.7449,3.718,3.6643,3.6538,3.6457,3.6413,3.6399,3.6692,3.734,3.808,3.8541,3.8718,3.961,4.0058,4.0096,4.0096,4.0096,4.0079,3.9389,3.865,3.7973,3.7973,3.7927,3.7893,3.7927,3.8379,3.9068,3.9808,3.966,3.9197,4.0347,4.0602,4.0548,4.1714,4.2021,4.1878,4.186,4.2022,4.2234,4.2206,4.2796,4.3497,4.3506,4.3506,4.3506,4.3506,4.3506,4.3506,4.3506,4.3506,4.3506,4.3506,4.3757,4.3974,4.3974,4.4192,4.4388,4.4388,4.4599,4.48,4.4872,4.5175,4.5405,4.5485,4.5559,4.559,4.559,4.559,4.5594,4.5594,4.5594,4.5594,4.5594,4.5594,4.5594,4.5594,4.4801,4.3989,4.3181,4.3162,4.3124,4.3028,4.2293,4.2331,4.3104,4.3143,4.3605,3.2527,3.2881,3.3407,3.512,3.6567,3.7568,3.7622,3.874,3.9574,3.8901,3.9092,3.9406,3.9406,3.9601,3.9675,3.9436,3.9406,3.9406,3.9406,3.9406,3.9152,3.8484,3.8018,3.7659,3.7417,3.6655,3.6267,3.6493,3.6467,3.6424,3.6399,3.7191,3.7735,3.7966,3.8731,3.9249,3.947,3.9803,3.9775,3.9389,3.9389,3.9153,3.8667,3.8413,3.7889,3.719,3.719,3.6891,3.6462,3.6975,3.7359,3.7664,3.8396,3.8678,3.8733,3.9164,3.9433,3.9677,4.0405,4.0667,4.0743,4.1025,4.1619,4.2205,4.2195,4.2813,4.3506,4.3506,4.3506,4.3506,4.3506,4.3506,4.3548,4.3773,4.396,4.4076,4.4076,4.4166,4.4265,4.4265,4.4465,4.4657,4.4657,4.4952,4.5181,4.5221,4.5351,4.5462,4.5499,4.5564,4.5594,4.5594,4.5594,4.5594,4.5594,4.5594,4.5594,4.5594,4.5594,4.534,4.4782,4.4994,4.4744,4.3893,4.4417,4.3628,4.1435,4.1681,4.2254,4.3104,4.3104,4.3835,3.1872,3.2107,3.2542,3.4025,3.5065,3.5855,3.6416,3.762,3.862,3.8437,3.8931,3.9466,3.969,3.9556,3.9406,3.9406,3.9406,3.9406,3.9406,3.9406,3.9152,3.8484,3.7808,3.733,3.712,3.6133,3.5684,3.6118,3.6313,3.6508,3.6723,3.7735,3.8407,3.8632,3.9239,3.9538,3.9467,3.9556,3.9273,3.8633,3.8633,3.8379,3.7877,3.7652,3.7257,3.6778,3.6513,3.6248,3.6062,3.6851,3.7173,3.7252,3.8134,3.8328,3.8198,3.874,3.8958,3.9065,3.983,4.0002,3.9968,4.056,4.1251,4.1882,4.2147,4.2821,4.3506,4.3506,4.3506,4.3506,4.3506,4.3582,4.3757,4.406,4.4339,4.4533,4.4533,4.4533,4.4533,4.4533,4.477,4.4969,4.4992,4.5221,4.5418,4.5433,4.5477,4.5508,4.5522,4.5573,4.5594,4.5594,4.5594,4.5594,4.5594,4.5594,4.5594,4.5594,4.5594,4.534,4.4763,4.5282,4.5186,4.4316,4.4878,4.3917,4.1377,4.2239,4.2951,4.3508,4.3508,4.4263,0.0,0.0,0.0,3.2415,3.2799,3.3201,3.4789,3.6179,3.7379,3.8162,3.8871,3.9511,4.0187,3.9765,3.9346,3.9346,3.9376,3.9406,3.9406,3.9406,3.9152,3.8484,3.7808,3.7165,3.6568,3.5893,3.5504,3.5537,3.6085,3.6723,3.7399,3.7994,3.8618,3.9252,3.9513,3.9305,3.8572,3.8802,3.8565,3.7826,3.7826,3.7809,3.7775,3.7071,3.6761,3.6728,3.5932,3.6062,3.6863,3.7591,3.7884,3.7999,3.9117,3.8687,3.7642,3.9181,3.9307,3.8875,4.0193,4.0211,3.9748,4.0617,4.1011,4.1287,4.2084,4.2882,4.3506,4.3506,4.3515,4.3523,4.3513,4.3763,4.4094,4.4353,4.4618,4.4806,4.4806,4.4806,4.4806,4.4806,4.5087,4.5323,4.5398,4.5408,4.5424,4.5485,4.5504,4.5522,4.5586,4.5594,4.5594,4.5594,4.5594,4.5594,4.5594,4.5594,4.5594,4.5594,4.5594,4.5594,4.5556,4.5594,4.5186,4.4316,4.434,4.3951,4.3181,4.3912,4.4278,4.4297,4.434,4.4786,3.1351,0.0,0.0,0.0,0.0,0.0,3.3906,3.496,3.5945,3.6665,3.7065,3.7494,3.8123,3.8093,3.7941,3.7941,3.8763,3.9406,3.9406,3.9406,3.9152,3.8484,3.7808,3.7165,3.6568,3.5893,3.5683,3.6116,3.6753,3.7383,3.8009,3.8676,3.886,3.8526,3.8676,3.845,3.7815,3.7396,3.6875,3.6236,3.6236,3.5949,3.5453,3.5791,3.5932,3.5915,3.5712,3.6062,3.6835,3.7387,3.7612,3.7663,3.8292,3.8437,3.8394,3.8829,3.8743,3.8556,3.9491,3.9781,3.9886,4.0697,4.1422,4.2121,4.291,4.3322,4.3506,4.3506,4.3674,4.3908,4.4091,4.4362,4.4592,4.4669,4.4928,4.5167,4.5167,4.5167,4.5167,4.5167,4.5272,4.5388,4.5403,4.5448,4.5486,4.5495,4.5531,4.5577,4.559,4.5594,4.5594,4.5594,4.5594,4.5594,4.5594,4.5594,4.5594,4.5594,4.5594,4.5321,4.4686,4.5263,4.5186,4.4316,4.4917,4.5128,4.4917,4.3912,4.372,4.4321,4.4955,4.5412,0.0,0.0,0.0,0.0,0.0,0.0,3.2895,3.3701,3.4513,3.5326,3.5798,3.6267,3.6911,3.6806,3.6701,3.6985,3.7689,3.8377,3.8916,3.9212,3.9257,3.8871,3.8227,3.7569,3.6941,3.6532,3.6326,3.6383,3.725,3.8053,3.8673,3.88,3.8642,3.8215,3.809,3.7544,3.6547,3.6264,3.5639,3.4681,3.4681,3.4461,3.4066,3.4799,3.5137,3.5154,3.5475,3.5977,3.6648,3.743,3.7637,3.7519,3.8089,3.8251,3.8274,3.8825,3.8722,3.8424,3.9309,3.9692,3.9937,4.0765,4.1621,4.2451,4.3267,4.3506,4.3522,4.3674,4.3921,4.4228,4.4511,4.4682,4.4837,4.4988,4.5167,4.5302,4.5302,4.5323,4.5333,4.5307,4.5348,4.5394,4.5395,4.5467,4.5508,4.5546,4.5573,4.5594,4.5594,4.5594,4.5594,4.5594,4.5594,4.5594,4.5594,4.5594,4.5594,4.5594,4.5594,4.5359,4.4859,4.5321,4.5359,4.4859,4.534,4.5629,4.5684,4.4647,4.4416,4.4932,4.5452,4.5734,0.0,0.0,0.0,0.0,3.1289,0.0,3.1929,3.2505,3.3142,3.4123,3.4737,3.5321,3.5995,3.562,3.5426,3.6008,3.6249,3.6849,3.8302,3.896,3.9316,3.9391,3.8736,3.8018,3.736,3.7234,3.6997,3.6554,3.7691,3.8676,3.9272,3.8593,3.8166,3.8083,3.762,3.6635,3.5101,3.5245,3.4636,3.3288,3.3288,3.3288,3.3322,3.4127,3.45,3.4533,3.5328,3.5915,3.6395,3.7554,3.7845,3.7623,3.8396,3.83,3.7864,3.9061,3.9051,3.8576,3.9469,3.9863,4.0063,4.0859,4.1635,4.2451,4.3267,4.3458,4.3495,4.3856,4.4134,4.4393,4.4751,4.4856,4.4934,4.5235,4.5302,4.5302,4.5302,4.5348,4.5374,4.5323,4.5364,4.5419,4.5405,4.5476,4.5522,4.5586,4.5594,4.5594,4.5594,4.5594,4.5594,4.5594,4.5594,4.5594,4.5594,4.5594,4.5594,4.5594,4.5594,4.5594,4.5594,4.5594,4.5594,4.5594,4.5612,4.568,4.5803,4.568,4.5696,4.5808,4.5808,4.5844,0.0,0.0,0.0,0.0,3.1168,0.0,3.159,3.1829,3.2245,3.2983,3.2887,3.2892,3.3559,3.3573,3.3529,3.3662,3.4679,3.6343,3.885,3.8856,3.8796,3.9331,3.8329,3.736,3.6748,3.6188,3.6238,3.7147,3.8381,3.9161,3.9285,3.8593,3.7934,3.7321,3.6754,3.5792,3.4415,3.3906,3.3277,3.2503,3.2503,3.2503,3.2564,3.389,3.45,3.4572,3.5688,3.6216,3.6364,3.7253,3.7935,3.8502,3.904,3.9165,3.9074,3.9384,3.9439,3.9377,3.9632,4.0207,4.0877,4.104,4.1635,4.2451,4.3267,4.3195,4.2965,4.3526,4.3712,4.3986,4.4944,4.5194,4.5224,4.5272,4.5302,4.5302,4.5302,4.5348,4.5403,4.5374,4.5429,4.5476,4.5485,4.5546,4.5581,4.559,4.5594,4.5594,4.5594,4.5594,4.5594,4.5594,4.5594,4.5594,4.5594,4.5594,4.5594,4.5594,4.5594,4.5594,4.5594,4.5594,4.5594,4.5594,4.5712,4.5775,4.5803,4.5775,4.5799,4.5889,4.5889,4.5949,0.0,0.0,0.0,3.1216,0.0,0.0,0.0,3.1523,3.1509,3.2245,3.1941,3.1751,3.2385,3.2253,3.2268,3.2901,3.3426,3.468,3.7325,3.7824,3.8033,3.8359,3.7806,3.7165,3.6568,3.6768,3.7342,3.8272,3.8942,3.9149,3.8772,3.8063,3.7343,3.6676,3.6078,3.5094,3.3716,3.3432,3.2769,3.1742,3.1742,3.1742,3.1802,3.3107,3.3891,3.4326,3.5502,3.6342,3.6929,3.7322,3.7873,3.8465,3.8711,3.8798,3.8906,3.9823,3.9662,3.9191,4.052,4.0777,4.0571,4.0967,4.1456,4.1971,4.2377,4.2817,4.3203,4.3503,4.4017,4.4584,4.5156,4.5302,4.5302,4.5302,4.5323,4.5343,4.5343,4.5409,4.5443,4.5443,4.5505,4.555,4.5504,4.5559,4.5594,4.5594,4.5594,4.5594,4.5594,4.5594,4.5594,4.5594,4.5594,4.5594,4.5594,4.5594,4.5594,4.5594,4.5594,4.5594,4.5594,4.5594,4.5637,4.5704,4.5799,4.5883,4.5941,4.5941,4.5969,4.5998,4.5998,4.6064,0.0,0.0,0.0,0.0,0.0,3.1229,0.0,0.0,0.0,3.1614,3.1337,3.1146,3.1645,3.1337,3.1337,3.2366,3.2357,3.2906,3.4922,3.5969,3.669,3.7078,3.695,3.6675,3.628,3.7375,3.8344,3.8861,3.899,3.8745,3.8033,3.7313,3.6696,3.6225,3.5606,3.4628,3.3215,3.3311,3.2631,3.12,3.12,3.123,3.1327,3.2406,3.3331,3.4173,3.5314,3.6464,3.7505,3.7605,3.7862,3.82,3.82,3.8308,3.8613,4.0054,3.9957,3.9414,4.1392,4.1222,4.0246,4.0956,4.1357,4.1619,4.1833,4.2571,4.3398,4.3621,4.4331,4.5092,4.5264,4.5302,4.5302,4.5302,4.5343,4.5403,4.5403,4.5448,4.5499,4.5499,4.554,4.5581,4.5522,4.5568,4.5594,4.5594,4.5594,4.5594,4.5594,4.5594,4.5594,4.5594,4.5594,4.5594,4.5594,4.5625,4.5646,4.5646,4.566,4.5657,4.5657,4.5657,4.57,4.5825,4.5897,4.5992,4.61,4.6133,4.6139,4.6139,4.6139,4.6206,0.0,0.0,0.0,0.0,3.1527,0.0,3.0991,0.0,3.1294,3.0846,0.0,3.0672,3.0744,0.0,0.0,3.0846,3.1434,3.1951,3.2244,3.2972,3.4162,3.595,3.5371,3.4946,3.5231,3.6405,3.7247,3.7413,3.7885,3.7883,3.7255,3.6638,3.6263,3.6192,3.5606,3.4628,3.3215,3.322,3.2531,3.12,3.12,3.1368,3.1665,3.2513,3.3501,3.4606,3.5731,3.6702,3.7533,3.795,3.8149,3.82,3.82,3.8668,3.9378,3.9644,4.0602,4.1718,4.1364,4.1122,4.1024,4.1362,4.1632,4.2034,4.3058,4.2928,4.2655,4.3664,4.4048,4.4336,4.5111,4.5302,4.5302,4.5302,4.5343,4.5403,4.5403,4.5448,4.5499,4.5499,4.554,4.559,4.5586,4.559,4.5594,4.5594,4.5594,4.5594,4.5594,4.5594,4.5594,4.5594,4.5594,4.5594,4.5594,4.5715,4.5778,4.5778,4.5841,4.5861,4.5861,4.5861,4.587,4.5883,4.6005,4.6072,4.61,4.6215,4.6274,4.6274,4.6274,4.6296,0.0,0.0,0.0,0.0,0.0,0.0,3.1265,0.0,3.1003,3.1105,0.0,0.0,0.0,0.0,0.0,0.0,3.1183,3.1302,3.1591,3.1776,3.2489,3.4069,3.398,3.4181,3.5122,3.5979,3.667,3.7114,3.7356,3.7187,3.6506,3.6224,3.5956,3.5694,3.5435,3.4662,3.3339,3.3322,3.261,3.12,3.1399,3.1554,3.1748,3.2984,3.405,3.5004,3.6197,3.7159,3.7924,3.8123,3.8216,3.8249,3.8249,3.8773,3.9558,4.0185,4.0881,4.1624,4.2492,4.2152,4.1404,4.1863,4.1757,4.1552,4.2181,4.2136,4.2042,4.3031,4.3648,4.4202,4.5073,4.5302,4.5302,4.5302,4.535,4.539,4.539,4.5471,4.5564,4.5564,4.5577,4.5594,4.5594,4.5594,4.5594,4.5594,4.5594,4.5594,4.5594,4.5594,4.5633,4.5715,4.5727,4.5726,4.5773,4.5835,4.5865,4.5865,4.5875,4.5902,4.5902,4.5961,4.6028,4.6028,4.6144,4.6214,4.6214,4.6273,4.6301,4.6301,4.6301,4.6301,3.0955,0.0,0.0,0.0,0.0,0.0,0.0,0.0,0.0,0.0,3.1032,0.0,0.0,0.0,0.0,0.0,0.0,3.0862,3.1222,3.1098,3.1396,3.253,3.3017,3.3696,3.486,3.5467,3.6043,3.6687,3.6741,3.6435,3.5744,3.5767,3.5654,3.5308,3.536,3.474,3.3413,3.3396,3.2662,3.12,3.1543,3.1759,3.1904,3.3349,3.4503,3.5417,3.6284,3.7132,3.7865,3.7889,3.7931,3.8016,3.852,3.92,3.9998,4.0726,4.1199,4.1721,4.3402,4.3159,4.2154,4.2596,4.2039,4.1336,4.1985,4.1858,4.1729,4.2813,4.3553,4.4202,4.5073,4.5312,4.5328,4.5328,4.539,4.5424,4.5424,4.5513,4.5594,4.5594,4.5594,4.5594,4.5594,4.5594,4.5594,4.5594,4.5594,4.5612,4.5643,4.5647,4.5692,4.5828,4.5825,4.5844,4.5894,4.593,4.5978,4.6003,4.6005,4.6005,4.6005,4.6102,4.6147,4.6147,4.6246,4.6301,4.6301,4.6301,4.6301,4.6301,4.6301,4.6301,0.0,0.0,0.0,3.0832,0.0,0.0,0.0,0.0,3.1307,0.0,0.0,0.0,0.0,0.0,0.0,0.0,0.0,0.0,0.0,3.0612,3.092,3.1728,3.2586,3.3384,3.407,3.4625,3.5195,3.5803,3.584,3.5576,3.4982,3.5185,3.5325,3.5291,3.5492,3.489,3.3413,3.3396,3.2662,3.12,3.1543,3.1905,3.2318,3.3467,3.4652,3.5778,3.5822,3.629,3.7039,3.7112,3.7144,3.7305,3.9078,4.0239,4.0961,4.0988,4.1688,4.2779,4.367,4.3781,4.3545,4.3554,4.2623,4.1796,4.3433,4.2789,4.1839,4.3496,4.3987,4.4202,4.5073,4.5343,4.5403,4.5403,4.5443,4.5499,4.5499,4.5559,4.5594,4.5594,4.5594,4.5594,4.5594,4.5594,4.5594,4.5594,4.5594,4.5658,4.5778,4.5796,4.5815,4.5883,4.5897,4.5897,4.5902,4.6011,4.6146,4.6275,4.6297,4.6297,4.6297,4.6298,4.6299,4.6299,4.63,4.6301,4.6301,4.6301,4.6301,4.6301,4.6301,4.6301,3.1146,3.1604,3.1899,3.0967,3.1289,3.1612,3.0788,3.1061,3.1321,0.0,0.0,0.0,0.0,0.0,0.0,0.0,0.0,0.0,0.0,3.091,3.1132,3.1308,3.1983,3.2676,3.3307,3.3543,3.4051,3.4996,3.4247,3.4086,3.4866,3.4517,3.4612,3.5274,3.5372,3.4762,3.3413,3.3396,3.2778,3.1543,3.1914,3.2282,3.2695,3.4419,3.5419,3.583,3.6363,3.7041,3.7756,3.7302,3.7438,3.803,3.8689,3.926,3.9863,4.0946,4.2278,4.3647,4.4289,4.4612,4.4731,4.4737,4.4017,4.3266,4.3834,4.2827,4.1839,4.3534,4.3616,4.3531,4.4995,4.538,4.54,4.54,4.5453,4.5499,4.5499,4.5559,4.5594,4.5594,4.5668,4.5727,4.5727,4.5772,4.5783,4.5742,4.5775,4.5812,4.5858,4.5861,4.5908,4.6011,4.6039,4.6062,4.6168,4.621,4.6246,4.63,4.6301,4.6301,4.6301,4.6301,4.6301,4.6301,4.6301,4.6301,4.6301,4.6301,4.6301,4.6301,4.6301,4.6301,3.1264,3.1723,3.2123,3.141,3.1617,3.1823,3.117,3.1676,3.204,3.1197,3.147,0.0,0.0,0.0,0.0,0.0,0.0,0.0,0.0,3.1495,3.1738,3.1653,3.1922,3.2351,3.2933,3.3179,3.3596,3.4272,3.355,3.3503,3.4452,3.4147,3.4356,3.5274,3.5372,3.4891,3.3795,3.3541,3.2968,3.2135,3.224,3.2468,3.2864,3.4596,3.5377,3.5413,3.6218,3.6876,3.737,3.7188,3.7484,3.8123,3.884,3.9468,4.0074,4.1118,4.2678,4.4358,4.4826,4.5115,4.5302,4.5302,4.4704,4.4006,4.4006,4.3056,4.2245,4.363,4.3665,4.3585,4.5026,4.5415,4.5434,4.5434,4.549,4.5544,4.5595,4.5647,4.5688,4.5708,4.5778,4.5841,4.5841,4.5906,4.5942,4.5841,4.5872,4.5915,4.5954,4.5978,4.6013,4.6168,4.6176,4.621,4.6298,4.6301,4.6301,4.6301,4.6301,4.6301,4.6301,4.6301,4.6301,4.6301,4.6301,4.6301,4.6301,4.6301,4.6301,4.6301,4.6301,4.6301]}]]